[[{"header":{"parameterUnit":"m.s-1","parameterCategory":1,"la1":30.6,"la2":28.766,"lo1":-90.7593,"lo2":-88.6598,"dx":0.0162,"dy":0.0183,"nx":116,"ny":114,"refTime":"2023-01-11T06:00:00:Z","depth":0,"parameterNumber":2,"parameterNumberName":"U-component_of_WINDS"},"data":[0.0,0.0,0.0,0.0,0.0,0.0,0.0,0.0,0.0,0.0,0.0,0.0,0.0,0.0,0.0,0.0,0.0,0.0,0.0,0.0,0.0,0.0,0.0,0.0,0.0,0.0,0.0,0.0,0.0,0.0,0.0,0.0,0.0,0.0,0.0,0.0,0.0,0.0,0.0,0.0,0.0,0.0,0.0,0.0,0.0,0.0,0.0,0.0,0.0,0.0,0.0,0.0,0.0,0.0,0.0,0.0,0.0,0.0,0.0,0.0,0.0,0.0,0.0,0.0,0.0,0.0,0.0,0.0,0.0,0.0,0.0,0.0,0.0,0.0,0.0,0.0,0.0,0.0,0.0,0.0,0.0,0.0,0.0,0.0,0.0,0.0,0.0,0.0,0.0,0.0,0.0,0.0,0.0,0.0,0.0,0.0,0.0,0.0,0.0,0.0,0.0,0.0,0.0,0.0,0.0,0.0,0.0,0.0,0.0,0.0,0.0,0.0,0.0,0.0,0.0,0.0,0.0,0.0,0.0,0.0,0.0,0.0,0.0,0.0,0.0,0.0,0.0,0.0,0.0,0.0,0.0,0.0,0.0,0.0,0.0,0.0,0.0,0.0,0.0,0.0,0.0,0.0,0.0,0.0,0.0,0.0,0.0,0.0,0.0,0.0,0.0,0.0,0.0,0.0,0.0,0.0,0.0,0.0,0.0,0.0,0.0,0.0,0.0,0.0,0.0,0.0,0.0,0.0,0.0,0.0,0.0,0.0,0.0,0.0,0.0,0.0,0.0,0.0,0.0,0.0,0.0,0.0,0.0,0.0,0.0,0.0,0.0,0.0,0.0,0.0,0.0,0.0,0.0,0.0,0.0,0.0,0.0,0.0,0.0,0.0,0.0,0.0,0.0,0.0,0.0,0.0,0.0,0.0,0.0,0.0,0.0,0.0,0.0,0.0,0.0,0.0,0.0,0.0,0.0,0.0,0.0,0.0,0.0,0.0,0.0,0.0,0.0,0.0,0.0,0.0,0.0,0.0,0.0,0.0,0.0,0.0,0.0,0.0,0.0,0.0,0.0,0.0,0.0,0.0,0.0,0.0,0.0,0.0,0.0,0.0,0.0,0.0,0.0,0.0,0.0,0.0,0.0,0.0,0.0,0.0,0.0,0.0,0.0,0.0,0.0,0.0,0.0,0.0,0.0,0.0,0.0,0.0,0.0,0.0,0.0,0.0,0.0,0.0,0.0,0.0,0.0,0.0,0.0,0.0,0.0,0.0,0.0,0.0,0.0,0.0,0.0,0.0,0.0,0.0,0.0,0.0,0.0,0.0,0.0,0.0,0.0,0.0,0.0,0.0,0.0,0.0,0.0,0.0,0.0,0.0,0.0,0.0,0.0,0.0,0.0,0.0,0.0,0.0,0.0,0.0,0.0,0.0,0.0,0.0,0.0,0.0,0.0,0.0,0.0,0.0,0.0,0.0,0.0,0.0,0.0,0.0,0.0,0.0,0.0,0.0,0.0,0.0,0.0,0.0,0.0,0.0,0.0,0.0,0.0,0.0,0.0,0.0,0.0,0.0,0.0,0.0,0.0,0.0,0.0,0.0,0.0,0.0,0.0,0.0,0.0,0.0,0.0,0.0,0.0,0.0,0.0,0.0,0.0,0.0,0.0,0.0,0.0,0.0,0.0,0.0,0.0,0.0,0.0,0.0,0.0,0.0,0.0,0.0,0.0,0.0,0.0,0.0,0.0,0.0,0.0,0.0,0.0,0.0,0.0,0.0,0.0,0.0,0.0,0.0,0.0,0.0,0.0,0.0,0.0,0.0,0.0,0.0,0.0,0.0,0.0,0.0,0.0,0.0,0.0,0.0,0.0,0.0,0.0,0.0,0.0,0.0,0.0,0.0,0.0,0.0,0.0,0.0,0.0,0.0,0.0,0.0,0.0,0.0,0.0,0.0,0.0,0.0,0.0,0.0,0.0,0.0,0.0,0.0,0.0,0.0,0.0,0.0,0.0,0.0,0.0,0.0,0.0,0.0,0.0,0.0,0.0,0.0,0.0,0.0,0.0,0.0,0.0,0.0,0.0,0.0,0.0,0.0,0.0,0.0,0.0,0.0,0.0,0.0,0.0,0.0,0.0,0.0,0.0,0.0,0.0,0.0,0.0,0.0,0.0,0.0,0.0,0.0,0.0,0.0,0.0,0.0,0.0,0.0,0.0,0.0,0.0,0.0,0.0,0.0,0.0,0.0,0.0,0.0,0.0,0.0,0.0,0.0,0.0,0.0,0.0,0.0,0.0,0.0,0.0,0.0,0.0,0.0,0.0,0.0,0.0,0.0,0.0,0.0,0.0,0.0,0.0,0.0,0.0,0.0,0.0,0.0,0.0,0.0,0.0,0.0,0.0,0.0,0.0,0.0,0.0,0.0,0.0,0.0,0.0,0.0,0.0,0.0,0.0,0.0,0.0,0.0,0.0,0.0,0.0,0.0,0.0,0.0,0.0,0.0,0.0,0.0,0.0,0.0,0.0,0.0,0.0,0.0,0.0,0.0,0.0,0.0,0.0,0.0,0.0,0.0,0.0,0.0,0.0,0.0,0.0,0.0,0.0,0.0,0.0,0.0,0.0,0.0,0.0,0.0,0.0,0.0,0.0,0.0,0.0,0.0,0.0,0.0,0.0,0.0,0.0,0.0,0.0,0.0,0.0,0.0,0.0,0.0,0.0,0.0,0.0,0.0,0.0,0.0,0.0,0.0,0.0,0.0,0.0,0.0,0.0,0.0,0.0,0.0,0.0,0.0,0.0,0.0,0.0,0.0,0.0,0.0,0.0,0.0,0.0,0.0,0.0,0.0,0.0,0.0,0.0,0.0,0.0,0.0,0.0,0.0,0.0,0.0,0.0,0.0,0.0,0.0,0.0,0.0,0.0,0.0,0.0,0.0,0.0,0.0,0.0,0.0,0.0,0.0,0.0,0.0,0.0,0.0,0.0,0.0,0.0,0.0,0.0,0.0,0.0,0.0,0.0,0.0,0.0,0.0,0.0,0.0,0.0,0.0,0.0,0.0,0.0,0.0,0.0,0.0,0.0,0.0,0.0,0.0,0.0,0.0,0.0,0.0,0.0,0.0,0.0,0.0,0.0,0.0,0.0,0.0,0.0,0.0,0.0,0.0,0.0,0.0,0.0,0.0,0.0,0.0,0.0,0.0,0.0,0.0,0.0,0.0,0.0,0.0,0.0,0.0,0.0,0.0,0.0,0.0,0.0,0.0,0.0,0.0,0.0,0.0,0.0,0.0,0.0,0.0,0.0,0.0,0.0,0.0,0.0,0.0,0.0,0.0,0.0,0.0,0.0,0.0,0.0,0.0,0.0,0.0,0.0,0.0,0.0,0.0,0.0,0.0,0.0,0.0,0.0,0.0,0.0,0.0,0.0,0.0,0.0,0.0,0.0,0.0,0.0,0.0,0.0,0.0,0.0,0.0,0.0,0.0,0.0,0.0,0.0,0.0,0.0,0.0,0.0,0.0,0.0,0.0,0.0,0.0,0.0,0.0,0.0,0.0,0.0,0.0,0.0,0.0,0.0,0.0,0.0,0.0,0.0,0.0,0.0,0.0,0.0,0.0,0.0,0.0,0.0,0.0,0.0,0.0,0.0,0.0,0.0,0.0,0.0,0.0,0.0,0.0,0.0,0.0,0.0,0.0,0.0,0.0,0.0,0.0,0.0,0.0,0.0,0.0,0.0,0.0,0.0,0.0,0.0,0.0,0.0,0.0,0.0,0.0,0.0,0.0,0.0,0.0,0.0,0.0,0.0,0.0,0.0,0.0,0.0,0.0,0.0,0.0,0.0,0.0,0.0,0.0,0.0,0.0,0.0,0.0,0.0,0.0,0.0,0.0,0.0,0.0,0.0,0.0,0.0,0.0,0.0,0.0,0.0,0.0,0.0,0.0,0.0,0.0,0.0,0.0,0.0,0.0,0.0,0.0,0.0,0.0,0.0,0.0,0.0,0.0,0.0,0.0,0.0,0.0,0.0,0.0,0.0,0.0,0.0,0.0,0.0,0.0,0.0,0.0,0.0,0.0,0.0,0.0,0.0,0.0,0.0,0.0,0.0,0.0,0.0,0.0,0.0,0.0,0.0,0.0,0.0,0.0,0.0,0.0,0.0,0.0,0.0,0.0,0.0,0.0,0.0,0.0,0.0,0.0,0.0,0.0,0.0,0.0,0.0,0.0,0.0,0.0,0.0,0.0,0.0,0.0,0.0,0.0,0.0,0.0,0.0,0.0,0.0,0.0,0.0,0.0,0.0,0.0,0.0,0.0,0.0,0.0,0.0,0.0,0.0,0.0,0.0,0.0,0.0,0.0,0.0,0.0,0.0,0.0,0.0,0.0,0.0,0.0,0.0,0.0,0.0,0.0,0.0,0.0,0.0,0.0,0.0,0.0,0.0,0.0,0.0,0.0,0.0,0.0,0.0,0.0,0.0,0.0,0.0,0.0,0.0,0.0,0.0,0.0,0.0,0.0,0.0,0.0,0.0,0.0,0.0,0.0,0.0,0.0,0.0,0.0,0.0,0.0,0.0,0.0,0.0,0.0,0.0,0.0,0.0,0.0,0.0,0.0,0.0,0.0,0.0,0.0,0.0,0.0,0.0,0.0,0.0,0.0,0.0,0.0,0.0,0.0,0.0,0.0,0.0,0.0,0.0,0.0,0.0,0.0,0.0,0.0,0.0,0.0,0.0,0.0,0.0,0.0,0.0,0.0,0.0,0.0,0.0,0.0,0.0,0.0,0.0,0.0,0.0,0.0,0.0,0.0,0.0,0.0,0.0,0.0,0.0,0.0,0.0,0.0,0.0,0.0,0.0,0.0,0.0,0.0,0.0,0.0,0.0,0.0,0.0,0.0,0.0,0.0,0.0,0.0,0.0,0.0,0.0,0.0,0.0,0.0,0.0,0.0,0.0,0.0,0.0,0.0,0.0,0.0,0.0,0.0,0.0,0.0,0.0,0.0,0.0,0.0,0.0,0.0,0.0,0.0,0.0,0.0,0.0,0.0,0.0,0.0,0.0,0.0,0.0,0.0,0.0,0.0,0.0,0.0,0.0,0.0,0.0,0.0,0.0,0.0,0.0,0.0,0.0,0.0,0.0,0.0,0.0,0.0,0.0,0.0,0.0,0.0,0.0,0.0,0.0,0.0,0.0,0.0,0.0,0.0,0.0,0.0,0.0,0.0,0.0,0.0,0.0,0.0,0.0,0.0,0.0,0.0,0.0,0.0,0.0,0.0,0.0,0.0,0.0,0.0,0.0,0.0,0.0,0.0,0.0,0.0,0.0,0.0,0.0,0.0,0.0,0.0,0.0,0.0,0.0,0.0,0.0,0.0,0.0,0.0,0.0,0.0,0.0,0.0,0.0,0.0,0.0,0.0,0.0,0.0,0.0,0.0,0.0,0.0,0.0,0.0,0.0,0.0,0.0,0.0,0.0,0.0,0.0,0.0,0.0,0.0,0.0,0.0,0.0,0.0,0.0,0.0,0.0,0.0,0.0,0.0,0.0,0.0,0.0,0.0,0.0,0.0,0.0,0.0,0.0,0.0,0.0,0.0,0.0,0.0,0.0,0.0,0.0,0.0,0.0,0.0,0.0,0.0,0.0,0.0,0.0,0.0,0.0,0.0,0.0,0.0,0.0,0.0,0.0,0.0,0.0,0.0,0.0,0.0,0.0,0.0,0.0,0.0,0.0,0.0,0.0,0.0,0.0,0.0,0.0,0.0,0.0,0.0,0.0,0.0,0.0,0.0,0.0,0.0,0.0,0.0,0.0,0.0,0.0,0.0,0.0,0.0,0.0,0.0,0.0,0.0,0.0,0.0,0.0,0.0,0.0,0.0,0.0,0.0,0.0,0.0,0.0,0.0,0.0,0.0,0.0,0.0,0.0,0.0,0.0,0.0,0.0,0.0,0.0,0.0,0.0,0.0,0.0,0.0,0.0,0.0,0.0,0.0,0.0,0.0,0.0,0.0,0.0,0.0,0.0,0.0,0.0,0.0,0.0,0.0,0.0,0.0,0.0,0.0,0.0,0.0,0.0,0.0,0.0,0.0,0.0,0.0,0.0,0.0,-4.0635,0.0,0.0,0.0,0.0,0.0,0.0,0.0,0.0,0.0,0.0,0.0,0.0,0.0,0.0,0.0,0.0,0.0,0.0,0.0,0.0,0.0,0.0,0.0,0.0,0.0,0.0,0.0,0.0,0.0,0.0,0.0,0.0,0.0,0.0,0.0,0.0,0.0,-2.642,-2.6817,-2.8701,-3.1831,-3.6028,-3.3694,-3.161,-2.9905,0.0,0.0,0.0,0.0,0.0,0.0,0.0,0.0,0.0,0.0,0.0,0.0,0.0,0.0,0.0,0.0,0.0,0.0,0.0,0.0,0.0,0.0,0.0,0.0,0.0,0.0,0.0,0.0,0.0,0.0,0.0,0.0,0.0,0.0,0.0,0.0,0.0,0.0,0.0,0.0,0.0,0.0,0.0,0.0,0.0,0.0,0.0,0.0,0.0,0.0,0.0,0.0,0.0,0.0,0.0,0.0,0.0,0.0,0.0,0.0,0.0,0.0,0.0,0.0,0.0,0.0,0.0,0.0,0.0,0.0,0.0,-4.1948,0.0,0.0,0.0,0.0,0.0,0.0,0.0,0.0,0.0,0.0,0.0,0.0,0.0,0.0,0.0,0.0,0.0,0.0,0.0,0.0,0.0,0.0,0.0,0.0,0.0,0.0,0.0,0.0,0.0,0.0,0.0,0.0,0.0,0.0,-2.5291,-2.6624,-2.7636,-2.8273,-3.2187,-3.5902,-3.932,-4.0167,-3.8522,-3.4754,-3.2757,0.0,0.0,0.0,0.0,0.0,0.0,0.0,0.0,0.0,0.0,0.0,0.0,0.0,0.0,0.0,0.0,0.0,0.0,0.0,0.0,0.0,0.0,0.0,0.0,0.0,0.0,0.0,0.0,0.0,0.0,0.0,0.0,0.0,0.0,0.0,0.0,0.0,0.0,0.0,0.0,0.0,0.0,0.0,0.0,0.0,0.0,0.0,0.0,0.0,0.0,0.0,0.0,0.0,0.0,0.0,0.0,0.0,0.0,0.0,0.0,0.0,0.0,0.0,-4.9553,-4.9364,-4.8826,-4.881,-4.8562,-4.8109,-4.7208,-4.7192,-4.7564,-4.5302,0.0,0.0,0.0,0.0,0.0,0.0,0.0,0.0,0.0,0.0,0.0,0.0,0.0,0.0,0.0,0.0,0.0,0.0,0.0,0.0,0.0,0.0,0.0,0.0,0.0,0.0,0.0,0.0,0.0,0.0,0.0,-2.6129,-2.7629,-2.8522,-3.0376,-3.325,-3.8101,-4.0515,-4.0572,-4.1853,-4.1789,-4.0539,-3.9342,-3.7675,-3.5712,0.0,0.0,0.0,0.0,0.0,0.0,0.0,0.0,0.0,0.0,0.0,0.0,0.0,0.0,0.0,0.0,0.0,0.0,0.0,0.0,0.0,0.0,0.0,0.0,0.0,0.0,0.0,0.0,0.0,0.0,0.0,0.0,0.0,0.0,0.0,0.0,0.0,0.0,0.0,0.0,0.0,-4.0513,-4.1429,0.0,0.0,0.0,0.0,0.0,0.0,0.0,0.0,0.0,0.0,0.0,0.0,0.0,-4.9618,-5.1108,-5.2005,-5.2894,-5.3772,-5.3784,-5.3768,-5.365,-5.305,-5.3026,-5.3415,-5.2021,0.0,-4.6989,-4.7902,0.0,0.0,0.0,0.0,0.0,0.0,0.0,0.0,0.0,0.0,0.0,0.0,0.0,0.0,0.0,0.0,0.0,0.0,0.0,0.0,0.0,0.0,0.0,0.0,0.0,0.0,0.0,0.0,0.0,0.0,-2.9115,-2.9904,-2.9911,-3.1381,-3.423,-3.8489,-4.1044,-4.3179,-4.4938,-4.6134,-4.6283,-4.5602,-4.6082,-4.3188,-3.7893,-3.8504,0.0,0.0,0.0,0.0,0.0,0.0,0.0,0.0,0.0,0.0,0.0,0.0,0.0,0.0,0.0,0.0,0.0,0.0,0.0,0.0,0.0,0.0,0.0,0.0,0.0,0.0,0.0,0.0,0.0,0.0,0.0,0.0,0.0,0.0,0.0,0.0,0.0,0.0,0.0,-4.0704,-4.3523,-4.4929,-4.5459,-4.5524,0.0,0.0,0.0,0.0,0.0,0.0,0.0,0.0,0.0,-5.2344,-5.1903,-5.238,-5.3995,-5.3916,-5.4073,-5.4497,-5.4943,-5.4954,-5.4591,-5.4268,-5.4063,-5.3883,-5.327,-5.2052,-5.0571,-5.0764,-5.0676,-5.0338,0.0,0.0,0.0,0.0,-4.7259,-4.6921,0.0,0.0,0.0,0.0,0.0,0.0,0.0,0.0,0.0,0.0,0.0,0.0,-2.8178,-2.9393,0.0,-3.2434,0.0,0.0,0.0,0.0,0.0,0.0,-3.2551,-3.331,-3.2379,-3.4905,-3.8077,-4.195,-4.2965,-4.493,-4.7807,-4.8615,-4.8716,-4.8232,-5.0059,-4.7316,-4.138,-4.2253,-4.1271,0.0,0.0,0.0,0.0,0.0,0.0,0.0,0.0,0.0,0.0,0.0,0.0,0.0,0.0,0.0,0.0,0.0,0.0,0.0,0.0,0.0,0.0,0.0,0.0,0.0,0.0,0.0,0.0,0.0,0.0,0.0,0.0,0.0,0.0,0.0,0.0,0.0,0.0,-4.3885,-4.652,-4.8321,-4.9148,-4.9497,0.0,0.0,0.0,0.0,0.0,0.0,-5.2013,-5.2784,-5.4032,-5.5831,-5.4546,-5.4509,-5.5868,-5.5317,-5.5133,-5.5317,-5.6124,-5.6264,-5.5777,-5.581,-5.5518,-5.4973,-5.4756,-5.4691,-5.46,-5.3386,-5.287,-5.2875,-5.2672,-5.2266,-5.1725,-5.1183,-5.0947,-5.1183,0.0,0.0,0.0,0.0,0.0,0.0,0.0,0.0,0.0,0.0,0.0,-2.8951,0.0,0.0,-3.3272,-3.4203,-3.4226,-3.3846,0.0,0.0,0.0,-3.3239,-3.4172,-3.4916,-3.5272,-3.9095,-4.1504,-4.2368,-4.4248,-4.5779,-4.6952,-4.7029,-4.7029,-4.7045,-4.9011,-4.936,-4.8416,-4.709,-4.6041,-4.4891,0.0,0.0,0.0,0.0,0.0,0.0,0.0,0.0,0.0,0.0,0.0,0.0,0.0,0.0,0.0,0.0,0.0,0.0,0.0,0.0,0.0,0.0,0.0,0.0,0.0,0.0,0.0,0.0,0.0,0.0,0.0,0.0,0.0,0.0,0.0,0.0,0.0,0.0,0.0,-5.1717,-5.3841,0.0,0.0,0.0,0.0,-5.2947,-5.2307,-5.2931,-5.5265,-5.3995,-5.4289,-5.6675,-5.5904,-5.5904,-5.6748,-5.6712,-5.7079,-5.7813,-5.8657,-5.9001,-5.899,-5.9019,-5.9059,-5.8979,-5.8289,-5.7942,-5.7783,-5.5467,-5.4482,-5.4397,-5.3721,-5.3416,-5.3382,-5.3348,-5.3348,-5.3551,0.0,0.0,0.0,-2.2313,-2.2313,-2.2448,-2.2936,-2.3613,-2.444,-2.5406,-2.8349,-3.0975,0.0,-3.5215,-3.7383,-3.8904,-3.9436,-3.9137,-3.7931,0.0,0.0,-3.6056,-3.7213,-3.8352,-3.9264,-4.1496,-4.3395,-4.4915,-4.5603,-4.6383,-4.7164,-4.8059,-4.8428,-4.8504,-5.0014,-5.0588,-5.0405,-5.0371,-4.9357,-4.7631,-4.5568,-4.2861,0.0,0.0,0.0,0.0,0.0,0.0,0.0,0.0,0.0,0.0,0.0,0.0,0.0,0.0,0.0,0.0,0.0,0.0,0.0,0.0,0.0,0.0,0.0,0.0,0.0,0.0,0.0,0.0,0.0,0.0,0.0,0.0,0.0,0.0,0.0,0.0,0.0,-5.1297,-5.3458,0.0,-5.5552,-5.5317,-5.528,-5.55,-5.5721,-5.6235,-5.7079,-5.6602,-5.6932,-5.8304,-5.7556,-5.7519,-5.834,-5.834,-5.8487,-5.8804,-5.9612,-5.9979,-5.9955,-5.9993,-6.0003,-6.0003,-5.9739,-5.96,-5.9558,-5.8702,-5.7429,-5.6089,-5.6297,-5.6065,-5.575,-5.6697,-5.7036,-5.7205,0.0,0.0,0.0,-2.2313,-2.2313,-2.2632,-2.3613,-2.4406,-2.5692,-2.7909,-3.0549,-3.3166,-3.5603,-3.7955,-3.9977,-4.1492,-4.2037,-4.1632,-4.0164,0.0,0.0,-3.7858,-3.9343,-4.1275,-4.3584,-4.3865,-4.4899,-4.6808,-4.702,-4.7262,-4.7486,-4.9328,-4.9995,-4.9769,-5.1257,-5.1629,-5.1095,-5.1965,-5.1319,-4.9661,-4.868,-4.6346,-4.3267,0.0,0.0,0.0,0.0,0.0,0.0,0.0,0.0,0.0,0.0,0.0,0.0,0.0,0.0,0.0,0.0,0.0,0.0,0.0,0.0,0.0,0.0,0.0,0.0,0.0,0.0,0.0,0.0,0.0,0.0,0.0,0.0,0.0,0.0,-4.9351,-5.1765,-5.2394,-5.4156,-5.5702,-5.6703,-5.6565,-5.6748,-5.7556,-5.8107,-5.8657,-5.9171,-5.8951,-5.9171,-5.9979,-5.9245,-5.9061,-5.9588,-5.9588,-5.9588,-5.9588,-6.0419,-6.0786,-6.0823,-6.108,-6.1227,-6.1227,-6.1227,-6.1211,-6.1234,-6.1234,-6.0152,-5.851,-5.8692,-5.8482,-5.8118,-5.9115,-5.9459,-5.9493,0.0,0.0,-2.2313,-2.2313,-2.2313,-2.2835,-2.4305,-2.5169,-2.6996,-3.0784,-3.3047,-3.5427,-3.8499,-3.9831,-4.0837,-4.163,-4.1546,-4.0876,-3.9589,-4.0127,0.0,0.0,-4.0434,-4.3577,-4.7898,-4.6272,-4.6183,-4.7818,-4.8459,-4.85,-4.7929,-5.0612,-5.1345,-5.048,-5.2524,-5.2435,-5.0872,-5.19,-5.1894,-5.1082,-4.9627,-4.8612,-4.7601,0.0,0.0,0.0,0.0,0.0,0.0,0.0,0.0,0.0,0.0,0.0,0.0,0.0,0.0,0.0,0.0,0.0,0.0,0.0,0.0,0.0,0.0,0.0,0.0,0.0,0.0,0.0,0.0,0.0,0.0,0.0,0.0,0.0,-4.8725,-5.0873,-5.3131,-5.5359,-5.6337,-5.7496,-5.9074,-5.8547,-5.8437,-5.9258,-5.9294,-5.9979,-6.152,-6.086,-6.0786,-6.1557,-6.086,-6.0456,-6.0493,-6.0493,-6.0493,-6.0493,-6.1263,-6.163,-6.1667,-6.2438,-6.278,-6.278,-6.278,-6.278,-6.278,-6.278,-6.2324,-6.1576,-6.0766,-6.0468,-6.0468,-6.0468,-6.0472,-6.0344,-2.2313,-2.2313,-2.2313,-2.2313,-2.2733,-2.3579,-2.5067,-2.5913,-2.7943,-3.2239,-3.4722,-3.6931,-3.9119,-4.1117,-4.2256,-4.2213,-4.2556,-4.2432,-4.1662,0.0,0.0,0.0,-4.3373,-4.4772,-4.534,-4.6446,-4.7271,-4.7818,-4.8459,-4.9081,-4.9723,-5.0685,-5.0955,-5.0707,-5.1497,-5.1561,-5.1161,-5.1964,-5.1894,-5.115,-5.0168,-4.9357,-4.8545,0.0,0.0,0.0,0.0,0.0,0.0,0.0,0.0,0.0,0.0,0.0,0.0,0.0,0.0,0.0,0.0,0.0,0.0,0.0,0.0,0.0,0.0,0.0,0.0,0.0,0.0,0.0,0.0,0.0,0.0,0.0,-5.0088,-5.0921,-5.1228,-5.1882,-5.3183,-5.5437,-5.6887,-5.8371,-5.9931,-6.0382,-6.0933,-6.1753,-6.1263,-6.1117,-6.1557,-6.086,-6.0786,-6.1557,-6.1374,-6.1557,-6.2144,-6.2144,-6.2144,-6.2144,-6.2365,-6.2475,-6.2475,-6.267,-6.278,-6.278,-6.278,-6.278,-6.278,-6.278,-6.2679,-6.2449,-6.2161,-6.1706,-6.1286,-6.1785,-6.1997,-6.1966,-2.2313,-2.2313,-2.2313,-2.2313,-2.2902,-2.3883,-2.5356,-2.6488,-2.9025,0.0,-3.5628,-3.741,-4.0672,-4.1828,-4.2361,-4.2406,-4.2701,-4.2641,-4.2021,0.0,0.0,0.0,-4.478,-4.5856,-4.7004,-4.7503,-4.7986,-4.8498,-4.955,-4.985,-4.9331,-5.1113,-5.1717,-5.1298,-5.1866,-5.1995,-5.1691,-5.2131,-5.1894,-5.115,-5.0405,-4.983,-4.939,-4.8646,-4.7665,-4.6583,-4.6278,-4.5602,-4.4722,-4.3978,0.0,0.0,0.0,0.0,0.0,0.0,0.0,0.0,0.0,0.0,0.0,0.0,0.0,0.0,0.0,0.0,0.0,0.0,0.0,0.0,0.0,0.0,0.0,0.0,-5.1826,-5.324,-5.4454,-5.4739,-5.5488,-5.7442,-5.8492,-5.9527,-6.0799,-6.1006,-6.1447,-6.2254,-6.1851,-6.1741,-6.2071,-6.1667,-6.163,-6.2108,-6.2108,-6.2328,-6.278,-6.278,-6.278,-6.278,-6.3172,-6.3356,-6.3356,-6.3686,-6.3844,-6.3844,-6.3844,-6.3844,-6.3844,-6.3844,-6.3844,0.0,0.0,0.0,0.0,0.0,-6.3508,-6.3199,-2.2313,-2.2313,-2.2313,-2.2313,-2.297,-2.3985,-2.5406,-2.6843,-2.9954,0.0,0.0,-3.7416,-4.2524,-4.2364,-4.2032,-4.244,-4.2694,-4.2546,0.0,0.0,0.0,-4.5639,-4.5222,-4.6645,-5.0424,-4.8796,-4.8364,-4.9384,-5.1055,-5.0681,-4.8349,-5.1872,-5.2973,-5.2101,-5.3076,-5.3112,-5.2435,-5.2435,-5.2029,-5.1285,-5.0608,-5.0304,-5.0135,-4.939,-4.8781,-4.8176,-4.7631,-4.7361,-4.7192,-4.6549,0.0,0.0,0.0,0.0,0.0,0.0,0.0,0.0,0.0,0.0,0.0,0.0,0.0,0.0,0.0,0.0,0.0,0.0,0.0,0.0,0.0,0.0,0.0,0.0,-5.2942,-5.4872,-5.7725,-5.8277,-5.8895,-6.0224,-6.0481,-6.0823,-6.152,-6.1043,-6.097,-6.1667,-6.1741,-6.2034,-6.2768,0.0,0.0,0.0,0.0,-6.2952,-6.2952,-6.3062,-6.3074,-6.3099,-6.387,-6.4237,-6.4237,-6.4971,-6.5301,-6.5301,-6.5301,-6.5301,-6.5301,-6.5301,-6.5375,-6.5375,-6.453,-6.4237,-6.431,-6.5044,-6.4794,-6.4158,-2.2313,-2.2313,-2.2313,-2.2313,-2.341,-2.4575,-2.5473,-2.6843,-2.9954,-3.6017,-3.6639,-3.8362,-4.3262,-4.4298,-4.4227,-4.3226,-4.4489,-4.5025,0.0,0.0,-4.3952,-4.6008,-4.5753,-4.6523,-4.8735,-4.8403,-4.8616,-4.9384,-5.1055,-5.1605,-5.1145,-5.2768,-5.3382,-5.3179,-5.3416,-5.3416,-5.3281,-5.3281,-5.2807,-5.2063,-5.1928,-5.1522,-5.0913,-5.0168,-5.0168,-5.0642,-5.1082,-5.0845,-5.0338,-5.0171,-4.9357,-4.8342,-4.8206,-4.7631,0.0,0.0,0.0,0.0,0.0,0.0,0.0,0.0,0.0,0.0,0.0,0.0,0.0,0.0,0.0,0.0,0.0,0.0,0.0,-5.4599,-5.5581,-5.6816,-5.8698,-5.9531,-6.0054,-6.035,-6.0978,-6.141,-6.1557,-6.2071,-6.2401,-6.2585,-6.2585,-6.2658,-6.278,-6.278,-6.278,-6.278,-6.3466,-6.3833,-6.3833,-6.4494,-6.4824,-6.4824,0.0,0.0,-6.5081,-6.5228,-6.5301,-6.5301,-6.5301,-6.5301,-6.5301,-6.5301,-6.5705,-6.6182,-6.5375,-6.5081,-6.5081,-6.5264,-6.516,-6.5055,-2.2313,-2.2313,-2.2313,-2.2313,-2.3511,-2.4609,-2.4966,-2.6607,-2.9548,-3.4438,-3.5046,-3.6777,-4.1387,-4.2263,-4.2525,-4.2504,-4.4394,0.0,0.0,-4.5366,-4.6052,-4.7353,-4.6898,-4.7626,-4.9679,-4.926,-4.9567,-5.0639,-5.2007,-5.2451,-5.1921,-5.3007,-5.3518,-5.3518,-5.3518,-5.3518,-5.3518,-5.3518,-5.3281,-5.2875,-5.2469,-5.2097,-5.1623,-5.0507,-5.0338,-5.0744,-5.1488,-5.1758,-5.1826,-5.2232,-5.186,-5.1251,-5.1251,-5.0744,-4.9695,0.0,0.0,0.0,0.0,0.0,0.0,0.0,0.0,0.0,0.0,0.0,0.0,0.0,0.0,-5.1555,-5.2706,0.0,-5.5378,-5.6156,-5.7564,-5.8839,-5.9682,-6.0481,-6.0999,-6.0986,-6.1725,-6.2218,-6.2218,-6.2585,-6.2989,-6.3429,-6.3466,-6.3649,-6.4053,-6.4053,-6.4053,-6.4053,-6.4457,-6.4714,-6.4714,-6.5118,-6.5301,-6.5301,-6.5705,-6.5888,-6.5925,-6.6329,-6.6512,-6.6512,-6.6512,-6.6512,-6.6512,-6.6953,-6.7577,-6.8274,-6.7871,-6.721,-6.6549,-6.6953,-6.71,-6.7173,-2.2313,-2.2313,-2.2313,-2.2313,-2.3511,-2.4508,-2.4508,-2.6251,-2.8939,-3.2679,-3.3084,-3.4693,-3.9111,-3.9794,-4.053,0.0,0.0,0.0,0.0,-4.6514,-4.7602,-4.863,-4.7432,-4.8098,-5.0914,-5.0023,-5.0232,-5.1691,-5.2906,-5.2939,-5.1921,-5.3007,-5.3518,-5.3518,-5.3518,-5.3518,-5.3518,-5.3518,-5.3518,-5.345,-5.2807,-5.2435,-5.2164,-5.0811,-5.0202,-5.0168,-5.0777,-5.1386,-5.2029,-5.2942,-5.3281,-5.3281,-5.345,-5.3078,-5.1995,-4.9154,-4.8748,0.0,0.0,0.0,0.0,0.0,0.0,0.0,0.0,-4.9864,-5.0304,-5.176,-5.2435,-5.3247,-5.4938,-5.6604,-5.7661,-5.7525,-5.922,-6.0581,-6.0626,-6.1171,-6.1734,-6.2033,-6.2511,-6.2879,-6.3062,-6.3062,-6.3429,-6.4273,-6.431,-6.4604,-6.5264,-6.5301,-6.5301,-6.5301,-6.5448,-6.5521,-6.5521,-6.5705,-6.5778,-6.5778,-6.6402,-6.6733,-6.6769,-6.7577,-6.7907,-6.7944,-6.8091,-6.8164,-6.8201,-6.8862,-6.9522,-7.011,-7.011,-6.9302,-6.8238,-6.8898,-6.9119,-6.9229,-2.2415,-2.2313,-2.2313,-2.2313,-2.3511,-2.4508,-2.4508,-2.5828,-2.818,-3.1921,-3.2414,-3.4041,-3.8351,-4.0113,-4.1883,-4.4096,-4.4821,0.0,-4.6562,-4.5677,-4.6272,-4.8837,-4.5634,-4.5803,-5.0139,-4.9108,-4.9329,-5.0897,-5.2671,-5.2939,-5.1921,-5.3007,-5.3518,-5.3518,-5.3518,-5.3518,-5.3518,-5.3518,-5.3518,-5.3484,-5.3416,-5.2942,-5.2198,-5.1386,-5.0676,-5.0101,-5.0168,-5.027,-5.0541,-5.1961,-5.2435,-5.257,-5.3281,-5.345,-5.2909,-5.0541,-4.9898,-4.9323,-4.6278,-4.6583,-4.7939,-4.8714,-4.9357,-5.0405,0.0,-5.301,-5.3416,-5.4905,-5.6765,-5.8017,-5.7577,-5.942,-6.0739,-6.0048,-6.0786,-6.1468,-6.1451,-6.1548,-6.2132,-6.3647,-6.3209,-6.3099,-6.387,-6.3943,-6.4273,-6.5118,-6.5191,-6.5228,-6.5301,-6.5301,-6.5301,-6.5301,-6.5999,-6.6366,-6.6366,-6.7063,-6.743,-6.743,-6.7504,-6.7577,-6.7577,-6.8385,-6.8788,-6.8825,-6.9522,-6.9816,-6.9816,-6.9926,-7.0,-7.011,-7.011,-7.0,-6.9816,-6.9926,-6.9963,-6.9963,-2.3661,-2.3579,-2.3579,-2.3579,-2.4101,-2.4643,-2.5067,-2.6015,-2.7588,-3.0059,-3.1142,-3.2656,-3.5342,-3.8176,-4.0493,-4.1847,-4.449,-4.6098,-4.6181,-4.7239,-4.82,-4.8956,-4.7473,-4.7701,-5.0035,-4.9625,-4.9925,-5.1028,-5.2202,-5.2573,-5.2132,-5.3078,-5.3518,-5.3518,-5.3518,-5.3518,-5.3518,-5.3518,-5.3247,-5.2807,-5.2807,-5.2334,-5.1589,-5.0845,-5.0371,-5.0101,-5.0101,-5.0101,0.0,0.0,-5.23,-5.2435,-5.3247,-5.3179,-5.2536,-5.115,-5.0439,-4.9932,-4.912,-4.9325,-5.0236,-5.186,-5.2469,-5.3078,-5.4465,-5.4803,-5.5209,-5.6697,-5.7712,-5.866,-5.9674,-6.0316,-6.0724,-6.0912,-6.127,-6.1559,-6.1564,-6.2458,-6.3304,-6.4028,-6.42,-6.442,-6.4751,-6.4787,-6.5118,-6.5925,-6.5999,-6.6219,-6.6659,-6.6696,-6.6696,-6.6696,-6.7026,-6.7173,-6.7173,-6.7504,-6.7944,-6.8385,-6.8385,-6.8641,-6.9119,-6.9449,-6.9596,-6.9633,-6.9963,-7.0367,-7.0807,-7.0807,-7.1064,-7.1505,-7.1505,-7.1505,-7.1431,-7.0991,-7.0807,-7.0881,-2.4541,-2.4508,-2.4541,-2.4778,-2.4812,-2.4966,-2.5541,-2.6218,-2.7165,-2.8502,-2.96,-3.1055,-3.3186,-3.64,-3.8836,-3.9995,-4.3436,-4.5602,-4.5703,-4.7656,-4.8868,-4.9018,-4.8513,-4.8716,-4.9763,-4.9744,-5.0114,-5.0913,-5.1657,-5.1995,-5.2029,-5.2604,-5.2875,-5.2875,-5.2875,-5.2875,-5.2875,-5.2875,-5.2536,-5.1995,-5.1995,-5.1691,-5.115,-5.0371,-4.9965,-4.9763,-4.956,-4.9492,0.0,0.0,-5.1386,-5.1555,-5.257,-5.2469,-5.186,-5.1116,-5.0371,-5.0033,-5.1217,-5.1691,-5.23,-5.4126,-5.4905,-5.5412,-5.6156,-5.6325,-5.6731,-5.8186,-5.866,-5.9336,-6.0994,-6.1189,-6.1197,-6.1675,-6.1982,-6.2183,-6.2295,-6.3304,-6.4237,-6.4714,-6.5264,-6.5742,-6.5925,-6.5778,-6.5962,-6.6769,-6.6843,-6.71,-6.765,-6.7687,-6.7797,-6.8017,-6.8017,-6.8128,-6.8348,-6.8348,-6.8641,-6.9229,-6.9229,-6.9522,-7.011,-7.033,-7.055,-7.077,-7.077,-7.1101,-7.1651,-7.1651,-7.1982,-7.2532,-7.2753,-7.2826,-7.2789,-7.2459,-7.2165,-7.2055,-2.4643,-2.4508,-2.4745,-2.5439,-2.5575,-2.5575,-2.5592,-2.6218,-2.6962,-2.7756,-2.7891,-2.9311,-3.3017,-3.5453,-3.7719,-3.9893,-4.1542,-4.3369,-4.5568,-4.5599,-4.657,-4.892,-4.7273,-4.7138,-4.8987,-4.8828,-4.9194,-5.0135,-5.0879,-5.1219,-5.1219,-5.1285,-5.1252,-5.1252,-5.1252,-5.1252,-5.1252,-5.1252,-5.1285,-5.1219,-5.1219,-5.1219,-5.115,-5.0371,-4.9661,-4.8951,-4.821,0.0,0.0,0.0,-4.912,-4.9357,-5.0811,-5.1219,-5.1116,-5.0338,-4.9593,-4.9526,-5.1691,-5.2841,-5.3619,-5.4397,-5.5683,-5.6934,-5.7645,-5.7814,-5.8254,-5.9742,-6.0655,-6.1231,-6.1298,-6.2538,-6.3344,-6.2687,-6.3255,-6.386,-6.3998,-6.409,-6.4677,-6.6219,-6.6439,-6.6769,-6.754,-6.6916,-6.6806,-6.7577,-6.765,-6.765,-6.7687,-6.7687,-6.8054,-6.8862,-6.8862,-6.9229,-7.0,-7.0036,-7.0036,-7.0073,-7.0073,-7.0073,-7.011,-7.0917,-7.1688,-7.2422,-7.2422,-7.2459,-7.2459,-7.2459,-7.2496,-7.2569,-7.334,-7.367,-7.3744,-7.4515,-7.4294,-7.3634,-2.6031,-2.5963,-2.6031,-2.6285,-2.6319,-2.6319,-2.6319,-2.6522,-2.6793,-2.7029,-2.7943,0.0,0.0,0.0,0.0,0.0,-3.9715,-4.1373,-4.2625,-4.4534,-4.6186,-4.7496,-4.7883,-4.8353,-4.9018,-4.894,-4.9041,-4.9357,-5.0101,-5.0473,-5.0473,-5.098,-5.1185,-5.1185,-5.1185,-5.1185,-5.1185,-5.1185,-5.0913,-5.0473,-5.0473,-4.9898,-4.9021,-4.9289,-4.8917,-4.824,0.0,0.0,0.0,0.0,-4.9323,-4.9898,-5.0913,-5.1185,-5.1151,-5.0913,-5.1725,-5.2773,-5.3044,-5.4025,-5.5141,-5.5886,-5.7171,-5.8321,-5.8592,-5.8998,-5.9641,-6.0689,-6.1596,-6.2314,-6.2793,-6.3415,-6.3915,-6.421,-6.3638,-6.3554,-6.472,-6.4897,-6.5301,-6.6366,-6.6953,-6.7393,-6.765,-6.7467,0.0,-6.8458,-6.8495,-6.8715,-6.9265,-6.9265,-6.9412,-6.9706,-6.9706,-6.9816,-7.011,-7.011,-7.0367,-7.0917,-7.1431,-7.1688,-7.1688,-7.1982,-7.2239,-7.2496,-7.2496,-7.2789,-7.3303,-7.3303,-7.3597,-7.4147,-7.4404,-7.4515,-7.4551,-7.4808,-7.5065,-7.5212,-2.6691,-2.6691,-2.6691,-2.6691,-2.6691,0.0,0.0,0.0,0.0,0.0,0.0,0.0,0.0,0.0,0.0,0.0,0.0,-3.958,-4.1102,-4.3031,-4.4654,-4.5969,-4.7158,-4.7834,-4.7834,-4.8071,-4.8206,-4.8206,-4.8951,-4.9323,-4.9323,-5.0067,-5.0439,-5.0439,-5.0439,-5.0439,-5.0439,-5.0439,-5.0135,-4.9661,-4.9424,-4.8748,-4.7906,-4.8139,-4.7936,0.0,0.0,0.0,0.0,0.0,-4.8917,-4.9492,-5.0507,-5.1014,-5.1386,-5.2198,-5.3281,-5.4262,-5.46,-5.5581,-5.6664,-5.7408,-5.849,-5.9471,-5.9776,-6.0653,-6.163,-6.2415,-6.3299,-6.4009,-6.4533,-6.4455,-6.4476,-6.4992,-6.4274,-6.4098,-6.5527,-6.5742,-6.6035,-6.6843,-6.7393,-6.7797,-6.8091,-6.8128,-6.8348,-6.8862,-6.9192,-6.9559,-7.0073,-7.011,-7.022,-7.0513,-7.055,-7.066,-7.0954,-7.0954,-7.1211,-7.1762,-7.2275,-7.2496,-7.2496,-7.2789,-7.2936,-7.2936,-7.323,-7.367,-7.4147,-7.4147,-7.4441,-7.4955,-7.5212,-7.5322,-7.5359,-7.5652,-7.6093,-7.6423,-2.6691,-2.6691,-2.6691,0.0,0.0,0.0,0.0,0.0,0.0,0.0,0.0,0.0,0.0,0.0,0.0,0.0,0.0,0.0,-4.0832,-4.1102,0.0,-4.4378,-4.5229,-4.5635,-4.5635,-4.638,-4.6718,-4.6718,-4.7496,-4.7838,-4.7838,-4.8578,-4.8883,-4.8883,-4.8883,-4.8883,-4.8883,-4.8883,-4.8883,-4.8849,-4.8139,-4.7804,-4.7703,-4.7056,0.0,0.0,0.0,0.0,-4.7838,-4.7838,-4.7906,-4.8277,-4.983,-5.0879,-5.1928,-5.4059,-5.4228,-5.4194,-5.6325,-5.7442,-5.8186,-5.893,-5.9708,-6.0486,-6.1231,-6.2641,-6.3962,-6.4693,-6.5549,-6.613,-6.6233,-6.5627,-6.5177,-6.5298,-6.5235,-6.5532,-6.6479,-6.6549,-6.6806,-6.765,-6.776,-6.8054,-6.8825,-6.8972,-6.9045,-6.9045,0.0,-7.0183,-7.022,-7.022,-7.0587,-7.1329,-7.1329,-7.1725,-7.2496,-7.2496,-7.2496,-7.2496,-7.2532,-7.2569,-7.2606,-7.3377,-7.3744,-7.378,-7.4588,-7.4918,-7.4955,-7.4955,-7.4992,-7.5102,-7.5873,-7.6166,-7.624,-7.7047,-7.731,-7.7237,0.0,0.0,0.0,0.0,0.0,0.0,0.0,0.0,0.0,0.0,0.0,0.0,0.0,0.0,0.0,0.0,0.0,0.0,-3.8599,-3.9783,0.0,0.0,0.0,0.0,0.0,0.0,0.0,0.0,-4.6718,-4.709,-4.709,-4.7259,-4.7361,-4.7361,-4.7361,-4.7361,-4.7361,-4.7361,-4.7361,-4.7327,0.0,-4.6752,-4.6312,0.0,0.0,0.0,0.0,0.0,-4.709,-4.709,-4.8173,-4.9999,-5.2604,-5.4329,-5.548,-5.6055,-5.6494,-5.7002,-5.8152,-5.8998,-5.9742,-6.052,-6.1704,-6.2685,-6.2888,-6.3255,-6.3649,-6.388,-6.4672,-6.5516,-6.6227,-6.6691,-6.719,-6.7825,-6.6939,-6.6628,-6.81,-6.7247,-6.7026,-6.8421,-6.8605,-6.8678,-6.8898,-7.0,-7.0697,0.0,-7.0881,-7.1284,-7.1872,-7.1908,-7.1982,-7.2202,-7.2202,-7.2312,-7.2496,-7.2496,-7.2496,-7.2496,-7.312,-7.3377,-7.3413,-7.4221,-7.4588,-7.4625,-7.4808,-7.5249,-7.5799,-7.5799,-7.6166,-7.6686,-7.6907,-7.698,-7.7047,-7.72,-7.7708,-7.8259,0.0,0.0,0.0,0.0,0.0,0.0,0.0,0.0,0.0,0.0,0.0,0.0,0.0,0.0,0.0,0.0,0.0,0.0,0.0,-3.7662,0.0,0.0,0.0,0.0,0.0,0.0,0.0,0.0,0.0,0.0,0.0,-4.5838,-4.6312,-4.6312,-4.665,-4.6786,-4.6786,-4.6786,0.0,0.0,0.0,0.0,0.0,0.0,0.0,0.0,0.0,-4.6244,-4.6989,-4.8274,-4.9763,-5.1522,-5.4228,-5.5649,-5.6528,-5.7476,-5.7814,-5.8186,-5.9641,-6.0554,-6.1298,-6.2076,-6.3125,-6.3802,-6.3159,-6.3863,-6.447,-6.382,-6.5035,-6.6427,-6.7306,-6.7883,-6.8385,-6.8825,-6.8164,-6.7871,-6.8788,-6.8128,-6.7907,-6.8788,-6.9229,-6.9449,-6.9449,-7.0587,-7.1439,-7.1798,-7.1835,-7.2018,-7.2496,-7.2496,-7.2496,-7.2496,-7.2496,-7.2496,-7.2496,-7.2863,-7.3046,-7.3046,-7.3854,-7.4221,-7.4258,-7.5065,-7.5432,-7.5469,0.0,-7.624,-7.6644,-7.6644,-7.69,-7.7347,-7.7745,-7.7892,-7.7928,-7.8259,-7.8699,-7.914,0.0,0.0,0.0,0.0,0.0,0.0,0.0,0.0,0.0,-3.0025,-2.9517,-2.945,-3.0176,-3.0818,0.0,0.0,0.0,0.0,0.0,0.0,-3.6434,0.0,0.0,0.0,0.0,0.0,0.0,0.0,0.0,0.0,0.0,0.0,0.0,0.0,0.0,0.0,0.0,0.0,0.0,0.0,0.0,0.0,0.0,0.0,0.0,0.0,-4.4276,-4.5258,-4.6955,-5.0033,-5.1623,-5.2739,-5.5209,-5.6089,-5.6493,-5.8457,-5.8626,-5.866,-6.0858,-6.1975,-6.2753,-6.3599,-6.4464,-6.4646,-6.3051,-6.4377,-6.5511,-6.3974,-6.5448,-6.7311,-6.8192,-6.845,-6.8641,-6.8862,-6.8825,-6.8825,-6.9045,-6.8972,-6.8935,-6.9045,-6.9779,-7.0257,-7.0257,-7.0991,-7.1762,-7.2459,-7.2496,-7.2496,-7.2496,-7.2496,-7.2569,-7.2679,-7.2679,-7.2716,-7.2826,-7.3523,-7.3854,-7.3854,-7.4661,-7.5065,-7.5102,-7.5909,-7.6276,-7.6313,-7.7011,-7.7273,-7.731,-7.742,-7.7457,-7.753,-7.8405,-7.8772,-7.8846,-7.9543,-7.9874,-7.9947,0.0,0.0,0.0,0.0,0.0,0.0,0.0,0.0,0.0,0.0,-3.2205,-3.0209,0.0,0.0,0.0,0.0,0.0,0.0,0.0,0.0,0.0,0.0,0.0,0.0,0.0,0.0,0.0,0.0,0.0,0.0,0.0,0.0,0.0,0.0,0.0,0.0,0.0,0.0,0.0,0.0,0.0,0.0,0.0,0.0,0.0,0.0,-4.2489,-4.3673,-4.5529,-4.9086,-5.1217,-5.2976,-5.6427,-5.7949,-5.8524,-5.8896,-5.9336,-6.008,-6.1738,-6.2753,-6.3632,-6.4986,-6.6456,-6.698,-6.4728,-6.465,-6.4673,-6.3106,-6.3224,-6.407,-6.5597,-6.647,-6.7357,-6.8678,-6.8348,-6.8348,-6.9706,-6.9339,-6.9155,-6.9816,-7.0624,-7.1101,-7.1101,-7.1835,-7.2349,-7.2496,-7.2496,-7.2496,-7.2496,-7.2496,-7.2789,-7.345,-7.3487,-7.3817,-7.4478,-7.4625,-7.4698,-7.4698,-7.5506,-7.5909,-7.5909,-7.6717,-7.709,-7.709,-7.7237,0.0,-7.7347,-7.8075,-7.8369,-7.8479,-7.925,-7.958,-7.958,-7.9727,-8.0204,-8.0791,0.0,0.0,0.0,0.0,0.0,0.0,0.0,-3.5238,-3.6389,-3.8285,-3.6637,-3.5013,-3.4223,-3.3051,-3.2341,0.0,0.0,0.0,0.0,0.0,0.0,0.0,0.0,0.0,0.0,0.0,0.0,0.0,0.0,0.0,0.0,0.0,0.0,0.0,0.0,0.0,0.0,0.0,0.0,0.0,0.0,0.0,0.0,0.0,0.0,0.0,0.0,-4.2692,-4.4384,-4.6955,-4.9323,-5.1961,-5.6461,-5.8423,-5.9032,-5.9032,-5.9844,-6.096,-6.2076,-6.2956,-6.3768,-6.485,-6.6063,-6.6277,-6.3503,-6.3658,-6.3754,-6.1823,-6.1796,-6.2646,-6.4257,-6.5294,-6.6256,-6.7467,-6.7687,-6.8091,-6.9302,-6.9486,-6.9669,-7.0036,-7.1174,-7.1762,-7.1329,-7.2055,-7.2496,-7.2496,-7.2496,-7.2496,-7.2496,-7.2899,-7.3487,-7.4294,-7.4331,-7.4515,-7.4918,-7.5322,-7.5542,-7.5542,-7.635,-7.6717,-7.6754,-7.7127,-7.7273,-7.731,-7.7781,-7.8002,-7.8038,-7.8883,-7.9213,-7.9286,-8.0094,-8.0424,-8.0461,-8.0865,-8.1269,-8.1636,0.0,0.0,0.0,0.0,0.0,0.0,0.0,-3.7438,-3.8623,-4.0993,-4.117,-4.0358,-3.8396,-3.5757,-3.3761,0.0,0.0,0.0,0.0,0.0,0.0,0.0,0.0,0.0,0.0,0.0,0.0,-3.9005,0.0,0.0,0.0,0.0,0.0,0.0,0.0,0.0,0.0,0.0,0.0,0.0,0.0,0.0,0.0,0.0,0.0,0.0,0.0,-4.1813,-4.3172,-4.4891,-4.7192,-5.0168,-5.4769,-5.7408,-5.8795,-5.8964,-6.0114,-6.1501,-6.2381,-6.3182,-6.3951,-6.4699,-6.5842,-6.5861,-6.2368,-6.2746,-6.3069,-6.0373,-6.0196,-6.1062,-6.2612,-6.3773,-6.4897,-6.6035,-6.6916,-6.776,-6.8752,-6.9596,-7.011,-7.011,-7.1505,-7.2275,-7.1651,-7.2129,-7.2496,-7.2496,-7.2679,-7.2753,-7.2753,-7.3523,-7.4331,-7.5139,-7.5175,-7.5249,-7.5432,-7.6056,-7.635,-7.635,-7.7011,-7.7273,-7.731,-7.7494,-7.7567,-7.7635,-7.8479,-7.8846,0.0,-7.9727,-8.0057,-8.0131,-8.0938,-8.1269,-8.1342,-8.1966,-8.2186,-8.2186,0.0,0.0,0.0,0.0,0.0,0.0,0.0,-3.9512,-4.1847,-4.479,-4.4587,-4.3809,-4.2895,-3.9005,-3.5915,0.0,0.0,0.0,0.0,0.0,0.0,0.0,0.0,0.0,0.0,0.0,0.0,-3.9005,-3.8396,0.0,0.0,0.0,0.0,0.0,0.0,-3.8937,0.0,0.0,0.0,0.0,0.0,0.0,0.0,0.0,0.0,0.0,0.0,-4.0696,-4.1745,-4.3944,-4.5799,-4.753,-5.0033,-5.4093,-5.8118,-5.8795,-6.0114,-6.1603,-6.3024,-6.4029,-6.485,-6.561,-6.7658,-6.8287,-6.3562,-6.3271,-6.2891,-5.9006,-5.769,-5.7732,-5.9323,-6.0885,-6.2695,-6.5044,-6.6109,-6.7136,-6.8678,-6.9596,-7.011,-7.011,-7.1505,-7.2459,-7.2422,-7.2459,-7.2496,-7.2496,-7.3193,-7.3597,-7.3597,-7.4368,-7.5175,-7.5946,-7.5983,-7.635,-7.7053,-7.7127,-7.7163,-7.7163,-7.7237,-7.7273,-7.731,-7.8112,-7.8479,-7.8516,-7.9323,-7.969,0.0,-8.0571,-8.0901,-8.0975,-8.1782,-8.2076,-8.2113,-8.215,-8.2186,-8.2186,0.0,0.0,0.0,0.0,0.0,0.0,-3.8608,-3.9614,-4.1441,-4.5771,-4.5703,-4.5128,-4.4823,-4.2388,-3.9276,-3.5487,0.0,0.0,0.0,0.0,0.0,0.0,0.0,0.0,0.0,0.0,-3.7584,-3.8328,-3.8058,0.0,0.0,0.0,0.0,0.0,0.0,-3.8159,-3.7889,0.0,0.0,0.0,0.0,0.0,0.0,0.0,0.0,0.0,0.0,0.0,-4.073,-4.2083,-4.3842,-4.5771,-4.7564,-5.0744,-5.4194,-5.5852,-5.91,-6.2174,-6.2275,-6.3933,-6.5689,-6.604,-6.6566,-6.6121,-6.2681,-6.1879,-6.0978,-5.789,-5.6653,-5.6426,-5.7524,-5.9098,-6.0823,-6.2768,-6.4604,-6.6512,-6.8605,-6.9596,-7.0293,-7.077,-7.1835,-7.2496,-7.2496,-7.2496,-7.2716,-7.3193,-7.4404,-7.5139,-7.5139,-7.5469,-7.5983,-7.6827,-7.6827,-7.698,-7.7273,-7.7273,-7.7273,-7.731,-7.7855,-7.8075,-7.8112,-7.8919,-7.9323,-7.936,-8.0167,-8.0534,0.0,-8.1379,-8.1709,-8.1746,-8.2076,-8.2186,-8.2186,-8.2186,-8.2186,-8.2186,0.0,0.0,0.0,0.0,0.0,-3.5081,-3.9174,-3.9715,-4.1136,-4.5263,-4.5737,-4.5703,-4.5703,-4.3944,-4.1245,-3.756,-3.5757,0.0,0.0,0.0,0.0,0.0,0.0,0.0,0.0,0.0,-3.6907,-3.7922,-3.7922,-3.7922,0.0,0.0,-3.8328,-3.7922,0.0,0.0,0.0,0.0,0.0,0.0,0.0,0.0,0.0,0.0,0.0,0.0,0.0,0.0,0.0,0.0,0.0,-4.3842,-4.5331,-4.753,-5.0236,-5.3619,-5.7947,-6.1675,-6.1814,-6.4176,-6.667,-6.6919,-6.6233,-6.4807,-6.2132,-6.0562,-5.8951,-5.6271,-5.528,-5.5133,-5.5941,-5.7409,-5.9171,0.0,0.0,-6.5778,-6.8201,-6.9449,-7.0403,-7.1183,-7.2422,-7.312,-7.2899,-7.2863,-7.3193,-7.4001,-7.5322,-7.6203,-7.646,-7.646,-7.6717,-7.7273,-7.7273,-7.7273,-7.7273,-7.7273,-7.742,-7.7708,-7.8295,-7.8699,-7.8993,-7.98,-8.0131,-8.0204,-8.1012,-8.1342,0.0,-8.1966,-8.2186,-8.2186,-8.2186,-8.2186,-8.2186,-8.2186,-8.2186,-8.2186,0.0,0.0,0.0,0.0,0.0,0.0,-3.8531,-4.0257,-4.1745,-4.324,-4.4756,-4.5703,-4.5703,-4.3031,-4.1204,-4.117,-3.7729,0.0,0.0,0.0,0.0,0.0,0.0,0.0,0.0,0.0,-3.6343,-3.7922,-3.7922,-3.7922,-3.7922,-3.9386,-3.9285,-3.7922,0.0,0.0,0.0,0.0,0.0,0.0,0.0,0.0,0.0,0.0,0.0,0.0,0.0,0.0,0.0,0.0,0.0,0.0,0.0,-4.4519,-4.6921,-5.2841,-5.6816,-5.9732,-6.2057,-6.5065,-6.777,-6.8564,-6.7607,-6.5632,-6.2365,-5.9758,-5.7116,-5.3922,-5.3203,-5.3482,-5.4289,-5.5757,-5.7886,-6.108,0.0,0.0,-6.7357,-6.9082,-7.0403,-7.1183,-7.345,-7.4551,-7.3744,-7.367,-7.4001,-7.4845,-7.5652,0.0,-7.7237,-7.7273,-7.7273,-7.7273,-7.7273,-7.7273,-7.7273,-7.7273,-7.7745,-7.8589,-7.8589,-7.9029,-7.98,-8.0608,-8.1012,-8.1048,-8.1819,0.0,0.0,-8.2186,-8.2186,-8.2186,-8.2186,-8.2186,-8.2186,-8.2186,-8.2186,-8.2186,0.0,0.0,0.0,0.0,0.0,0.0,0.0,-3.7415,-3.8439,-4.1508,-4.1854,-4.2861,-4.5432,-4.2997,-4.1204,-4.1204,-3.8261,0.0,0.0,0.0,0.0,0.0,0.0,0.0,0.0,-3.64,-3.7144,-3.8633,-3.8633,-3.8903,-3.9377,-3.9377,-3.9377,-3.9352,-3.8338,-3.8058,0.0,0.0,0.0,0.0,0.0,0.0,0.0,0.0,0.0,0.0,0.0,0.0,0.0,0.0,0.0,0.0,0.0,0.0,0.0,-5.0305,-5.443,-5.8028,-5.9276,-6.237,-6.525,-6.5505,-6.3507,-6.108,-5.9501,-5.7262,-5.495,-5.2821,-5.2821,-5.3277,-5.3555,-5.5794,-5.8327,-6.0456,-6.3099,0.0,-6.8164,-6.9412,-7.0403,-7.1183,-7.2459,-7.3597,-7.4441,0.0,-7.4845,-7.5652,-7.6497,-7.7017,-7.7273,-7.7273,-7.7273,-7.7273,-7.7273,-7.7567,-7.8185,-7.8185,-7.8589,-7.9433,-7.9984,-8.0388,-8.0645,-8.1452,-8.1819,0.0,0.0,0.0,0.0,-8.2186,-8.2186,-8.2186,-8.2186,-8.2186,-8.2186,-8.2186,-8.2186,-8.2186,0.0,0.0,0.0,0.0,0.0,0.0,0.0,-3.6197,-3.6907,-3.9242,-3.9614,-4.0899,-4.4079,-4.2016,-4.0595,-4.117,-3.8497,0.0,0.0,0.0,0.0,0.0,0.0,0.0,-3.7178,-3.7777,-3.8623,-3.9817,-4.0392,-4.0899,-4.1339,-4.1196,-4.1035,-4.0899,-3.9681,-3.9242,0.0,0.0,0.0,0.0,0.0,0.0,-3.6931,0.0,0.0,0.0,0.0,0.0,0.0,0.0,0.0,0.0,0.0,0.0,0.0,0.0,-5.2006,-5.5276,-5.7545,-6.0402,-6.2842,-6.3466,-6.0933,-5.8157,-5.7666,-5.5464,-5.3298,-5.2601,-5.3335,-5.4216,-5.4509,-5.6712,-5.9208,-6.1447,-6.3503,-6.5888,-6.8935,-6.9779,-7.0734,-7.2459,-7.2826,-7.3597,0.0,-7.5102,-7.5249,-7.6056,-7.6864,-7.7273,-7.7273,-7.7604,-7.7818,-7.7818,-7.7818,-7.8075,-7.8589,-7.8883,-7.947,-8.0241,-8.0755,-8.1158,-8.1489,-8.1966,-8.2186,0.0,0.0,0.0,0.0,-8.2186,-8.2186,-8.2186,-8.2186,-8.2186,-8.2186,-8.2186,-8.2186,-8.2186,0.0,0.0,0.0,0.0,0.0,0.0,0.0,-3.6231,-3.6761,-3.6795,-3.8014,-3.9648,-4.1813,-4.0121,-3.9411,-4.0832,0.0,0.0,0.0,0.0,0.0,0.0,0.0,0.0,-3.8125,-3.9411,-4.0519,-4.1417,-4.2807,-4.3579,-4.3736,-4.4476,-4.4041,-4.2596,-4.179,-4.0917,-3.9977,0.0,0.0,0.0,0.0,-3.6931,0.0,0.0,0.0,0.0,0.0,0.0,0.0,0.0,0.0,0.0,0.0,0.0,0.0,0.0,0.0,0.0,0.0,-5.8846,-6.0419,-6.1998,-5.9501,-5.6638,-5.6712,-5.4363,0.0,-5.3151,-5.4509,-5.5794,-5.6492,-5.812,-6.0382,-6.3429,-6.4163,-6.5705,-6.9559,-7.0183,-7.1431,-7.4551,-7.4258,-7.4404,-7.6019,-7.5469,-7.5322,-7.613,-7.69,-7.731,-7.7384,-7.8148,-7.8626,-7.8662,-7.8736,-7.8772,-7.8772,-7.9507,-8.0277,-8.1085,-8.1085,-8.1489,-8.2186,-8.2186,-8.2186,0.0,0.0,0.0,0.0,-8.2186,-8.2186,-8.2186,-8.2186,-8.2186,-8.2186,-8.2186,-8.2186,-8.2186,0.0,0.0,0.0,0.0,0.0,0.0,0.0,0.0,0.0,0.0,-3.71,-3.7946,-3.958,-3.8319,-3.7686,0.0,0.0,0.0,0.0,0.0,0.0,0.0,0.0,0.0,-4.0392,-4.0223,-4.1282,-4.363,-4.406,-4.5066,-4.6695,-4.6931,-4.6574,-4.5614,-4.4293,-4.2371,-4.0079,-3.9546,0.0,0.0,-3.7652,-3.799,0.0,0.0,0.0,0.0,-4.0045,-4.0113,0.0,0.0,0.0,0.0,0.0,0.0,0.0,0.0,-4.8371,-4.9725,-5.2645,0.0,-5.6969,-5.796,-5.6565,-5.5133,0.0,-5.4803,0.0,0.0,0.0,0.0,0.0,-5.829,-6.13,-6.2071,-6.4787,-6.7614,-6.9779,-7.1174,-7.2679,-7.4661,-7.4735,-7.5249,-7.6864,-7.6313,-7.6166,-7.6943,-7.7163,-7.7567,-7.8259,-7.8479,-7.8883,-7.9507,-8.0131,-8.0461,-8.0461,-8.0608,-8.1122,-8.1929,-8.1929,-8.2003,-8.2186,-8.2186,-8.2186,0.0,0.0,0.0,-8.2186,-8.2186,-8.2186,-8.2186,-8.2186,-8.2186,-8.2186,-8.2186,-8.2186,-8.2186,0.0,0.0,0.0,0.0,0.0,0.0,0.0,0.0,0.0,0.0,0.0,-3.71,-3.7912,-3.7269,0.0,0.0,0.0,0.0,0.0,0.0,0.0,0.0,0.0,-4.0994,-4.2158,-4.2733,-4.3944,-4.5919,-4.6295,-4.7442,-4.9284,-4.899,-4.8402,-4.7627,-4.5723,-4.379,-4.1853,-4.091,-3.984,-3.8732,-3.8516,0.0,0.0,0.0,0.0,0.0,-4.0113,-4.0113,0.0,-4.1561,-4.1595,-4.1409,0.0,0.0,0.0,0.0,-4.7813,-4.893,-5.1344,-5.2674,-5.3665,-5.4876,-5.4216,-5.3592,-5.4766,0.0,0.0,0.0,0.0,0.0,0.0,-6.108,-6.3833,-6.3833,-6.6329,-6.8825,-7.044,-7.2055,-7.323,-7.3744,-7.4478,-7.5249,0.0,-7.613,-7.6423,-7.7237,-7.7671,-7.8112,-7.8552,-7.9286,-7.991,-8.0351,-8.1122,-8.1379,-8.1012,-8.1379,-8.1782,-8.2186,-8.2186,-8.2186,-8.2186,-8.2186,-8.2186,0.0,0.0,0.0,-8.2186,-8.2186,-8.2186,-8.2186,-8.2186,-8.2186,-8.2186,-8.2186,-8.2443,-8.2737,0.0,0.0,0.0,0.0,0.0,0.0,0.0,0.0,0.0,0.0,0.0,0.0,0.0,0.0,0.0,0.0,0.0,0.0,0.0,0.0,0.0,0.0,-4.1829,-4.2973,-4.3948,-4.5587,-4.6885,-4.7844,-4.8839,-5.0015,-5.1315,-5.1005,-5.0207,-4.8923,-4.6672,-4.509,-4.3996,-4.2114,-4.0816,-3.9939,-3.9374,0.0,0.0,0.0,0.0,0.0,0.0,0.0,0.0,-4.2421,-4.2671,-4.2427,-4.4202,0.0,0.0,0.0,0.0,0.0,-5.1316,-5.1756,-5.1903,-5.3408,-5.3041,-5.2858,-5.473,0.0,0.0,0.0,0.0,0.0,0.0,-6.4383,-6.6476,-6.6329,-6.7871,-6.9596,-7.1073,-7.2679,-7.3487,-7.2936,-7.4184,0.0,-7.5249,-7.5873,-7.657,-7.7237,-7.8112,-7.8662,-7.8772,-8.0204,-8.1048,-8.1195,-8.1819,-8.1856,-8.1195,-8.1856,-8.2186,-8.2186,-8.2186,-8.2186,-8.2186,-8.2186,-8.2186,-8.2186,0.0,0.0,-8.2186,-8.2186,-8.2186,-8.2186,-8.2186,-8.226,-8.237,-8.237,-8.2884,-8.3618,0.0,0.0,0.0,0.0,0.0,0.0,0.0,0.0,0.0,0.0,0.0,0.0,0.0,0.0,0.0,0.0,0.0,0.0,0.0,0.0,0.0,-4.3416,-4.3684,-4.4811,-4.6954,-4.6661,-4.7143,-4.8465,-5.0659,-5.1801,-5.1907,-5.3829,-5.2926,-4.9581,-4.8033,-4.6118,-4.4067,-4.3277,-4.2111,-4.0701,-4.0124,0.0,0.0,0.0,0.0,0.0,0.0,0.0,0.0,-4.1767,-4.1964,-4.2087,-4.3341,0.0,0.0,0.0,0.0,0.0,-5.1316,-5.3408,-5.5097,-5.6014,-5.5133,-5.4803,0.0,0.0,0.0,0.0,0.0,0.0,0.0,-6.4751,-6.6292,-6.5595,-6.7981,-7.0257,-7.1146,-7.2679,-7.3891,-7.4478,0.0,-7.6203,-7.687,-7.7017,-7.7163,-7.7273,-7.8112,-7.8883,-7.958,-8.0498,-8.1305,-8.2003,-8.215,-8.215,-8.2003,-8.215,-8.2186,-8.2186,-8.2186,-8.2186,-8.2186,-8.2186,-8.2186,-8.2186,0.0,-8.2186,-8.2186,-8.2186,-8.2186,-8.2186,-8.2186,-8.2627,-8.3214,-8.3214,-8.3728,-8.4499,0.0,0.0,0.0,0.0,0.0,0.0,0.0,0.0,0.0,0.0,0.0,0.0,0.0,0.0,0.0,0.0,0.0,0.0,0.0,0.0,-4.3319,-4.5621,-4.5714,-4.647,-4.8158,-4.9037,-5.0431,-5.2382,-5.3936,-5.535,-5.6528,-5.5868,-5.3961,-5.0924,-4.9409,-4.7615,-4.5637,-4.47,-4.3336,-4.1832,0.0,0.0,0.0,0.0,0.0,0.0,0.0,0.0,0.0,0.0,-4.2931,-4.3647,-4.4017,0.0,0.0,0.0,0.0,0.0,-5.1756,-5.3151,-5.4583,-5.8437,-5.8841,-5.8804,0.0,0.0,0.0,0.0,0.0,0.0,0.0,-6.5852,-6.8091,-6.9045,-7.0073,-7.1027,-7.1835,-7.2973,-7.3817,0.0,0.0,-7.624,-7.6644,-7.7017,-7.7494,-7.7965,-7.8772,0.0,-8.0388,-8.1195,-8.1819,-8.2186,-8.2186,-8.2186,-8.2186,-8.2186,-8.2186,-8.2186,-8.2186,-8.2186,-8.2186,-8.2186,-8.2186,-8.2186,0.0,-8.2186,-8.2186,-8.2186,-8.2443,-8.2847,-8.2847,-8.3361,-8.4095,-8.4535,-8.5196,-8.6004,0.0,0.0,0.0,0.0,0.0,0.0,0.0,0.0,0.0,0.0,0.0,0.0,0.0,0.0,0.0,0.0,0.0,0.0,0.0,-4.2901,-4.3997,-4.6434,-4.7076,-4.8111,-4.9626,-5.1548,-5.3628,-5.5868,-5.7079,-5.84,-5.9795,-5.6932,-5.4311,-5.194,-5.0528,-4.893,-4.7277,-4.5754,-4.4285,-4.2907,0.0,0.0,0.0,0.0,0.0,0.0,0.0,0.0,0.0,0.0,0.0,0.0,0.0,0.0,0.0,-4.6819,-4.7626,-4.9021,-5.2527,-5.3849,-5.5537,-6.086,0.0,0.0,0.0,0.0,0.0,0.0,0.0,0.0,0.0,-6.765,-6.9853,-7.1908,-7.1541,-7.1394,-7.2349,-7.3193,-7.378,-7.3964,-7.5249,-7.6166,-7.635,-7.7121,-7.7892,-7.8552,0.0,0.0,-8.0975,-8.1746,-8.2186,-8.2186,-8.2186,-8.2186,-8.2186,-8.2186,-8.2186,-8.2186,-8.2186,-8.2186,-8.2186,-8.2186,-8.2186,-8.2186,-8.2186,-8.2186,-8.2223,-8.2406,-8.2847,-8.3434,-8.3618,-8.4168,-8.4976,-8.5783,-8.6481,-8.7142,0.0,0.0,0.0,0.0,0.0,0.0,0.0,0.0,0.0,0.0,0.0,0.0,0.0,0.0,0.0,0.0,0.0,0.0,0.0,-4.3463,-4.3866,-4.4838,-4.7021,-4.9681,-5.2794,-5.3754,-5.506,-5.6712,-5.9024,-5.9465,-5.8143,-5.6381,-5.4311,-5.194,-5.1096,-4.9774,-4.8084,-4.6009,-4.4594,-4.3684,-4.2326,0.0,0.0,0.0,0.0,0.0,0.0,0.0,0.0,0.0,0.0,0.0,0.0,0.0,-4.5095,-4.6636,-4.926,-5.205,-5.3812,-5.7519,-6.1374,-6.3392,-6.163,0.0,-6.5191,-6.5742,0.0,-6.7063,0.0,0.0,0.0,-7.0367,-7.0293,-7.1248,-7.0697,-7.0734,-7.2275,0.0,-7.3964,-7.4735,-7.5579,-7.6387,-7.7127,-7.8002,-7.8516,0.0,0.0,0.0,-8.1012,-8.1746,-8.2186,-8.2186,-8.2186,-8.2186,-8.2186,-8.2186,-8.2186,-8.2186,-8.2186,-8.2186,-8.2186,-8.2186,-8.2186,-8.2186,-8.2186,-8.2186,-8.226,-8.303,-8.3361,-8.3471,-8.4242,-8.5013,-8.582,-8.6628,-8.6958,-8.7142,0.0,0.0,0.0,0.0,0.0,0.0,0.0,0.0,0.0,0.0,0.0,0.0,0.0,0.0,0.0,0.0,0.0,0.0,0.0,-4.3515,-4.4305,-4.6122,-4.7553,-4.9848,-5.3151,-5.4473,-5.6418,-5.9061,-6.097,-6.0823,-5.8731,-5.7116,-5.506,-5.2711,-5.1903,-5.0618,-4.9003,-4.7124,-4.5878,-4.502,-4.3467,-4.2946,0.0,0.0,0.0,0.0,0.0,0.0,0.0,0.0,-4.3978,-4.4856,-4.4158,-4.5002,-4.6415,-4.7516,-4.9811,-5.2674,-5.5794,-5.9428,-6.2989,-6.5668,0.0,0.0,0.0,-6.8495,-6.8311,-6.8421,-6.8201,0.0,0.0,-7.1798,-7.2018,-7.334,-7.2863,-7.2532,-7.3156,-7.3487,-7.4184,-7.5506,-7.5909,-7.6423,-7.72,-7.8112,0.0,0.0,0.0,0.0,-8.1709,-8.2039,-8.2186,-8.2186,-8.2186,-8.2186,-8.2186,-8.2186,-8.2186,-8.2186,-8.2186,-8.2186,-8.2186,-8.2186,-8.2186,-8.2223,-8.2737,-8.2957,-8.303,-8.3801,-8.4462,-8.4976,-8.5783,-8.6297,-8.6591,-8.6885,-8.7325,-8.7729,0.0,0.0,0.0,0.0,0.0,0.0,0.0,0.0,0.0,0.0,0.0,0.0,0.0,0.0,0.0,0.0,0.0,0.0,-4.3515,-4.3718,-4.4745,-4.6636,-4.7976,-4.9848,-5.2417,-5.4252,-5.6785,-6.0015,-6.1374,-6.0823,-5.8414,-5.7079,-5.539,-5.3555,-5.2454,-5.1263,-4.9867,-4.8196,-4.6709,-4.5406,-4.4305,-4.3816,0.0,0.0,0.0,0.0,0.0,0.0,0.0,0.0,-4.4145,-4.5002,-4.4158,-4.5186,-4.6856,-4.7663,-5.0582,-5.4179,-5.7189,-6.0933,-6.4567,0.0,0.0,0.0,0.0,0.0,0.0,-6.9743,-7.0257,-7.1138,-7.2312,0.0,-7.356,-7.4368,-7.4074,-7.3707,-7.3707,-7.4147,-7.4882,-7.5983,-7.6313,-7.679,0.0,0.0,0.0,0.0,0.0,0.0,0.0,-8.2186,-8.2186,-8.2186,-8.2186,-8.2186,-8.2186,-8.2186,-8.2186,-8.2186,-8.2186,-8.2186,-8.2186,-8.2186,-8.2333,-8.2627,-8.3177,-8.3544,-8.3838,-8.4646,-8.5453,-8.6224,-8.6775,-8.6995,-8.6995,-8.6995,-8.7362,-8.7729,0.0,0.0,0.0,0.0,0.0,0.0,0.0,0.0,-4.3303,-4.277,-4.2693,0.0,0.0,0.0,0.0,0.0,0.0,0.0,-4.3515,-4.4268,-4.5039,-4.5847,-4.8196,-4.9884,-5.0765,-5.3151,-5.5978,-5.9184,-6.0015,-5.9171,-5.6785,-5.5978,-5.517,-5.4326,-5.2711,-5.1573,-5.0692,-4.9003,-4.6911,-4.4728,-4.4709,-4.4232,-4.3515,0.0,0.0,0.0,0.0,0.0,0.0,0.0,-4.4158,-4.3662,-4.4452,-4.5259,-4.6067,-4.6892,-5.1736,-5.7005,-5.7813,-6.2181,-6.6733,0.0,0.0,0.0,-6.9926,0.0,0.0,-7.1174,-7.323,-7.4404,-7.2826,-7.3854,0.0,-7.3854,-7.3707,-7.3707,-7.3707,-7.5102,-7.6093,-7.6093,-7.6827,0.0,0.0,0.0,0.0,0.0,0.0,0.0,0.0,-8.2186,-8.2186,-8.2186,-8.2186,-8.2186,-8.2186,-8.2186,-8.2186,-8.2186,-8.2186,-8.2186,-8.2186,-8.2186,-8.2663,-8.3434,-8.3434,-8.3875,-8.4682,-8.549,-8.6261,-8.6995,-8.6995,-8.6995,-8.6995,-8.6995,-8.6995,-8.6995,0.0,0.0,0.0,0.0,0.0,0.0,0.0,0.0,-4.3463,-4.3286,-4.3268,0.0,0.0,0.0,0.0,0.0,0.0,0.0,-4.3515,-4.3718,-4.4452,-4.5847,-4.7131,-4.8489,-4.9921,-5.2307,-5.5133,-5.8364,-5.9722,-5.8877,-5.5941,-5.6308,-5.5097,-5.2711,0.0,-5.1756,-4.9867,-4.8159,-4.7039,-4.6305,-4.5168,-4.4892,-4.5112,0.0,0.0,0.0,0.0,0.0,0.0,0.0,0.0,0.0,-4.3975,-4.5553,-4.7865,-4.9297,-5.3482,-5.818,-6.0713,-6.5118,-6.9082,-6.9339,0.0,0.0,0.0,0.0,0.0,0.0,-7.356,-7.4258,-7.4918,-7.4955,0.0,-7.5322,-7.4918,-7.4735,-7.5322,-7.5799,-7.6313,-7.69,0.0,0.0,0.0,0.0,0.0,0.0,0.0,0.0,0.0,-8.2186,-8.2186,-8.2186,-8.2186,-8.2186,-8.2186,-8.2186,-8.2186,-8.2186,-8.2774,-8.303,-8.303,-8.303,-8.3471,-8.4278,-8.4829,-8.5233,-8.549,-8.6297,-8.6775,-8.6995,-8.6995,-8.6995,-8.6995,-8.6995,-8.6995,-8.6995,0.0,0.0,0.0,0.0,0.0,0.0,-4.3515,-4.3515,-4.3515,-4.3515,-4.3515,-4.3515,0.0,0.0,0.0,-4.3515,-4.3515,-4.3515,-4.3515,-4.3791,-4.4562,-4.5847,-4.6672,-4.7902,-4.9574,-5.227,-5.4473,-5.6088,-5.8033,-5.7666,-5.5133,-5.6271,-5.5427,-5.2968,0.0,-5.3004,0.0,0.0,-4.8287,-4.7039,-4.6379,-4.603,-4.5883,0.0,0.0,0.0,0.0,0.0,0.0,0.0,0.0,0.0,-4.4121,-4.6214,-4.9187,-5.1169,-5.539,-6.0052,-6.3025,-6.71,-7.0587,-7.0587,-7.1174,-7.1872,-7.2202,0.0,0.0,0.0,-7.4221,-7.4845,-7.5506,-7.5506,0.0,-7.5616,-7.5469,-7.5542,-7.6019,-7.6387,-7.6754,0.0,0.0,0.0,0.0,0.0,0.0,0.0,0.0,0.0,0.0,-8.2186,-8.2186,-8.2186,-8.2186,-8.2186,-8.2186,-8.2186,-8.237,-8.27,-8.3177,-8.3728,-8.4352,-8.4022,-8.4315,-8.5123,-8.593,-8.6261,-8.6297,-8.6811,-8.6995,-8.6995,-8.6995,-8.6995,-8.6995,-8.6995,-8.6995,-8.6995,0.0,0.0,0.0,0.0,0.0,0.0,-4.3515,-4.3515,-4.3515,-4.3515,-4.3515,-4.3515,0.0,0.0,0.0,-4.3515,-4.3515,-4.3515,-4.3515,-4.4195,-4.5002,-4.5847,-4.6764,-4.8012,-4.9684,-5.2564,-5.3812,-5.3314,-5.5647,-5.5941,-5.4326,-5.6014,-5.5904,-5.4326,0.0,-5.4583,0.0,-5.216,-4.9994,-4.7259,-4.8012,-4.7388,-4.6104,-4.6819,0.0,0.0,0.0,0.0,0.0,0.0,0.0,0.0,-4.4691,-4.6948,-5.0088,-5.2491,-5.7189,-6.2144,-6.4714,-6.8238,-7.1219,-7.1394,-7.1982,-7.2679,-7.3413,-7.3156,-7.2936,-7.3744,0.0,-7.5763,-7.5028,-7.5506,-7.5763,-7.5028,-7.5579,-7.613,-7.6203,0.0,0.0,0.0,0.0,0.0,0.0,0.0,0.0,0.0,0.0,0.0,0.0,-8.2186,-8.2186,-8.2186,-8.2186,-8.2186,-8.2186,-8.226,-8.27,-8.3398,-8.3581,-8.4389,-8.5783,-8.5049,-8.5159,-8.593,-8.6701,-8.6995,-8.6995,-8.6995,-8.6995,-8.6995,-8.6995,-8.6995,-8.6995,-8.6995,-8.6995,-8.6995,0.0,0.0,0.0,0.0,0.0,0.0,-4.3515,-4.3515,-4.3515,-4.3515,-4.3515,-4.3515,-4.3515,-4.3515,0.0,-4.3515,-4.3515,-4.3515,-4.3515,-4.3644,-4.4378,-4.5847,-4.7278,-4.882,-5.0508,-5.1206,-5.2417,-5.4142,-5.5941,-5.5647,-5.3518,0.0,0.0,-5.3482,0.0,-5.3775,-5.216,-5.0749,-4.9297,-4.8086,-4.8233,-4.77,-4.6856,-4.7039,-4.6709,0.0,0.0,0.0,0.0,0.0,0.0,0.0,-4.4691,-4.6948,-5.0088,-5.2491,-5.7189,-6.2291,-6.5411,-6.8274,-7.066,-7.1945,-7.2386,-7.2569,-7.2716,-7.3597,-7.4625,-7.5432,-7.5359,-7.5139,-7.4955,-7.5065,-7.5102,-7.4955,-7.5579,-7.6313,0.0,0.0,0.0,0.0,0.0,0.0,0.0,0.0,0.0,0.0,0.0,0.0,-8.2186,-8.2186,-8.2186,-8.2186,-8.2186,-8.2186,-8.2186,-8.2847,-8.3251,0.0,-8.4682,-8.5453,-8.5783,-8.56,-8.5967,-8.6775,-8.6921,-8.6995,-8.6995,-8.6995,-8.6995,-8.6995,-8.6995,-8.6995,-8.6995,-8.6995,-8.6995,-8.6995,0.0,0.0,0.0,0.0,0.0,0.0,0.0,0.0,-4.3515,-4.3515,-4.3515,-4.3515,-4.3515,-4.3515,0.0,0.0,-4.3515,-4.3515,-4.3515,-4.3515,-4.4048,-4.5259,-4.6507,-4.7572,-4.8416,-4.9994,-5.1242,-5.2087,-5.4106,-5.4414,-5.324,0.0,0.0,-5.3298,0.0,-5.4656,-5.3078,-5.183,-5.0839,-5.0068,-5.0068,-4.937,-4.8343,-4.8746,-4.8122,-4.6985,-4.6617,0.0,0.0,0.0,0.0,0.0,0.0,0.0,-5.0655,-5.3078,-5.6932,-6.141,-6.5852,0.0,0.0,-7.2569,0.0,-7.2496,-7.2496,-7.3744,-7.5028,-7.5432,-7.5212,-7.5028,-7.5395,-7.5175,-7.5028,-7.5432,0.0,0.0,0.0,0.0,0.0,0.0,0.0,0.0,0.0,0.0,0.0,0.0,0.0,-8.2186,-8.2186,-8.2186,-8.2186,-8.2186,-8.2186,-8.237,-8.2774,-8.3214,-8.3801,-8.4572,-8.538,-8.6004,-8.6371,-8.6371,-8.6591,-8.6995,-8.6995,-8.6995,-8.6995,-8.6995,-8.6995,-8.6995,-8.6995,-8.6995,-8.6995,-8.6995,-8.6995,-8.6995,0.0,0.0,0.0,0.0,0.0,0.0,0.0,0.0,0.0,-4.3515,-4.3515,-4.3515,-4.3515,-4.3515,-4.3515,0.0,0.0,0.0,-4.3515,-4.3625,-4.4011,-4.4654,-4.548,-4.5957,-4.6104,-4.893,-5.0178,-4.9831,-5.1793,-5.291,-5.3261,0.0,0.0,-5.3702,0.0,0.0,-5.4363,-5.3849,-5.3078,-5.2197,-5.2197,-5.1336,-5.0088,-5.0729,-5.0141,-4.8857,-4.8177,-4.7773,-4.7406,-4.6581,0.0,0.0,0.0,0.0,-5.1059,-5.3482,-5.6492,0.0,0.0,-6.8862,-7.0991,-7.2973,-7.3083,0.0,-7.2532,-7.3854,-7.5065,-7.4955,-7.5028,-7.5322,-7.5983,-7.5579,-7.5322,0.0,0.0,0.0,0.0,0.0,0.0,0.0,0.0,0.0,0.0,0.0,0.0,0.0,0.0,-8.2186,-8.2186,-8.2186,-8.2186,-8.2186,-8.2186,-8.259,-8.3398,-8.3544,-8.4352,-8.5783,-8.593,-8.6371,-8.6995,-8.6995,-8.6995,-8.6995,-8.6995,-8.6995,-8.6995,-8.6995,-8.6995,-8.6995,-8.6995,-8.6995,-8.6995,-8.6995,-8.6995,-8.6995,0.0,0.0,0.0,0.0,0.0,0.0,0.0,0.0,0.0,0.0,-4.3515,-4.3515,-4.3515,-4.3515,-4.3515,-4.3515,-4.3515,-4.3515,-4.3515,0.0,0.0,-4.4691,-4.548,-4.625,-4.6929,-4.803,-4.9297,-5.0655,-5.0949,-5.183,-5.3261,-5.484,-5.5486,-5.5317,0.0,0.0,0.0,0.0,-5.4399,-5.3041,-5.3041,-5.2491,-5.1703,-5.1793,-5.1683,-5.1499,-5.1389,-5.0435,-4.9133,-4.8269,-4.759,0.0,0.0,0.0,-5.0235,-5.2637,-5.5647,0.0,0.0,0.0,-7.2275,0.0,-7.3083,-7.334,0.0,0.0,-7.5726,0.0,-7.5469,-7.5983,-7.6093,-7.6019,0.0,0.0,0.0,0.0,0.0,0.0,0.0,0.0,0.0,0.0,0.0,0.0,0.0,0.0,-8.2186,-8.2186,-8.2186,-8.2186,-8.2186,-8.2186,-8.2186,-8.259,-8.3398,-8.4095,-8.4903,-8.5783,-8.6518,-8.6921,-8.6995,-8.6995,-8.6995,-8.6995,-8.6995,-8.6995,-8.6995,-8.6995,-8.6995,-8.6995,-8.6995,-8.6995,-8.6995,-8.6995,-8.6995,-8.6995,0.0,0.0,0.0,0.0,0.0,0.0,0.0,0.0,0.0,0.0,0.0,-4.4819,-4.4819,-4.4819,-4.5039,-4.548,-4.5112,-4.4635,-4.4195,-4.4525,-4.4691,-4.4691,-4.4599,-4.5149,-4.6397,-4.7223,-4.8213,-4.9407,-5.0325,-5.161,-5.3203,-5.4399,-5.4693,-5.4326,-5.6051,0.0,0.0,0.0,0.0,0.0,0.0,0.0,-5.5941,-5.5023,-5.495,-5.5244,-5.4326,-5.2968,-5.1573,-5.1169,-5.0195,-4.9094,-4.8636,0.0,0.0,0.0,-5.4179,-5.7446,-6.4163,-6.9192,-7.2606,0.0,-7.345,-7.3487,-7.2679,-7.367,-7.4771,-7.4882,-7.5542,-7.6093,-7.6093,0.0,0.0,0.0,0.0,0.0,0.0,0.0,0.0,0.0,0.0,0.0,0.0,0.0,0.0,0.0,-8.2186,-8.2186,-8.2186,-8.2186,-8.2186,-8.2186,-8.2627,-8.3251,-8.4058,-8.4866,-8.5673,-8.6481,-8.6848,-8.6995,-8.6995,-8.6995,-8.6995,-8.6995,-8.6995,-8.6995,-8.6995,-8.6995,-8.6995,-8.6995,-8.6995,-8.6995,-8.6995,-8.6995,-8.6995,-8.7068,0.0,0.0,0.0,0.0,0.0,0.0,0.0,0.0,0.0,0.0,0.0,-4.5883,-4.5883,0.0,0.0,0.0,-4.6728,-4.6177,-4.5351,-4.5315,-4.5205,-4.5002,-4.4415,-4.4562,-4.5553,-4.6562,-4.7369,-4.8012,-4.9664,-5.1316,-5.2931,-5.3922,-5.4069,-5.3592,-5.5831,-5.5904,0.0,0.0,0.0,0.0,0.0,-5.9281,-5.9722,-5.8951,-5.9024,-5.9318,-5.7703,-5.6235,-5.4876,-5.3849,-5.2564,-5.1242,-5.0215,-5.0325,0.0,0.0,0.0,-5.7116,0.0,0.0,-7.1321,-7.2753,-7.323,-7.323,0.0,0.0,-7.4111,0.0,-7.5395,-7.6056,0.0,0.0,0.0,0.0,0.0,0.0,0.0,0.0,0.0,0.0,0.0,0.0,0.0,0.0,0.0,0.0,-8.2186,-8.2186,-8.2186,-8.2186,-8.2186,-8.2186,-8.2994,-8.3801,-8.4609,-8.56,-8.6407,-8.6995,-8.7215,-8.7215,-8.7031,-8.7215,-8.7215,-8.6995,-8.6995,-8.6995,-8.6995,-8.6995,-8.6995,-8.6995,-8.6995,-8.7142,-8.7325,-8.7325,-8.7435,-8.7729,0.0,0.0,0.0,0.0,0.0,0.0,0.0,0.0,0.0,0.0,0.0,-4.5883,-4.5883,-4.6581,-4.7039,-4.7113,-4.7736,-4.781,-4.7039,-4.6966,-4.6636,-4.5883,-4.581,0.0,-4.4764,-4.6305,-4.7113,-4.7149,-4.882,-5.0492,-5.2087,-5.3665,-5.4363,-5.4399,-5.6051,-5.5904,-5.4546,-5.6932,-5.7483,0.0,0.0,-6.1447,-6.163,-6.3135,-6.3723,-6.3539,-6.1887,-6.075,-5.9428,-5.5611,-5.3775,-5.2821,-5.1242,-5.0765,-5.1132,0.0,0.0,0.0,0.0,-6.5485,0.0,-7.066,-7.2018,0.0,0.0,0.0,-7.4625,-7.3891,-7.4992,0.0,0.0,0.0,0.0,0.0,0.0,0.0,0.0,0.0,0.0,0.0,0.0,0.0,0.0,0.0,0.0,0.0,-8.2186,-8.2186,-8.2186,-8.2186,-8.2186,-8.2186,-8.2994,-8.3801,-8.4609,-8.6151,-8.6958,-8.7031,-8.7766,-8.7729,-8.7031,-8.7802,-8.7729,-8.6995,-8.6995,-8.6995,-8.6995,-8.6995,-8.6995,-8.6995,-8.6995,-8.7472,-8.8133,-8.8133,-8.861,-8.9272,0.0,0.0,0.0,0.0,0.0,0.0,0.0,0.0,0.0,0.0,0.0,0.0,0.0,-4.9921,-4.9865,-5.0929,-5.0802,-5.0105,-4.8746,-4.8159,-4.7516,-4.6709,-4.6177,-4.603,-4.6232,-4.6819,-4.7333,-4.7846,-4.8489,-4.9334,-5.0492,-5.1573,-5.2344,-5.3004,-5.6161,-5.6969,-5.6088,-5.851,-5.9391,-5.9501,-6.3796,-6.6109,-6.71,-6.7724,-6.8568,-6.9265,-6.765,-6.5558,-6.3319,-6.1887,-5.9465,-5.6653,-5.4546,-5.3885,-5.4106,-5.5207,-5.6895,-5.9134,0.0,0.0,0.0,-6.8972,-7.0367,-7.0954,-7.0954,-7.1798,-7.2679,-7.2899,0.0,0.0,0.0,0.0,0.0,0.0,0.0,0.0,0.0,0.0,0.0,0.0,0.0,0.0,0.0,0.0,0.0,0.0,0.0,-8.2186,-8.2186,-8.2186,-8.2186,-8.2186,-8.3471,-8.4792,-8.6151,-8.7215,-8.7766,-8.7766,-8.8059,-8.8059,-8.7766,-8.7545,-8.7288,-8.6995,-8.6995,-8.6995,-8.6995,-8.6995,-8.7325,-8.7766,-8.7766,-8.828,-8.8977,-8.8977,-8.916,-8.9455,0.0,0.0,0.0,0.0,0.0,0.0,0.0,0.0,0.0,-5.227,0.0,0.0,0.0,0.0,-5.2454,-5.3518,-5.3115,-5.2087,-5.0435,-4.9591,-4.8783,-4.7976,-4.7168,-4.6838,-4.7076,-4.7113,-4.7369,0.0,0.0,-4.8489,-4.961,-5.0398,-5.1353,-5.2527,-5.5464,-5.6492,-5.6161,-5.8584,-5.9905,-6.0823,-6.5705,-6.8164,-6.9045,-7.0403,-7.1394,-7.1945,-7.0587,-6.9082,-6.7614,-6.6806,-6.453,-6.1594,-5.8877,-5.7079,-5.6161,-5.6969,-5.7189,0.0,-6.1117,0.0,0.0,0.0,0.0,-6.9779,-7.0036,0.0,-7.1872,-7.2386,0.0,0.0,0.0,0.0,0.0,0.0,0.0,0.0,0.0,0.0,0.0,0.0,0.0,0.0,0.0,0.0,0.0,0.0,0.0,0.0,-8.2186,-8.2186,-8.2443,-8.2994,-8.4315,-8.5783,-8.7399,-8.8206,-8.8463,-8.8206,-8.8757,-8.8573,-8.7802,-8.8096,-8.7766,-8.7031,-8.7288,-8.7399,-8.7399,-8.7399,-8.7876,-8.861,-8.861,-8.9087,-8.9821,-8.9821,-8.9968,-9.0298,0.0,0.0,0.0,0.0,0.0,0.0,0.0,0.0,-5.3277,-5.3277,0.0,0.0,0.0,0.0,0.0,-5.4436,-5.4436,-5.3775,-5.216,-5.1316,-5.0508,-4.9684,-4.8783,-4.7957,-4.7149,-4.7149,-4.7149,0.0,0.0,0.0,0.0,0.0,-5.1573,-5.3151,-5.3959,-5.4363,-5.4583,-5.7042,-5.8988,-6.086,-6.5815,-6.7357,-6.7063,-7.1101,-7.2165,-7.1394,-7.0587,-7.1284,-7.2202,-6.9889,-6.8458,-6.71,-6.3796,-6.0089,-5.7079,-5.7813,-5.6895,0.0,0.0,0.0,0.0,0.0,0.0,0.0,-6.9853,0.0,-7.2459,-7.2459,0.0,0.0,0.0,0.0,0.0,0.0,0.0,0.0,0.0,0.0,0.0,0.0,0.0,0.0,0.0,0.0,0.0,0.0,-8.2186,-8.2186,-8.2186,-8.2186,-8.292,-8.4535,-8.538,-8.6554,-8.8169,-8.9014,-8.905,-8.828,-8.9821,-8.9344,-8.7178,-8.9491,-8.9271,-8.7105,-8.7876,-8.8206,-8.8243,-8.8206,-8.8683,-8.9419,-8.9419,-8.9931,-9.0629,-9.0629,-9.1143,-9.1803,0.0,0.0,0.0,0.0,0.0,-5.1059,-5.1867,-5.3665,-5.5133,0.0,0.0,0.0,-5.8364,-5.7556,-5.6528,-5.5354,-5.5244,-5.484,-5.3812,-5.2968,-5.194,-5.0508,-4.9664,-4.882,-4.7993,-4.7957,-4.7957,0.0,0.0,0.0,0.0,0.0,0.0,0.0,-5.205,-5.3628,-5.55,-5.9098,-6.0529,-6.1043,-6.8274,-7.0697,-7.0367,-7.378,-7.5322,-7.5586,-7.5365,-7.4845,-7.4147,-7.3487,-7.077,-6.6916,-6.2475,-6.0713,-6.0089,-5.9134,-5.774,0.0,-5.8964,0.0,0.0,0.0,0.0,0.0,0.0,0.0,0.0,-7.1651,0.0,0.0,0.0,0.0,0.0,0.0,0.0,0.0,0.0,0.0,0.0,0.0,0.0,0.0,0.0,0.0,0.0,0.0,-8.1856,-8.2186,-8.2186,-8.2186,-8.292,-8.4535,-8.538,-8.6554,-8.8169,-8.9014,-8.9601,-8.9931,-8.9821,-8.9711,-8.9601,-8.9087,-8.85,-8.7876,-8.8096,-8.8536,-8.905,-8.8426,-8.9014,-9.0298,-9.0298,-9.0776,-9.1473,-9.1473,-9.162,-9.1803,0.0,0.0,-5.0472,-5.161,-5.2344,-5.3188,-5.4326,-5.6271,-5.7776,0.0,0.0,0.0,-6.0346,-5.9869,-5.8841,-5.7226,-5.6785,-5.6271,-5.5464,-5.4032,-5.2784,-5.183,-5.0398,-4.9353,-4.8857,-4.8159,-4.7957,0.0,0.0,0.0,0.0,0.0,0.0,0.0,-5.1793,-5.4032,-5.6895,-6.1263,-6.2879,-6.2915,-6.8311,-7.0624,-7.1174,-7.4368,-7.5909,-7.6393,-7.7053,-7.6907,-7.657,-7.7231,-7.4441,-7.0036,-6.6182,-6.3906,-6.2328,-6.0676,-5.8584,0.0,0.0,0.0,0.0,0.0,0.0,0.0,0.0,0.0,0.0,0.0,0.0,0.0,0.0,0.0,0.0,0.0,0.0,0.0,0.0,0.0,0.0,0.0,0.0,0.0,0.0,0.0,0.0,-8.1525,-8.1929,-8.2186,-8.2186,-8.2186,-8.3104,-8.5049,-8.5894,-8.7068,-8.8683,-8.9528,-8.9821,-8.9601,-8.9821,-8.9638,-8.9124,-8.916,-8.8647,-8.7729,-8.8426,-8.8977,-8.9417,-8.9271,-8.9968,-9.1106,-9.1106,-9.14,-9.1803,-9.1803,-9.1803,-9.1803,0.0,0.0,-5.1573,-5.3188,-5.473,-5.6235,-5.7776,-5.9355,-6.0419,0.0,-6.0566,0.0,-6.0529,-6.1153,0.0,0.0,-5.8694,-5.7923,-5.7116,-5.4987,-5.3607,-5.3314,-5.1169,-4.9867,-4.961,-4.8159,-4.7663,-4.8306,0.0,0.0,0.0,0.0,0.0,0.0,-5.2637,-5.5207,-5.8694,-6.3062,-6.5301,-6.6109,-6.7797,-6.9302,-7.0844,-7.4074,-7.5395,-7.5652,-7.7053,-7.8075,-7.8883,-7.9874,-7.7965,-7.4698,-7.1798,-6.8128,-6.4494,-6.2475,-5.9722,0.0,0.0,0.0,0.0,0.0,0.0,0.0,0.0,0.0,0.0,0.0,0.0,0.0,0.0,0.0,0.0,0.0,0.0,0.0,0.0,0.0,0.0,0.0,0.0,0.0,0.0,-8.0571,-8.1342,-8.215,-8.237,-8.2443,-8.2333,-8.2406,-8.3471,-8.571,-8.6591,-8.7802,-8.9345,-9.0041,-8.9674,-8.8353,-8.9711,-8.9271,-8.7362,-8.9417,-8.916,-8.7215,-8.8757,-8.9382,-8.9455,-9.0372,-9.1143,-9.1803,-9.1803,-9.1803,-9.1803,-9.1803,-9.1803,-9.1803,-5.1389,-5.2197,-5.3261,-5.484,-5.5941,-5.6895,-5.785,-5.9355,-6.0419,-6.0419,-6.152,-6.2108,-6.1447,-6.152,0.0,0.0,0.0,-5.9612,-5.8781,-5.7703,-5.6198,-5.4252,-5.3078,-5.1573,-4.9647,-4.928,-4.8857,-4.8306,-4.8159,0.0,0.0,0.0,0.0,0.0,-5.3445,-5.6675,-6.097,-6.1924,-6.5338,-7.033,-7.2606,-7.3303,-7.334,-7.6644,-7.8259,-7.8883,-7.9176,-7.9396,-7.9103,-7.613,-7.5909,-7.5842,-7.0183,-6.9082,-6.9082,-6.4861,-6.2218,-6.0456,0.0,0.0,0.0,-5.9148,-6.1263,0.0,0.0,-6.6402,-6.7687,0.0,0.0,0.0,0.0,0.0,0.0,0.0,0.0,0.0,0.0,0.0,0.0,0.0,0.0,0.0,0.0,-8.0901,-8.1342,-8.215,-8.3398,-8.3838,-8.3214,-8.3801,-8.4646,-8.5747,-8.6591,-8.7802,-8.9345,-8.8904,-8.883,-8.916,-8.883,-8.8757,-8.894,-8.8757,-8.8426,-8.8023,-8.8977,-8.9382,-8.9492,-9.0959,-9.1657,-9.1803,-9.1803,-9.1803,-9.1803,-9.1803,-9.1803,-9.1803,-5.2454,-5.3555,-5.5023,-5.7042,-5.807,-5.9024,-6.0199,-6.108,-6.1741,-6.2181,-6.3649,-6.4347,-6.3539,-6.3796,-6.3539,0.0,0.0,0.0,-6.1056,-6.0236,-5.8914,-5.6895,-5.5244,-5.3445,-5.1426,-5.0618,-4.9774,-4.893,-4.893,0.0,0.0,0.0,0.0,0.0,0.0,-5.8731,-6.409,-6.4897,-6.7834,-7.1982,-7.2789,-7.4074,-7.5763,-7.8259,-7.9947,-8.1048,-8.1452,-8.1599,-8.1158,-7.8295,-7.7598,-7.7231,-7.3156,-7.1908,-7.1101,-6.7063,-6.4457,-6.2475,-6.086,-5.9208,-5.818,-5.9001,-6.0102,0.0,0.0,0.0,-6.5742,-6.7357,-6.8678,0.0,0.0,0.0,0.0,0.0,0.0,0.0,0.0,0.0,0.0,0.0,0.0,0.0,0.0,-8.1122,-8.1929,-8.2737,-8.3544,-8.4022,-8.4022,-8.4389,-8.4976,-8.5747,-8.6591,-8.7399,-8.8206,-8.8206,-8.839,-8.8793,-8.839,-8.8426,-8.8793,-8.839,-8.8206,-8.8243,-8.905,-8.9602,-9.0115,-9.1289,-9.1803,-9.1803,-9.1803,-9.1803,-9.1803,-9.1803,-9.1803,-9.1803,-5.3592,-5.484,-5.6602,-5.9001,-6.0126,-6.1117,-6.256,-6.2952,-6.3429,-6.442,-6.5705,-6.6366,-6.6035,-6.6439,-6.6329,-6.5338,0.0,0.0,-6.3796,-6.2989,-6.1887,-6.0432,-5.7886,-5.5831,-5.4378,-5.2491,-5.1022,-5.0051,0.0,0.0,0.0,0.0,0.0,0.0,0.0,-6.1043,-6.6402,-6.8641,-7.1101,-7.3413,-7.3083,-7.5065,-7.8442,-8.0241,-8.1746,-8.292,-8.3287,-8.3398,-8.3177,-8.1709,-8.0571,-7.9396,-7.7268,-7.5359,-7.3156,-6.9265,-6.6439,-6.4163,-6.2328,-6.0162,-5.8657,-5.9465,-5.9551,-5.9905,0.0,0.0,0.0,0.0,0.0,0.0,0.0,0.0,0.0,0.0,0.0,0.0,0.0,0.0,0.0,0.0,0.0,0.0,0.0,-8.2003,-8.3618,-8.3654,-8.4499,-8.4976,-8.4829,-8.4829,-8.5123,-8.5783,-8.6444,-8.6848,-8.6995,-8.7655,-8.7986,-8.7986,-8.7986,-8.7986,-8.7986,-8.7986,-8.8059,-8.8243,-8.905,-8.9858,-9.0665,-9.1473,-9.1803,-9.1803,-9.1803,-9.1803,-9.1803,-9.1803,-9.1913,-9.2024,-5.5574,-5.6051,-5.7409,-5.9832,-6.0933,-6.1777,-6.2658,-6.3466,-6.4494,-6.6035,-6.6402,-6.7026,-6.8348,-6.7944,-6.8054,-6.9302,-6.8752,-6.8017,-6.7173,-6.6402,-6.5558,-6.4677,-6.1557,-5.9465,-5.8524,-5.5537,-5.3261,-5.172,0.0,0.0,0.0,0.0,0.0,0.0,-6.0272,-6.333,-6.5742,-7.022,-7.3927,-7.687,-7.8259,-7.9947,-8.1893,-8.4205,-8.5233,-8.5196,-8.3875,-8.3398,-8.3287,0.0,-8.2884,-8.3251,0.0,-7.8626,-7.7745,-7.1615,-6.8128,-6.5705,-6.3319,-6.141,-6.0309,-6.1117,-6.0786,-6.0896,-6.3282,0.0,-6.2144,-6.3062,0.0,0.0,0.0,0.0,0.0,0.0,0.0,0.0,0.0,0.0,0.0,0.0,0.0,0.0,0.0,0.0,-8.7472,-8.4682,-8.8426,-8.9307,-8.5857,-8.5637,-8.571,-8.5783,-8.5894,-8.6261,-8.6995,-8.7105,-8.7142,-8.7142,-8.7142,-8.7142,-8.7142,-8.7142,-8.7545,-8.8243,-8.905,-8.9858,-9.0665,-9.1473,-9.1803,-9.1803,-9.1803,-9.1803,-9.1803,-9.1803,-9.2281,-9.2831,-5.774,-5.8327,-5.9501,-6.1447,-6.2071,-6.2732,-6.4053,-6.5742,-6.6953,-6.7173,-6.8825,-7.0257,-7.0917,-7.0257,-7.044,-7.2055,-7.1027,-7.0367,-7.0477,-6.9743,0.0,-6.6769,-6.4016,-6.1704,-5.9942,-5.7666,-5.5941,-5.4803,-5.3995,0.0,0.0,0.0,0.0,0.0,-6.2915,-6.5705,-6.8348,-7.2239,-7.5763,-7.8919,-8.1048,-8.3398,0.0,-8.5233,-8.538,-8.5747,-8.5563,-8.5196,-8.4682,0.0,-8.4352,0.0,0.0,0.0,0.0,-7.5799,-7.2239,-6.9559,-6.7577,-6.5852,-6.4604,-6.4494,-6.453,0.0,-6.4163,-6.3906,-6.3429,0.0,0.0,0.0,0.0,0.0,0.0,0.0,0.0,0.0,0.0,0.0,0.0,0.0,0.0,0.0,0.0,0.0,0.0,0.0,0.0,-8.8059,-8.5894,-8.6224,-8.6077,-8.5123,-8.5563,-8.5747,-8.56,-8.6077,-8.6775,-8.7692,-8.7215,-8.7252,-8.7692,-8.7215,-8.7692,-8.894,-8.9235,-9.0115,-9.1326,-9.1657,-9.1803,-9.1803,-9.1803,-9.1803,-9.1803,-9.1803,-9.2024,-9.2281,-6.0456,-6.0493,-6.0933,-6.2548,-6.3025,-6.3796,-6.5668,-6.765,-6.8935,-6.9009,-7.1248,-7.3083,-7.3744,-7.3303,-7.3597,-7.5212,-7.4294,-7.367,-7.3817,-7.3083,-7.1945,-7.0403,-6.7393,-6.5007,-6.3429,-6.0933,-5.9061,-5.7813,-5.6969,0.0,0.0,0.0,0.0,0.0,-6.4677,-6.7283,-7.0367,-7.4258,-7.7561,-8.0351,-8.2994,-8.56,-8.7692,-8.6187,-8.5967,-8.6481,-8.6628,-8.6297,-8.5747,-8.538,-8.5637,0.0,-8.3544,0.0,-8.2663,0.0,0.0,0.0,-7.1725,0.0,0.0,0.0,0.0,0.0,0.0,0.0,0.0,0.0,0.0,0.0,0.0,0.0,0.0,0.0,0.0,0.0,0.0,0.0,0.0,0.0,0.0,0.0,0.0,0.0,0.0,0.0,0.0,0.0,-8.5857,-8.593,-8.5673,-8.4939,-8.527,-8.5306,-8.4939,-8.549,-8.6481,-8.7876,-8.7288,-8.7325,-8.7839,-8.7288,-8.7876,-8.9382,-8.9382,-9.0335,-9.1803,-9.1803,-9.1803,-9.1803,-9.1803,-9.1803,-9.1803,-9.1803,-9.195,-9.2134,-6.3943,-6.2034,-6.0933,-6.2548,-6.3503,-6.4861,-6.7247,-6.8348,-6.9743,-7.2055,-7.312,-7.4551,-7.687,-7.7127,-7.7781,-7.9433,-7.9543,-7.8846,-7.7237,-7.6387,-7.6276,-7.6943,-7.2459,-7.022,-7.0926,-6.6329,-6.2732,-6.0272,-5.9478,-5.9074,0.0,0.0,0.0,0.0,-6.5007,-6.7834,-7.0477,-7.6093,-7.9433,-8.1232,-8.4425,-8.6261,-8.7142,0.0,-8.8096,-8.7912,-8.6371,0.0,0.0,-8.6664,-8.6958,0.0,0.0,0.0,0.0,0.0,0.0,0.0,0.0,0.0,0.0,-7.2679,0.0,0.0,0.0,0.0,-6.4824,0.0,0.0,0.0,0.0,0.0,0.0,0.0,0.0,0.0,0.0,0.0,0.0,0.0,0.0,0.0,0.0,0.0,0.0,0.0,0.0,0.0,-8.5967,-8.4352,-8.4205,-8.571,-8.5013,-8.5013,-8.5747,-8.5783,-8.6224,-8.7031,-8.7031,-8.7031,-8.7031,-8.7031,-8.7876,-8.9382,-8.9382,-9.0335,-9.1803,-9.1803,-9.1803,-9.1803,-9.1803,-9.1803,-9.1803,-9.1803,-9.2317,-9.2941,-6.3246,-6.2585,-6.2511,-6.4163,-6.4273,-6.4897,-6.732,-7.0183,-7.2349,-7.3193,-7.5432,-7.7451,-7.8809,-7.8479,-7.925,-8.1966,-8.0718,-8.0241,-8.1269,-7.958,-7.8662,-7.8919,-7.4294,-7.1321,-7.0513,-6.7871,-6.5264,-6.2842,-6.2585,-6.2438,0.0,0.0,0.0,0.0,0.0,-6.9119,-7.1174,-7.5212,-7.9433,-8.3618,0.0,-8.7876,-8.8573,0.0,-8.7876,-8.7325,-8.6811,-8.6591,0.0,-8.6297,-8.7288,-8.8206,-8.6077,-8.593,-8.593,-8.2737,-8.0424,0.0,0.0,0.0,-7.6093,-7.6093,0.0,0.0,0.0,0.0,0.0,0.0,0.0,0.0,0.0,0.0,0.0,0.0,0.0,0.0,0.0,0.0,0.0,0.0,0.0,0.0,0.0,0.0,0.0,0.0,0.0,0.0,0.0,-8.4719,-8.5233,-8.5783,-8.5527,-8.5527,-8.5783,-8.5783,-8.6187,-8.6995,-8.6995,-8.6995,-8.6995,-8.6995,-8.7876,-8.9382,-8.9382,-9.0335,-9.1803,-9.1803,-9.1803,-9.1803,-9.1803,-9.1803,-9.1803,-9.1803,-9.1987,-9.2207,-6.4127,-6.3906,-6.4053,-6.5118,-6.5595,-6.6733,-6.9412,-7.2275,-7.4551,-7.5726,-7.7965,-7.9874,-8.0975,-8.0865,-8.1562,-8.3654,-8.2663,-8.259,-8.4168,-8.226,-8.1195,-8.1489,-7.7671,-7.4771,-7.3156,-7.066,-6.8348,-6.6219,-6.5081,-6.453,0.0,0.0,0.0,0.0,0.0,-6.9743,-7.2724,-7.5102,-7.9213,0.0,0.0,-8.8096,0.0,0.0,-8.8243,-8.8169,0.0,-8.6995,-8.6921,-8.6407,-8.7252,-8.8243,-8.6371,-8.6518,-8.6921,-8.4866,-8.3324,-8.2039,-8.1012,-8.0498,0.0,-7.925,-7.8993,0.0,-7.8002,0.0,-7.2312,0.0,0.0,0.0,0.0,0.0,0.0,0.0,0.0,0.0,0.0,0.0,0.0,0.0,0.0,0.0,0.0,0.0,0.0,0.0,0.0,0.0,0.0,0.0,-8.5343,-8.6187,-8.593,-8.5783,-8.5783,-8.5783,-8.604,-8.6591,-8.6885,-8.6995,-8.6995,-8.6995,-8.7876,-8.9382,-8.9382,-9.0335,-9.1803,-9.1803,-9.1803,-9.1803,-9.1803,-9.1803,-9.1803,-9.1803,-9.1803,-9.1803,-6.6512,-6.5962,-6.5521,-6.5595,-6.765,-7.0257,-7.323,-7.4551,-7.6313,-7.9433,-8.0571,-8.1746,-8.3287,-8.4132,-8.4609,-8.4646,-8.5343,-8.582,-8.5857,-8.4389,-8.3875,-8.4682,-8.237,-8.0314,-7.8736,-7.4808,-7.1908,-7.0146,-6.7063,-6.5485,0.0,0.0,0.0,0.0,-6.6549,-6.9669,-7.4955,-7.5726,-7.8883,-8.3618,-8.6077,-8.7068,-8.7142,-8.7839,-8.9124,-9.0225,-8.7876,-8.6995,-8.6995,-8.6995,-8.6995,-8.6885,-8.6114,-8.5857,-8.5857,-8.5783,-8.527,-8.4719,-8.4609,-8.2957,-8.1415,-8.2076,0.0,0.0,0.0,0.0,-7.5102,0.0,0.0,0.0,0.0,0.0,0.0,0.0,0.0,0.0,0.0,0.0,0.0,0.0,0.0,0.0,0.0,0.0,0.0,0.0,0.0,0.0,0.0,0.0,-8.4609,-8.6885,-8.6187,-8.5783,-8.5747,-8.5783,-8.5783,-8.5747,-8.6591,-8.6995,-8.6995,-8.6995,-8.7876,-8.9382,-8.9382,-9.0335,-9.1803,-9.1803,-9.1803,-9.1803,-9.1803,-9.1803,-9.1803,-9.1803,-9.1803,-9.1803,-6.6623,-6.732,-6.8348,-6.9531,-7.2275,-7.4147,-7.3744,-7.6974,-7.9764,-8.0571,-8.1929,-8.3177,-8.4168,-8.4499,-8.4829,-8.5416,-8.5673,-8.604,-8.6664,-8.5747,-8.5527,-8.6371,-8.3508,-8.1415,-8.0424,-7.7561,-7.4404,-7.0991,-6.9559,-6.7944,-6.6182,0.0,0.0,0.0,0.0,-7.0183,-7.4918,-7.5139,-7.8405,-8.3654,-8.6701,-8.7876,0.0,0.0,-8.7802,-8.9491,-8.7655,-8.6995,-8.6995,-8.6995,-8.6995,-8.6958,-8.6775,-8.6701,-8.6591,-8.5967,-8.6077,-8.6114,-8.4939,-8.4572,-8.4315,-8.3361,-8.292,-8.259,0.0,0.0,0.0,0.0,0.0,0.0,0.0,0.0,0.0,0.0,0.0,0.0,0.0,0.0,0.0,0.0,0.0,0.0,0.0,0.0,0.0,0.0,0.0,0.0,0.0,0.0,0.0,-8.6114,-8.5894,-8.549,-8.4903,-8.549,-8.549,-8.4903,-8.6334,-8.6995,-8.6995,-8.6995,-8.7876,-8.9382,-8.9382,-9.0335,-9.1803,-9.1803,-9.1803,-9.1803,-9.1803,-9.1803,-9.1803,-9.1803,-9.1803,-9.1803,-6.8678,-6.9889,-7.1394,-7.2679,-7.613,-7.8222,-7.6607,-7.8993,-8.1636,-8.3398,-8.4132,-8.4903,-8.604,-8.5857,-8.582,-8.6297,-8.6334,-8.6664,-8.7472,-8.6775,-8.6518,-8.6995,-8.527,-8.3765,-8.259,-8.0167,-7.7304,-7.3898,-7.2055,0.0,-6.754,0.0,0.0,0.0,0.0,-7.1431,-7.6099,-7.8626,-8.1525,-8.4646,-8.6811,0.0,0.0,-8.6151,-8.6628,-8.7766,-8.7215,-8.7252,-8.7582,-8.7949,-8.8059,-8.7986,-8.7655,-8.7288,-8.6921,-8.6444,-8.6407,-8.6297,-8.538,-8.571,-8.593,-8.4352,-8.4535,-8.4792,-8.3544,-8.2186,-8.1122,0.0,0.0,0.0,0.0,0.0,0.0,0.0,0.0,0.0,0.0,0.0,0.0,0.0,0.0,0.0,0.0,0.0,0.0,0.0,0.0,0.0,0.0,0.0,0.0,-8.5783,-8.6151,-8.56,-8.4095,-8.593,-8.6077,-8.4609,-8.6224,-8.6995,-8.7031,-8.7362,-8.8206,-8.9419,-8.9784,-9.0629,-9.1803,-9.1803,-9.1803,-9.1803,-9.1803,-9.1803,-9.1803,-9.1803,-9.1803,-9.1803,-7.177,-7.2973,-7.4331,-7.5359,-7.9213,-8.1782,-8.0608,-8.1195,-8.2994,-8.6407,-8.6334,-8.6444,-8.7729,-8.7362,-8.6995,-8.6995,-8.6995,-8.7362,-8.8133,-8.7472,-8.6995,-8.6995,-8.6995,-8.6371,-8.4939,-8.2663,-8.0277,-7.775,-7.4882,0.0,0.0,0.0,0.0,0.0,0.0,0.0,0.0,-8.3691,-8.5967,-8.6004,-8.6738,-8.6591,-8.593,-8.571,-8.5747,-8.604,-8.6775,-8.7509,-8.8316,-8.9014,-8.9344,-8.9271,-8.8463,-8.7729,-8.7142,-8.6921,-8.6334,-8.5783,-8.5783,-8.6297,-8.6518,-8.5123,-8.5343,-8.571,-8.4792,-8.4682,-8.4535,-8.3728,-8.1342,-7.9947,0.0,0.0,0.0,0.0,0.0,0.0,0.0,0.0,0.0,0.0,0.0,0.0,0.0,0.0,0.0,0.0,0.0,0.0,0.0,0.0,0.0,-8.549,-8.6261,0.0,-8.3911,0.0,-8.6921,-8.5086,-8.6407,-8.6995,-8.7031,-8.7839,-8.8647,-8.9419,-9.0262,-9.1069,-9.1803,-9.1803,-9.1803,-9.1803,-9.1803,-9.1803,-9.1803,-9.1803,-9.1803,-9.1803,-7.4404,-7.5028,-7.635,-7.8552,-8.0755,-8.2553,-8.3581,-8.5013,-8.5967,-8.6004,-8.6481,-8.6628,-8.6261,-8.6701,-8.6995,-8.6995,-8.6995,-8.7362,-8.8133,-8.7472,-8.6995,-8.6995,-8.6995,-8.6885,-8.6591,-8.4866,-8.2774,0.0,0.0,0.0,0.0,0.0,0.0,0.0,0.0,0.0,-8.1562,-8.5233,0.0,-8.6811,-8.6958,-8.6921,-8.6664,-8.5306,-8.5637,-8.6811,-8.6958,-8.7509,-8.8206,-8.8353,-8.8867,-8.9271,-8.8463,-8.8096,-8.7729,-8.6407,-8.5894,-8.5783,-8.5783,-8.5894,-8.593,-8.5637,-8.6187,-8.6407,-8.4939,-8.5123,-8.5343,-8.4572,-8.3948,-8.3287,-8.237,0.0,0.0,0.0,0.0,0.0,0.0,0.0,0.0,0.0,0.0,0.0,0.0,0.0,0.0,0.0,0.0,0.0,0.0,0.0,0.0,0.0,-8.4609,0.0,0.0,0.0,-8.6664,-8.7545,-8.7178,-8.6995,-8.7031,-8.7839,-8.8647,-8.9419,-9.0262,-9.1069,-9.1803,-9.1803,-9.1803,-9.1803,-9.1803,-9.1803,-9.1803,-9.1803,-9.1803,-9.1803,-7.7451,-7.8442,-7.9764,-8.1379,-8.3324,-8.4792,-8.5159,-8.6591,-8.7472,-8.7105,-8.7031,-8.7031,-8.7031,-8.7031,-8.6995,-8.6995,-8.6995,-8.7178,-8.7545,-8.7215,-8.6995,-8.6995,-8.6995,-8.7215,-8.7619,-8.6848,-8.527,-8.2884,0.0,0.0,0.0,0.0,0.0,0.0,0.0,-8.1232,0.0,0.0,0.0,-8.6371,-8.6371,-8.6151,-8.5673,-8.4903,-8.5343,-8.6444,-8.6848,-8.7509,-8.828,-8.8683,-8.9381,-8.9821,-8.861,-8.8206,-8.7986,-8.6775,-8.6114,-8.5783,-8.5783,-8.5783,-8.5783,-8.5783,-8.6077,-8.6151,-8.538,-8.5857,-8.6077,-8.4866,-8.4939,-8.4719,-8.3104,-8.292,0.0,0.0,0.0,0.0,0.0,0.0,0.0,0.0,0.0,0.0,0.0,0.0,0.0,0.0,0.0,0.0,0.0,0.0,0.0,0.0,0.0,0.0,0.0,0.0,0.0,-8.6334,-8.6811,-8.6995,-8.7031,-8.828,-8.905,-8.9455,-9.0702,-9.1436,-9.1803,-9.1803,-9.1803,-9.1803,-9.1803,-9.1803,-9.1803,-9.1803,-9.1803,-9.1803,-8.0388,-8.1709,-8.2957,-8.3765,-8.5783,-8.6995,-8.6187,-8.7435,-8.8316,-8.7986,-8.7545,-8.7362,-8.7655,-8.7288,-8.6995,-8.6995,-8.6995,-8.7068,-8.7252,-8.7105,-8.6921,-8.6775,-8.6921,-8.7215,-8.7692,-8.7876,-8.6921,0.0,0.0,0.0,0.0,0.0,0.0,0.0,0.0,0.0,0.0,0.0,-8.7068,-8.604,-8.5673,-8.527,-8.4866,-8.4866,-8.5343,-8.6151,-8.6775,-8.7435,-8.8059,-8.8683,-8.9564,-9.0115,-8.8647,-8.8206,-8.8023,-8.7031,-8.6297,-8.5783,-8.5783,-8.5783,-8.5783,-8.5783,-8.5783,-8.5783,-8.5783,-8.6297,-8.6407,-8.5123,-8.5233,-8.5306,-8.4572,-8.5563,0.0,0.0,0.0,0.0,0.0,0.0,0.0,0.0,0.0,0.0,0.0,0.0,0.0,0.0,0.0,0.0,0.0,0.0,0.0,0.0,0.0,-8.5527,-8.4939,0.0,-8.6995,0.0,-8.6554,-8.6995,-8.7068,-8.8683,-8.9382,-8.9455,-9.1106,-9.1803,-9.1803,-9.1803,-9.1803,-9.1803,-9.1803,-9.1803,-9.1803,-9.1803,-9.1803,-9.1803,-8.292,-8.3765,-8.4646,-8.5416,-8.6958,-8.7839,-8.7031,-8.828,-8.8793,-8.7325,-8.7692,-8.7545,-8.6187,-8.6628,-8.6995,-8.6995,-8.6995,-8.7325,-8.8059,-8.7399,-8.6664,-8.593,-8.6628,-8.6701,-8.604,-8.6738,-8.6628,0.0,0.0,-8.3654,0.0,0.0,0.0,0.0,0.0,0.0,0.0,-8.6224,-8.6371,-8.6775,-8.5306,-8.5086,-8.5673,-8.5673,-8.6187,-8.6921,-8.6995,-8.7068,-8.7142,-8.7215,-8.8243,-8.9381,-8.85,-8.8206,-8.7912,-8.6371,-8.5857,-8.5783,-8.5783,-8.5783,-8.5783,-8.5783,-8.5783,-8.5783,-8.5783,-8.5857,-8.5857,-8.571,-8.5159,-8.5343,-8.7362,-8.6151,-8.5196,0.0,0.0,0.0,0.0,0.0,0.0,0.0,0.0,0.0,0.0,0.0,0.0,0.0,0.0,0.0,0.0,0.0,0.0,-8.7839,0.0,-8.7142,-8.9895,-8.7325,-8.6995,-8.8905,-8.7619,-8.6995,-8.7068,-8.8683,-8.9382,-8.9455,-9.1106,-9.1803,-9.1803,-9.1803,-9.1803,-9.1803,-9.1803,-9.1803,-9.1803,-9.1803,-9.1803,-9.1803,-8.4499,-8.5086,-8.5563,-8.6371,-8.7435,-8.7949,-8.7142,-8.7986,-8.828,-8.7142,-8.7692,-8.7766,-8.6628,-8.7252,-8.7729,-8.7729,-8.8169,-8.839,-8.8206,-8.7912,-8.7362,-8.6554,-8.6848,-8.7068,-8.7252,-8.7545,-8.7545,0.0,0.0,0.0,0.0,0.0,0.0,0.0,0.0,-8.7178,-8.6334,-8.6958,-8.6591,-8.5563,-8.538,-8.549,-8.5783,-8.5783,-8.6297,-8.6995,-8.6995,-8.6995,-8.6995,-8.6995,-8.7766,-8.8536,-8.7729,-8.7802,-8.7986,-8.6848,-8.6518,-8.6407,-8.593,-8.5783,-8.5783,-8.5783,-8.5783,-8.5783,-8.5783,-8.5783,-8.5637,-8.5159,-8.5196,-8.5747,-8.7215,-8.7472,-8.7215,0.0,0.0,0.0,0.0,0.0,0.0,0.0,0.0,0.0,0.0,0.0,0.0,0.0,0.0,0.0,0.0,0.0,0.0,-8.9638,0.0,-8.7105,-8.9858,-8.7178,-8.6261,-8.7252,-8.7105,-8.7252,-8.7766,-8.8904,-8.9931,-9.0886,-9.151,-9.1803,-9.1803,-9.1803,-9.1803,-9.1803,-9.1803,-9.1803,-9.1803,-9.1803,-9.1803,-9.1803,-8.5857,-8.6151,-8.6334,-8.6921,-8.7655,-8.7949,-8.7142,-8.8096,-8.8536,-8.7509,-8.828,-8.85,-8.7472,-8.8059,-8.8573,-8.8573,-8.9087,-8.916,-8.861,-8.8316,-8.7839,-8.7031,-8.6995,0.0,-8.7472,-8.7729,-8.7839,-8.7839,-8.8977,0.0,0.0,-8.6848,-8.7105,0.0,-8.7692,-8.7215,-8.6187,-8.6848,-8.6297,-8.5013,-8.5563,-8.5783,-8.5857,-8.6334,-8.6848,-8.7399,-8.7619,-8.7729,-8.7729,-8.7729,-8.8096,-8.839,-8.7325,-8.7399,-8.7729,-8.7178,-8.6995,-8.6885,-8.6297,-8.6151,-8.6077,-8.5857,-8.5783,-8.5783,-8.5783,-8.5783,-8.5637,-8.5086,-8.5233,-8.56,-8.6187,-8.7215,-8.7582,-8.6334,0.0,0.0,0.0,0.0,0.0,0.0,0.0,-8.6004,0.0,0.0,0.0,0.0,0.0,0.0,0.0,0.0,0.0,0.0,0.0,0.0,0.0,-8.6297,-8.5306,-8.5783,-8.6628,-8.7435,-8.8243,-8.9307,-9.0519,-9.1803,-9.1803,-9.1803,-9.1803,-9.1803,-9.1803,-9.1803,-9.1803,-9.1803,-9.1803,-9.1803,-9.1803,-9.1803,-8.7142,-8.6995,-8.6995,-8.6995,-8.7655,-8.7949,-8.7142,-8.905,-9.0005,-8.839,-8.9601,-8.9968,-8.8353,-8.8904,-8.9417,-8.9417,-8.9382,-8.9382,-8.9417,-8.8647,-8.7839,0.0,0.0,-8.6628,-8.5857,-8.6628,-8.7031,-8.7031,0.0,0.0,-7.991,-8.0718,-8.3654,-8.8133,-8.7362,-8.6995,-8.6885,-8.5306,-8.5086,-8.5783,-8.5783,-8.5783,-8.5967,-8.7582,-8.8169,-8.828,-8.9087,-8.9345,-8.9345,-8.9345,-8.9345,-8.9088,-8.7509,-8.7031,-8.7031,-8.6995,-8.6995,-8.6995,-8.6995,-8.6995,-8.6811,-8.6004,-8.5783,-8.5783,-8.5783,-8.5783,-8.5783,-8.5783,-8.5159,-8.4609,-8.4646,-8.4646,-8.5159,-8.6738,0.0,0.0,0.0,0.0,0.0,0.0,-8.7876,-8.9308,-8.9308,0.0,0.0,0.0,0.0,0.0,0.0,0.0,0.0,-8.9417,-8.5492,0.0,-8.7031,-8.4646,-8.4242,-8.5783,-8.6628,-8.7435,-8.8243,-8.9858,-9.1033,-9.1803,-9.1803,-9.1803,-9.1803,-9.1803,-9.1803,-9.1803,-9.1803,-9.1803,-9.1803,-9.1803,-9.1803,-9.1803,-8.6848,-8.6554,-8.6518,-8.7619,-8.8023,-8.8316,-8.861,-8.9307,-8.9601,-8.9087,-8.9968,-9.0408,-8.9895,-9.0078,-9.0225,0.0,-9.0739,-9.0812,0.0,-8.9968,-8.9491,-8.8648,-8.8133,-8.7692,-8.7435,-8.7142,-8.6995,-8.6995,0.0,0.0,0.0,-8.6921,-8.7509,-8.7362,-8.7105,-8.6701,-8.6187,-8.6224,-8.6077,-8.5894,-8.6995,-8.7435,-8.7545,-8.861,-8.905,-8.905,-8.9344,-8.9382,-8.9382,-8.9382,-8.9382,-8.9308,-8.883,-8.828,-8.7729,-8.7178,-8.6995,-8.6995,-8.6995,-8.6995,-8.6958,-8.6701,-8.6628,-8.6481,-8.593,-8.538,-8.5123,-8.5673,-8.5159,-8.4756,-8.5306,-8.4976,-8.4609,-8.4572,-8.4132,0.0,0.0,0.0,0.0,0.0,-8.5343,-8.6334,0.0,-8.916,0.0,0.0,0.0,0.0,0.0,0.0,0.0,0.0,-8.7692,0.0,-8.9454,-8.6518,-8.5563,-8.6628,-8.6885,-8.8023,-8.9931,-9.2134,-9.3272,-9.3455,-9.2905,-9.3015,-9.3455,-9.2905,-9.3015,-9.3492,-9.3492,-9.3161,-9.2684,-9.2684,-9.2317,-9.1803,-8.7766,-8.7509,-8.7472,-8.85,-8.8647,-8.883,-8.9308,-8.9639,-8.9858,-8.9858,-9.0555,-9.1069,-9.1069,-9.1069,0.0,-9.1069,-9.151,-9.1583,-9.1069,-9.0776,-9.0408,-8.9895,-8.9087,-8.8647,-8.8647,-8.8169,0.0,-8.7472,-8.7655,-8.7766,-8.7766,-8.8793,-8.8463,-8.6995,-8.6701,-8.6591,-8.6701,-8.6921,-8.7068,-8.7252,-8.8243,-8.8647,-8.8757,-8.9564,-8.9858,-8.9895,-9.0188,-9.0298,-9.0298,-9.0298,-9.0298,-9.0262,-8.9968,-8.9528,-8.8867,-8.7802,-8.7472,-8.7399,-8.7105,-8.6995,-8.6995,-8.6995,-8.6995,-8.6885,-8.6371,-8.5637,-8.5196,-8.571,-8.5159,-8.4756,-8.527,-8.4939,-8.4462,-8.3948,-8.3875,-8.3581,-8.2774,0.0,0.0,0.0,0.0,0.0,0.0,-8.8977,0.0,0.0,0.0,0.0,0.0,0.0,0.0,-8.9564,-8.7031,0.0,-8.8793,-8.6481,-8.5894,-8.7031,-8.7912,-8.9491,-9.162,-9.3455,-9.4299,-9.4263,-9.3455,-9.3565,-9.4226,-9.3418,-9.3565,-9.4299,-9.4299,-9.3969,-9.3565,-9.3565,-9.3198,-9.2684,-8.9529,-8.9382,-8.9419,-8.9455,-8.9455,-8.9528,-8.9564,-9.0225,-9.0702,-9.0702,-9.1326,-9.1803,-9.1803,-9.1803,-9.1803,-9.1803,0.0,0.0,0.0,-9.1106,-9.0702,-9.0702,-8.9931,-8.9455,-8.9455,-8.9419,-8.905,-8.828,-8.7582,-8.7215,-8.7178,-8.7215,-8.7215,-8.7142,-8.6371,-8.6885,-8.8243,-8.7472,-8.8059,-8.9382,-8.9455,-8.9455,-8.9565,-9.0408,-9.0702,-9.0776,-9.1546,-9.1803,-9.1803,-9.1803,-9.1803,-9.1657,-9.0922,-9.0702,-9.0372,-8.8757,-8.828,-8.8133,-8.7362,-8.7142,-8.7105,-8.7105,-8.7031,-8.6995,-8.6995,-8.6407,-8.5857,-8.5857,-8.5233,-8.4682,-8.4682,-8.4646,-8.4609,-8.4609,-8.4609,-8.4352,-8.3618,0.0,0.0,0.0,0.0,0.0,0.0,-9.0372,-8.9821,0.0,0.0,0.0,0.0,0.0,-8.9931,-8.6004,-8.4425,-8.4389,-8.5857,-8.5123,-8.5563,-8.7215,-8.9564,-9.1546,-9.3198,-9.4079,-9.4446,-9.441,-9.3639,-9.3712,-9.441,-9.3602,-9.3749,-9.4446,-9.4446,-9.441,-9.4373,-9.4373,-9.4336,-9.4189,0.0,0.0,-8.9601,-9.0225,-9.0335,-9.0519,-9.1143,-9.14,-9.151,-9.151,-9.1693,-9.1803,-9.1803,-9.1803,-9.1803,-9.1803,-9.1803,-9.1803,-9.1803,-9.162,-9.151,-9.151,-9.0739,-9.0335,-9.0335,-8.9711,-8.9344,-8.9124,-8.9564,-8.9454,-8.8867,-8.9454,-8.9417,-8.883,-8.8647,-8.8757,-8.9124,-8.894,-8.9015,-8.9419,-9.0078,-9.0335,-9.0408,-9.1216,-9.151,-9.1546,-9.173,-9.1803,-9.1803,-9.1803,-9.1803,-9.1767,-9.1583,-9.151,-9.1216,-8.9601,-8.9124,-8.9087,-8.8904,-8.839,-8.7912,-8.7912,-8.7472,-8.6995,-8.6995,-8.6848,-8.6738,-8.6738,-8.6077,-8.5527,-8.5527,-8.5013,-8.4609,-8.4609,-8.4609,-8.4535,-8.4352,-8.4499,0.0,0.0,-8.6261,-8.6775,-8.7766,-8.7876,-8.872,0.0,0.0,0.0,0.0,-9.1179,-8.9601,-8.6811,-8.6371,-8.6334,-8.6701,-8.6554,-8.7252,-8.8867,-9.0665,-9.2391,-9.4042,-9.5474,-9.6135,-9.6098,-9.529,-9.5401,-9.6061,-9.5254,-9.5401,-9.6135,-9.6135,-9.5768,-9.5217,-9.5217,-9.4813,-9.4263,-9.0592,-9.0519,-9.0629,-9.1069,-9.1143,-9.1289,-9.173,-9.1803,-9.195,-9.2354,-9.206,-9.195,-9.2354,-9.2024,-9.195,-9.2354,-9.2024,-9.1803,-9.1803,-9.1803,-9.1803,-9.1803,-9.1363,-9.1143,-9.1143,-9.0739,-9.0335,-8.9968,-9.0041,-8.9858,-8.9382,-8.9858,-8.9821,-8.9382,-8.9382,-8.9565,-8.9968,-8.9968,-9.0188,-9.0555,-9.0959,-9.1143,-9.1216,-9.162,-9.1803,-9.1803,-9.1803,-9.1803,-9.1803,-9.1803,-9.1803,-9.1803,-9.1803,-9.1803,-9.162,-9.0739,-9.0262,-8.9895,-8.9528,-8.9087,-8.8683,-8.828,-8.7876,-8.7472,-8.7105,-8.6995,-8.6995,-8.6995,-8.6664,-8.6334,-8.6334,-8.6004,-8.56,-8.5196,-8.4829,-8.4462,-8.4095,-8.4058,-8.4205,-8.4646,-8.5343,-8.5967,-8.6407,-8.6775,-8.7766,-8.9528,-8.9234,0.0,-9.0262,-8.9454,-8.8536,-8.7582,-8.7215,-8.6995,-8.6995,-8.7729,-8.894,-9.0555,-9.217,-9.3786,-9.5437,-9.6282,-9.6502,-9.6135,-9.5694,-9.5768,-9.6135,-9.5694,-9.5988,-9.6685,-9.6685,-9.6428,-9.6061,-9.6061,-9.5768,-9.5327,-9.217,-9.1987,-9.195,-9.1803,-9.1803,-9.184,-9.1987,-9.1877,-9.217,-9.3161,-9.2537,-9.2317,-9.3198,-9.2611,-9.2464,-9.3235,-9.2611,-9.217,-9.217,-9.217,-9.217,-9.217,-9.217,-9.217,-9.217,-9.206,-9.1657,-9.0996,-9.0188,-8.9784,-8.9784,-8.9784,-8.9784,-8.9784,-8.9784,-9.0152,-9.0776,-9.0776,-9.1179,-9.1803,-9.1803,-9.1803,-9.1803,-9.1803,-9.1803,-9.1803,-9.1803,-9.1803,-9.1803,-9.1803,-9.1803,-9.1803,-9.1803,-9.1803,-9.1803,-9.1803,-9.1326,-9.0629,-8.9968,-8.9674,-8.9417,-8.8573,-8.839,-8.8206,-8.7545,-8.7288,-8.7178,-8.7178,-8.7105,-8.6995,-8.6995,-8.6995,-8.6995,-8.6921,-8.571,-8.4756,-8.4682,0.0,-8.3765,-8.3765,-8.5086,-8.5967,-8.5967,-8.6591,-8.7068,-8.7178,-8.7068,-8.7105,-8.7362,-8.7142,-8.7435,-8.8353,-8.7472,-8.7068,-8.7178,-8.8683,-9.0298,-9.2097,-9.3565,-9.5144,-9.6685,-9.6685,-9.6282,-9.5511,-9.5511,-9.5511,-9.5511,-9.5511,-9.5988,-9.6685,-9.6685,-9.6685,-9.6685,-9.6685,-9.6685,-9.6612,-9.3051,-9.2905,-9.2684,-9.1913,-9.1803,-9.206,-9.2794,-9.2281,-9.2354,-9.3896,-9.3418,-9.3198,-9.4006,-9.3969,-9.3969,-9.4079,-9.3969,-9.3896,-9.3896,-9.3896,-9.3896,-9.3896,-9.3896,-9.3896,-9.3896,-9.3235,-9.2831,-9.2721,-9.184,-9.1436,-9.1436,-9.1436,-9.1436,-9.1436,-9.1436,-9.151,-9.162,-9.162,-9.1693,-9.1803,-9.1803,-9.1803,-9.1803,-9.1803,-9.1803,-9.1803,-9.1803,-9.1803,-9.1803,-9.1803,-9.1803,-9.1803,-9.1803,-9.1803,-9.1803,-9.1803,-9.1693,-9.1583,-9.1473,-9.0922,-9.0225,-8.9417,-8.9234,-8.9197,-8.9087,-8.85,-8.8023,-8.8023,-8.7472,-8.6995,-8.6995,-8.6995,-8.8096,-9.1436,-8.839,-8.6738,-9.0041,0.0,-8.5416,-8.5416,-8.6261,-8.6811,-8.6811,-8.6921,-8.7288,-8.7949,-8.7399,-8.7619,-8.8977,-8.7766,-8.7692,-8.9197,-8.7802,-8.7325,-8.8023,-8.894,-9.0592,-9.2941,-9.3859,-9.5144,-9.6685,-9.6685,-9.6282,-9.5511,-9.5511,-9.5511,-9.5511,-9.5511,-9.5988,-9.6685,-9.6685,-9.6685,-9.6685,-9.6685,-9.6685,-9.6685,-9.3896,-9.3749,-9.3492,-9.2648,-9.2501,-9.2464,-9.2391,-9.2464,-9.2941,-9.4116,-9.3969,-9.4042,-9.485,-9.4556,-9.4483,-9.4923,-9.496,-9.5144,-9.5547,-9.4777,-9.4299,-9.4299,-9.4299,-9.4299,-9.4299,-9.3932,-9.3749,-9.3749,-9.3345,-9.3125,-9.3125,-9.3125,-9.3125,-9.3125,-9.3125,-9.3125,-9.3125,-9.3125,-9.3125,-9.3125,-9.3125,-9.3125,-9.3125,-9.3125,-9.3125,-9.3088,-9.2648,-9.2501,-9.2427,-9.195,-9.1803,-9.1803,-9.1803,-9.1803,-9.1803,-9.1803,-9.1803,-9.1803,-9.1803,-9.1546,-9.1069,-9.0262,-9.0078,-8.9931,-8.9528,-8.9124,-8.8867,-8.8867,-8.8573,-8.8316,-8.8316,-8.8316,-8.8793,-9.0225,-8.8573,-8.7582,-8.9014,-8.7986,-8.7068,-8.7068,-8.7802,-8.8316,-8.8316,-8.8316,-8.8463,-8.883,-8.85,-8.8611,-8.9345,-8.8685,-8.8647,-8.9345,-8.8683,-8.8683,-8.9491,-9.0776,-9.217,-9.3749,-9.4556,-9.5547,-9.6685,-9.5804,-9.5437,-9.5474,-9.5034,-9.5107,-9.5511,-9.5511,-9.5988,-9.6685,-9.6685,-9.6685,-9.6685,-9.6685,-9.6685,-9.6685,-9.474,-9.4593,-9.4336,-9.3529,-9.3382,-9.3235,-9.2721,-9.3088,-9.3749,-9.474,-9.485,-9.5107,-9.5731,-9.5401,-9.529,-9.5768,-9.5804,-9.6061,-9.6649,-9.5547,-9.485,-9.485,-9.485,-9.485,-9.485,-9.4666,-9.4593,-9.4593,-9.4373,-9.4299,-9.4299,-9.4299,-9.4299,-9.4299,-9.4299,-9.4299,-9.4299,-9.4299,-9.4299,-9.4299,-9.4299,-9.4299,-9.4299,-9.4299,-9.4299,-9.4226,-9.3602,-9.3382,-9.3235,-9.2391,-9.2097,-9.206,-9.184,-9.1803,-9.1803,-9.1803,-9.1803,-9.1803,-9.1803,-9.1803,-9.1657,-9.1033,-9.0886,-9.0739,-9.0115,-8.9821,-8.9711,-8.9711,-8.9564,-8.9382,-8.9382,-8.9382,-8.9528,-8.9821,-8.894,-8.839,-8.8904,-8.8536,-8.828,-8.8463,-8.905,-8.9382,-8.9382,-8.9382,-8.9382,-8.9382,-8.9382,-8.9382,-8.9382,-8.9382,-8.9455,-8.9674,-8.9528,-8.9895,-9.0886,-9.2354,-9.3602,-9.4593,-9.5401,-9.6098,-9.6649,-9.5401,-9.5107,-9.5474,-9.4666,-9.4666,-9.5217,-9.5034,-9.5437,-9.6171,-9.6355,-9.6428,-9.6428,-9.6649,-9.6685,-9.6685,-9.5584,-9.5437,-9.518,-9.4336,-9.4189,-9.4446,-9.5144,-9.4666,-9.4777,-9.6318,-9.6502,-9.6539,-9.6612,-9.7199,-9.7346,-9.6685,-9.6612,-9.6649,-9.6685,-9.6575,-9.6502,-9.6502,-9.6502,-9.6502,-9.6502,-9.5804,-9.5437,-9.5437,-9.4666,-9.4299,-9.4299,-9.4299,-9.4299,-9.4299,-9.4299,-9.4299,-9.4299,-9.4299,-9.4299,-9.4299,-9.4299,-9.4299,-9.4299,-9.4299,-9.4299,-9.4299,-9.4226,-9.4189,-9.4079,-9.3272,-9.3015,-9.2868,-9.206,-9.1803,-9.1803,-9.1803,-9.1803,-9.1803,-9.1803,-9.1803,-9.1803,-9.173,-9.1693,-9.1693,-9.1657,-9.1069,-9.0519,-9.0519,-8.9931,-8.9382,-8.9382,-8.9382,-9.0629,-9.4336,-9.1143,-8.9748,-9.4226,-9.0996,-8.85,-8.9198,-8.9345,-8.9382,-8.9382,-8.9382,-8.9382,-8.9382,-8.9382,-8.9382,-8.9382,-8.9382,-8.9748,-9.0482,-8.9821,-9.0152,-9.1693,-9.2648,-9.3896,-9.5437,-9.6245,-9.6649,-9.6685,-9.6575,-9.6171,-9.5474,-9.4666,-9.4336,-9.4336,-9.3565,-9.3749,-9.4556,-9.529,-9.5584,-9.5694,-9.6428,-9.6685,-9.6685,-9.6318,-9.6245,-9.5988,-9.518,-9.5034,-9.4997,-9.4777,-9.4923,-9.5254,-9.5878,-9.6795,-9.7419,-9.7419,-9.7713,-9.7787,-9.7456,-9.6979,-9.6685,-9.6685,-9.6685,-9.6685,-9.6685,-9.6685,-9.6685,-9.6685,-9.6392,-9.6245,-9.6245,-9.5951,-9.5804,-9.5804,-9.5804,-9.5804,-9.5804,-9.5804,-9.5804,-9.5804,-9.5804,-9.5804,-9.5804,-9.5804,-9.5804,-9.5804,-9.5804,-9.5804,-9.5731,-9.5217,-9.5034,-9.4923,-9.4116,-9.3822,-9.3712,-9.2868,-9.2611,-9.2501,-9.195,-9.1803,-9.1803,-9.1803,-9.1803,-9.1803,-9.1803,-9.1803,-9.1803,-9.1803,-9.1546,-9.1326,-9.1326,-9.1106,-9.0886,-9.0886,-9.0886,-9.1253,-9.2281,-9.1326,-9.0922,-9.2281,-9.1289,-9.0555,-9.0849,-9.0886,-9.0886,-9.0886,-9.0886,-9.0886,-9.0886,-9.0886,-9.0886,-9.0886,-9.0886,-9.1289,-9.2134,-9.1877,-9.2244,-9.3345,-9.4189,-9.4923,-9.5511,-9.529,-9.5474,-9.5914,-9.4923,-9.485,-9.5474,-9.4666,-9.4299,-9.4263,-9.3969,-9.4336,-9.507,-9.5401,-9.5804,-9.6282,-9.6575,-9.6685,-9.6685,-9.6685,-9.6685,-9.6539,-9.5988,-9.5878,-9.5694,-9.5144,-9.5511,-9.5878,-9.5878,-9.7273,-9.819,-9.7933,-9.8117,-9.8154,-9.7897,-9.7163,-9.6685,-9.6685,-9.6685,-9.6685,-9.6685,-9.6685,-9.6685,-9.6685,-9.6685,-9.6685,-9.6685,-9.6685,-9.6685,-9.6685,-9.6685,-9.6685,-9.6685,-9.6685,-9.6685,-9.6685,-9.6685,-9.6685,-9.6685,-9.6685,-9.6685,-9.6685,-9.6685,-9.6685,-9.6649,-9.6061,-9.5878,-9.5768,-9.496,-9.4666,-9.4556,-9.3749,-9.3308,-9.2978,-9.2391,-9.2024,-9.1803,-9.1803,-9.1803,-9.1803,-9.1803,-9.1803,-9.1803,-9.1803,-9.1803,-9.1803,-9.1803,-9.1803,-9.1803,-9.1803,-9.1803,-9.162,-9.1069,-9.1436,-9.162,-9.1069,-9.1436,-9.1803,-9.1803,-9.1803,-9.1803,-9.1803,-9.1803,-9.1803,-9.1803,-9.1803,-9.1803,-9.1803,-9.206,-9.2464,-9.3088,-9.3602,-9.4116,-9.4666,-9.5217,-9.5658,-9.5878,-9.5327,-9.5327,-9.5841,-9.474,-9.485,-9.5841,-9.5034,-9.452,-9.4299,-9.4299,-9.4483,-9.4813,-9.5327,-9.5841,-9.6355,-9.6612,-9.6685,-9.6685,-9.6685,-9.6685,-9.6685,-9.6685,-9.6685,-9.6685,-9.6685,-9.6685,-9.6685,-9.6685,-9.8117,-9.8814,-9.8007,-9.8631,-9.8778,-9.797,-9.7163,-9.6722,-9.6685,-9.6685,-9.6685,-9.6685,-9.6685,-9.6685,-9.6685,-9.6685,-9.6685,-9.6685,-9.6685,-9.6685,-9.6685,-9.6685,-9.6685,-9.6685,-9.6685,-9.6685,-9.6685,-9.6685,-9.6685,-9.6685,-9.6685,-9.6685,-9.6685,-9.6685,-9.6685,-9.6685,-9.6685,-9.6685,-9.6575,-9.5804,-9.5511,-9.5364,-9.4556,-9.3749,-9.3125,-9.3125,-9.2501,-9.1803,-9.1803,-9.1803,-9.1803,-9.1803,-9.1803,-9.1803,-9.1803,-9.1803,-9.1803,-9.1803,-9.1803,-9.1803,-9.1803,-9.1803,-9.1803,-9.1803,-9.1803,-9.1803,-9.1803,-9.1803,-9.1803,-9.1803,-9.1803,-9.1803,-9.1803,-9.1803,-9.1803,-9.1803,-9.1803,-9.1803,-9.1803,-9.2648,-9.3125,-9.3125,-9.4666,-9.5511,-9.5511,-9.5511,-9.5914,-9.6685,-9.6685,-9.6685,-9.6685,-9.6685,-9.6685,-9.6649,-9.5878,-9.507,-9.4299,-9.4299,-9.3822,-9.3272,-9.4887,-9.5511,-9.5621,-9.6428,-9.6685,-9.6685,-9.6685,-9.6685,-9.6685,-9.6685,-9.6685,-9.6685,-9.6685,-9.6685,-9.6685,-9.6685,-9.8117,-9.9035,-9.8778,-9.9475,-9.9622,-9.8814,-9.8007,-9.7309,-9.6722,-9.6685,-9.6685,-9.6685,-9.6685,-9.6685,-9.6685,-9.6685,-9.6685,-9.6685,-9.6685,-9.6685,-9.6685,-9.6685,-9.6685,-9.6685,-9.6685,-9.6685,-9.6685,-9.6685,-9.6685,-9.6685,-9.6685,-9.6685,-9.6685,-9.6685,-9.6685,-9.6685,-9.6685,-9.6685,-9.6649,-9.6428,-9.6355,-9.6208,-9.5401,-9.4593,-9.3932,-9.3932,-9.3345,-9.2721,-9.2721,-9.2281,-9.1803,-9.1803,-9.1803,-9.1803,-9.1803,-9.1803,-9.1803,-9.1803,-9.1803,-9.1803,-9.1803,-9.1803,-9.1803,-9.1803,-9.1803,-9.1803,-9.1803,-9.1803,-9.1803,-9.1803,-9.1803,-9.1803,-9.1803,-9.1803,-9.1803,-9.1803,-9.1803,-9.206,-9.2684,-9.2978,-9.3639,-9.4777,-9.5254,-9.5768,-9.6355,-9.6355,-9.6171,-9.5878,-9.5878,-9.5878,-9.5878,-9.5878,-9.5878,-9.5878,-9.6208,-9.5584,-9.4336,-9.4923,-9.4997,-9.485,-9.5327,-9.5841,-9.6392,-9.6612,-9.6685,-9.6685,-9.6685,-9.6685,-9.6685,-9.6685,-9.6685,-9.6685,-9.6685,-9.6685,-9.6685,-9.6685,-9.8117,-9.9108,-9.9108,-9.9805,-10.0099,-9.9622,-9.8557,-9.7566,-9.6759,-9.6685,-9.6685,-9.6685,-9.6685,-9.6685,-9.6685,-9.6685,-9.6685,-9.6685,-9.6685,-9.6685,-9.6685,-9.6685,-9.6685,-9.6685,-9.6685,-9.6685,-9.6685,-9.6685,-9.6685,-9.6685,-9.6685,-9.6685,-9.6685,-9.6685,-9.6685,-9.6685,-9.6685,-9.6685,-9.6685,-9.6685,-9.6685,-9.6612,-9.6135,-9.5437,-9.4777,-9.4777,-9.4189,-9.3565,-9.3565,-9.2941,-9.2317,-9.2317,-9.206,-9.1803,-9.1803,-9.1803,-9.1803,-9.1803,-9.1803,-9.1803,-9.1803,-9.1803,-9.1803,-9.1803,-9.1803,-9.1803,-9.1803,-9.1803,-9.1803,-9.1803,-9.1803,-9.1803,-9.1803,-9.1803,-9.1803,-9.1803,-9.1803,-9.217,-9.3051,-9.3418,-9.4189,-9.5474,-9.5804,-9.6208,-9.6685,-9.6685,-9.6465,-9.5988,-9.5988,-9.5988,-9.5988,-9.5988,-9.5988,-9.6025,-9.6502,-9.5988,-9.485,-9.5658,-9.5804,-9.5547,-9.5878,-9.6282,-9.6685,-9.6685,-9.6685,-9.6685,-9.6795,-9.6759,-9.6685,-9.6685,-9.6685,-9.6685,-9.6685,-9.6685,-9.6685,-9.6685,-9.8117,-9.9108,-9.9108,-9.9879,-10.0393,-10.0283,-9.8888,-9.7676,-9.6979,-9.6906,-9.6869,-9.6795,-9.6795,-9.6759,-9.6685,-9.6685,-9.6685,-9.6685,-9.6685,-9.6685,-9.6685,-9.6685,-9.6685,-9.6685,-9.6685,-9.6685,-9.6685,-9.6685,-9.6685,-9.6685,-9.6685,-9.6685,-9.6685,-9.6685,-9.6685,-9.6685,-9.6685,-9.6685,-9.6685,-9.6685,-9.6685,-9.6685,-9.6685,-9.6208,-9.5621,-9.5621,-9.5034,-9.441,-9.441,-9.3822,-9.3198,-9.3198,-9.2574,-9.1913,-9.1803,-9.1803,-9.1803,-9.1803,-9.1803,-9.1803,-9.1803,-9.1803,-9.1803,-9.1803,-9.1803,-9.1803,-9.1803,-9.1803,-9.1803,-9.1803,-9.1803,-9.1803,-9.1803,-9.1803,-9.1803,-9.1803,-9.1803,-9.2207,-9.3161,-9.3896,-9.4703,-9.5584,-9.6318,-9.6685,-9.6685,-9.6685,-9.6685,-9.6685,-9.6685,-9.6685,-9.6685,-9.6685,-9.6685,-9.6685,-9.6685,-9.6282,-9.5658,-9.6392,-9.6282,-9.5694,-9.6428,-9.6685,-9.6685,-9.6685,-9.6685,-9.6685,-9.764,-9.7126,-9.6685,-9.6685,-9.6685,-9.6685,-9.6685,-9.6685,-9.6685,-9.6685,-9.8117,-9.9108,-9.9108,-10.0393,-10.098,-10.0393,-9.9402,-9.8778,-9.8594,-9.8594,-9.83,-9.7676,-9.764,-9.7346,-9.6722,-9.6685,-9.6685,-9.6685,-9.6685,-9.6685,-9.6685,-9.6685,-9.6685,-9.6685,-9.6685,-9.6685,-9.6685,-9.6685,-9.6685,-9.6685,-9.6685,-9.6685,-9.6685,-9.6685,-9.6685,-9.6685,-9.6685,-9.6685,-9.6685,-9.6685,-9.6685,-9.6685,-9.6685,-9.6575,-9.6428,-9.6428,-9.5878,-9.5254,-9.5254,-9.4666,-9.4042,-9.4042,-9.3418,-9.2648,-9.195,-9.1803,-9.1803,-9.1803,-9.1803,-9.1803,-9.1803,-9.1803,-9.1803,-9.1803,-9.1803,-9.1803,-9.1803,-9.1803,-9.1803,-9.1803,-9.1803,-9.1803,-9.1803,-9.1803,-9.1803,-9.1803,-9.1803,-9.2464,-9.3969,-9.4189,-9.496,-9.6392,-9.6612,-9.6685,-9.6685,-9.6685,-9.6685,-9.6685,-9.6685,-9.6685,-9.6685,-9.6685,-9.6685,-9.6685,-9.6685,-9.6612,-9.6465,-9.6649,-9.6612,-9.6465,-9.6649,-9.6685,-9.6685,-9.6685,-9.6685,-9.6685,-9.8484,-9.7823,-9.7273,-9.7273,-9.6942,-9.6685,-9.6685,-9.6685,-9.6685,-9.6685,-9.7787,-9.8668,-9.9071,-10.0209,-10.0796,-10.0319,-9.9916,-9.9512,-9.9145,-9.9108,-9.8924,-9.8484,-9.8484,-9.8264,-9.786,-9.786,-9.7456,-9.6685,-9.6685,-9.6685,-9.6685,-9.6685,-9.6685,-9.6685,-9.6685,-9.6685,-9.6685,-9.6685,-9.6685,-9.6685,-9.6685,-9.6685,-9.6685,-9.6685,-9.6685,-9.6685,-9.6685,-9.6685,-9.6685,-9.6685,-9.6685,-9.6685,-9.6685,-9.6685,-9.6685,-9.6685,-9.6392,-9.6061,-9.6061,-9.5511,-9.4887,-9.4887,-9.4263,-9.3455,-9.2611,-9.2097,-9.1803,-9.1803,-9.1803,-9.1803,-9.1803,-9.1803,-9.1803,-9.1803,-9.1803,-9.1803,-9.1803,-9.1803,-9.1803,-9.1803,-9.1803,-9.1803,-9.1803,-9.1803,-9.1803,-9.1803,-9.217,-9.2978,-9.4226,-9.4666,-9.5437,-9.6649,-9.6685,-9.6685,-9.6685,-9.6685,-9.6685,-9.6685,-9.6685,-9.6685,-9.6685,-9.6685,-9.6685,-9.6685,-9.6685,-9.6685,-9.6685,-9.6685,-9.6685,-9.6685,-9.6685,-9.6685,-9.6685,-9.6685,-9.6685,-9.6685,-9.9328,-9.8668,-9.8117,-9.8117,-9.7566,-9.7052,-9.6942,-9.6906,-9.6869,-9.6722,-9.7383,-9.8154,-9.8814,-9.9732,-10.0393,-10.0503,-10.0503,-10.0209,-9.9548,-9.9512,-9.9512,-9.9512,-9.9512,-9.9475,-9.9328,-9.9438,-9.8741,-9.7126,-9.7126,-9.7126,-9.7126,-9.6979,-9.6906,-9.6906,-9.6759,-9.6685,-9.6685,-9.6685,-9.6685,-9.6685,-9.6685,-9.6685,-9.6685,-9.6685,-9.6685,-9.6685,-9.6685,-9.6685,-9.6685,-9.6685,-9.6685,-9.6685,-9.6685,-9.6685,-9.6685,-9.6685,-9.6685,-9.6685,-9.6685,-9.6208,-9.5731,-9.5731,-9.5107,-9.4336,-9.3675,-9.2758,-9.1987,-9.184,-9.1803,-9.1803,-9.1803,-9.1803,-9.1803,-9.1803,-9.1803,-9.1803,-9.1803,-9.1803,-9.1803,-9.1803,-9.1803,-9.1803,-9.1803,-9.1803,-9.1803,-9.1803,-9.2611,-9.3455,-9.4263,-9.507,-9.5878,-9.6685,-9.6685,-9.6685,-9.6685,-9.6685,-9.6685,-9.6685,-9.6685,-9.6685,-9.6685,-9.6685,-9.6685,-9.6685,-9.6685,-9.6685,-9.6685,-9.6685,-9.6685,-9.6685,-9.6685,-9.6685,-9.6685,-9.6685,-9.6685,-9.6685,-10.0099,-9.9475,-9.8961,-9.8961,-9.8851,-9.8557,-9.7823,-9.775,-9.7493,-9.6795,-9.7383,-9.7933,-9.8043,-9.9402,-10.0576,-10.1274,-10.131,-10.1274,-10.12,-10.12,-10.12,-10.12,-10.12,-10.0796,-10.0209,-10.0796,-10.0393,-9.8778,-9.8778,-9.8778,-9.8778,-9.8043,-9.775,-9.7713,-9.7016,-9.6685,-9.6685,-9.6685,-9.6685,-9.6685,-9.6685,-9.6685,-9.6685,-9.6685,-9.6685,-9.6685,-9.6685,-9.6685,-9.6685,-9.6685,-9.6685,-9.6685,-9.6685,-9.6685,-9.6685,-9.6685,-9.6685,-9.6685,-9.6685,-9.6612,-9.6539,-9.6539,-9.5951,-9.5327,-9.5217,-9.4006,-9.2721,-9.195,-9.1803,-9.1803,-9.1803,-9.1803,-9.1803,-9.1803,-9.1803,-9.1803,-9.1803,-9.1803,-9.1803,-9.1803,-9.1803,-9.1803,-9.1803,-9.1803,-9.1803,-9.1803,-9.2611,-9.3455,-9.4263,-9.507,-9.5878,-9.6685,-9.6685,-9.6685,-9.6685,-9.6685,-9.6685,-9.6685,-9.6685,-9.6685,-9.6685,-9.6685,-9.6685,-9.6685,-9.6685,-9.6685,-9.6685,-9.6685,-9.6685,-9.6685,-9.6685,-9.6685,-9.6685,-9.6685,-9.6685,-9.6685,-10.098,-10.0319,-9.9769,-9.9769,-9.9402,-9.8998,-9.8631,-9.8557,-9.8264,-9.7456,-9.7676,-9.7897,-9.7897,-9.8924,-9.9952,-10.0796,-10.0796,-10.098,-10.1494,-10.1898,-10.2191,-10.2191,-10.2595,-10.2705,-10.2301,-10.2191,-10.1788,-10.1127,-10.0686,-10.0393,-10.0393,-10.0099,-9.9659,-9.9218,-9.8851,-9.8447,-9.8043,-9.8043,-9.7787,-9.7346,-9.7346,-9.7089,-9.6685,-9.6685,-9.6685,-9.6685,-9.6685,-9.6685,-9.6685,-9.6685,-9.6685,-9.6685,-9.6685,-9.6685,-9.6685,-9.6685,-9.6685,-9.6685,-9.6685,-9.6685,-9.6685,-9.6685,-9.6428,-9.6061,-9.5621,-9.496,-9.4079,-9.2794,-9.2537,-9.2391,-9.1877,-9.1803,-9.1803,-9.1803,-9.1803,-9.1803,-9.1803,-9.1803,-9.1803,-9.1803,-9.1803,-9.1987,-9.2464,-9.2537,-9.2721,-9.3161,-9.3969,-9.4593,-9.496,-9.5731,-9.6318,-9.6685,-9.6685,-9.6685,-9.6685,-9.6685,-9.6685,-9.6685,-9.6685,-9.6685,-9.6685,-9.6685,-9.6685,-9.6685,-9.6685,-9.6685,-9.6685,-9.6685,-9.6685,-9.6685,-9.6685,-9.6685,-9.6685,-9.6685,-9.6685,-9.6685]},{"header":{"parameterUnit":"m.s-1","parameterCategory":1,"la1":30.6,"la2":28.766,"lo1":-90.7593,"lo2":-88.6598,"dx":0.0162,"dy":0.0183,"nx":116,"ny":114,"refTime":"2023-01-11T06:00:00:Z","depth":0,"parameterNumber":3,"parameterNumberName":"V-component_of_WINDS"},"data":[0.0,0.0,0.0,0.0,0.0,0.0,0.0,0.0,0.0,0.0,0.0,0.0,0.0,0.0,0.0,0.0,0.0,0.0,0.0,0.0,0.0,0.0,0.0,0.0,0.0,0.0,0.0,0.0,0.0,0.0,0.0,0.0,0.0,0.0,0.0,0.0,0.0,0.0,0.0,0.0,0.0,0.0,0.0,0.0,0.0,0.0,0.0,0.0,0.0,0.0,0.0,0.0,0.0,0.0,0.0,0.0,0.0,0.0,0.0,0.0,0.0,0.0,0.0,0.0,0.0,0.0,0.0,0.0,0.0,0.0,0.0,0.0,0.0,0.0,0.0,0.0,0.0,0.0,0.0,0.0,0.0,0.0,0.0,0.0,0.0,0.0,0.0,0.0,0.0,0.0,0.0,0.0,0.0,0.0,0.0,0.0,0.0,0.0,0.0,0.0,0.0,0.0,0.0,0.0,0.0,0.0,0.0,0.0,0.0,0.0,0.0,0.0,0.0,0.0,0.0,0.0,0.0,0.0,0.0,0.0,0.0,0.0,0.0,0.0,0.0,0.0,0.0,0.0,0.0,0.0,0.0,0.0,0.0,0.0,0.0,0.0,0.0,0.0,0.0,0.0,0.0,0.0,0.0,0.0,0.0,0.0,0.0,0.0,0.0,0.0,0.0,0.0,0.0,0.0,0.0,0.0,0.0,0.0,0.0,0.0,0.0,0.0,0.0,0.0,0.0,0.0,0.0,0.0,0.0,0.0,0.0,0.0,0.0,0.0,0.0,0.0,0.0,0.0,0.0,0.0,0.0,0.0,0.0,0.0,0.0,0.0,0.0,0.0,0.0,0.0,0.0,0.0,0.0,0.0,0.0,0.0,0.0,0.0,0.0,0.0,0.0,0.0,0.0,0.0,0.0,0.0,0.0,0.0,0.0,0.0,0.0,0.0,0.0,0.0,0.0,0.0,0.0,0.0,0.0,0.0,0.0,0.0,0.0,0.0,0.0,0.0,0.0,0.0,0.0,0.0,0.0,0.0,0.0,0.0,0.0,0.0,0.0,0.0,0.0,0.0,0.0,0.0,0.0,0.0,0.0,0.0,0.0,0.0,0.0,0.0,0.0,0.0,0.0,0.0,0.0,0.0,0.0,0.0,0.0,0.0,0.0,0.0,0.0,0.0,0.0,0.0,0.0,0.0,0.0,0.0,0.0,0.0,0.0,0.0,0.0,0.0,0.0,0.0,0.0,0.0,0.0,0.0,0.0,0.0,0.0,0.0,0.0,0.0,0.0,0.0,0.0,0.0,0.0,0.0,0.0,0.0,0.0,0.0,0.0,0.0,0.0,0.0,0.0,0.0,0.0,0.0,0.0,0.0,0.0,0.0,0.0,0.0,0.0,0.0,0.0,0.0,0.0,0.0,0.0,0.0,0.0,0.0,0.0,0.0,0.0,0.0,0.0,0.0,0.0,0.0,0.0,0.0,0.0,0.0,0.0,0.0,0.0,0.0,0.0,0.0,0.0,0.0,0.0,0.0,0.0,0.0,0.0,0.0,0.0,0.0,0.0,0.0,0.0,0.0,0.0,0.0,0.0,0.0,0.0,0.0,0.0,0.0,0.0,0.0,0.0,0.0,0.0,0.0,0.0,0.0,0.0,0.0,0.0,0.0,0.0,0.0,0.0,0.0,0.0,0.0,0.0,0.0,0.0,0.0,0.0,0.0,0.0,0.0,0.0,0.0,0.0,0.0,0.0,0.0,0.0,0.0,0.0,0.0,0.0,0.0,0.0,0.0,0.0,0.0,0.0,0.0,0.0,0.0,0.0,0.0,0.0,0.0,0.0,0.0,0.0,0.0,0.0,0.0,0.0,0.0,0.0,0.0,0.0,0.0,0.0,0.0,0.0,0.0,0.0,0.0,0.0,0.0,0.0,0.0,0.0,0.0,0.0,0.0,0.0,0.0,0.0,0.0,0.0,0.0,0.0,0.0,0.0,0.0,0.0,0.0,0.0,0.0,0.0,0.0,0.0,0.0,0.0,0.0,0.0,0.0,0.0,0.0,0.0,0.0,0.0,0.0,0.0,0.0,0.0,0.0,0.0,0.0,0.0,0.0,0.0,0.0,0.0,0.0,0.0,0.0,0.0,0.0,0.0,0.0,0.0,0.0,0.0,0.0,0.0,0.0,0.0,0.0,0.0,0.0,0.0,0.0,0.0,0.0,0.0,0.0,0.0,0.0,0.0,0.0,0.0,0.0,0.0,0.0,0.0,0.0,0.0,0.0,0.0,0.0,0.0,0.0,0.0,0.0,0.0,0.0,0.0,0.0,0.0,0.0,0.0,0.0,0.0,0.0,0.0,0.0,0.0,0.0,0.0,0.0,0.0,0.0,0.0,0.0,0.0,0.0,0.0,0.0,0.0,0.0,0.0,0.0,0.0,0.0,0.0,0.0,0.0,0.0,0.0,0.0,0.0,0.0,0.0,0.0,0.0,0.0,0.0,0.0,0.0,0.0,0.0,0.0,0.0,0.0,0.0,0.0,0.0,0.0,0.0,0.0,0.0,0.0,0.0,0.0,0.0,0.0,0.0,0.0,0.0,0.0,0.0,0.0,0.0,0.0,0.0,0.0,0.0,0.0,0.0,0.0,0.0,0.0,0.0,0.0,0.0,0.0,0.0,0.0,0.0,0.0,0.0,0.0,0.0,0.0,0.0,0.0,0.0,0.0,0.0,0.0,0.0,0.0,0.0,0.0,0.0,0.0,0.0,0.0,0.0,0.0,0.0,0.0,0.0,0.0,0.0,0.0,0.0,0.0,0.0,0.0,0.0,0.0,0.0,0.0,0.0,0.0,0.0,0.0,0.0,0.0,0.0,0.0,0.0,0.0,0.0,0.0,0.0,0.0,0.0,0.0,0.0,0.0,0.0,0.0,0.0,0.0,0.0,0.0,0.0,0.0,0.0,0.0,0.0,0.0,0.0,0.0,0.0,0.0,0.0,0.0,0.0,0.0,0.0,0.0,0.0,0.0,0.0,0.0,0.0,0.0,0.0,0.0,0.0,0.0,0.0,0.0,0.0,0.0,0.0,0.0,0.0,0.0,0.0,0.0,0.0,0.0,0.0,0.0,0.0,0.0,0.0,0.0,0.0,0.0,0.0,0.0,0.0,0.0,0.0,0.0,0.0,0.0,0.0,0.0,0.0,0.0,0.0,0.0,0.0,0.0,0.0,0.0,0.0,0.0,0.0,0.0,0.0,0.0,0.0,0.0,0.0,0.0,0.0,0.0,0.0,0.0,0.0,0.0,0.0,0.0,0.0,0.0,0.0,0.0,0.0,0.0,0.0,0.0,0.0,0.0,0.0,0.0,0.0,0.0,0.0,0.0,0.0,0.0,0.0,0.0,0.0,0.0,0.0,0.0,0.0,0.0,0.0,0.0,0.0,0.0,0.0,0.0,0.0,0.0,0.0,0.0,0.0,0.0,0.0,0.0,0.0,0.0,0.0,0.0,0.0,0.0,0.0,0.0,0.0,0.0,0.0,0.0,0.0,0.0,0.0,0.0,0.0,0.0,0.0,0.0,0.0,0.0,0.0,0.0,0.0,0.0,0.0,0.0,0.0,0.0,0.0,0.0,0.0,0.0,0.0,0.0,0.0,0.0,0.0,0.0,0.0,0.0,0.0,0.0,0.0,0.0,0.0,0.0,0.0,0.0,0.0,0.0,0.0,0.0,0.0,0.0,0.0,0.0,0.0,0.0,0.0,0.0,0.0,0.0,0.0,0.0,0.0,0.0,0.0,0.0,0.0,0.0,0.0,0.0,0.0,0.0,0.0,0.0,0.0,0.0,0.0,0.0,0.0,0.0,0.0,0.0,0.0,0.0,0.0,0.0,0.0,0.0,0.0,0.0,0.0,0.0,0.0,0.0,0.0,0.0,0.0,0.0,0.0,0.0,0.0,0.0,0.0,0.0,0.0,0.0,0.0,0.0,0.0,0.0,0.0,0.0,0.0,0.0,0.0,0.0,0.0,0.0,0.0,0.0,0.0,0.0,0.0,0.0,0.0,0.0,0.0,0.0,0.0,0.0,0.0,0.0,0.0,0.0,0.0,0.0,0.0,0.0,0.0,0.0,0.0,0.0,0.0,0.0,0.0,0.0,0.0,0.0,0.0,0.0,0.0,0.0,0.0,0.0,0.0,0.0,0.0,0.0,0.0,0.0,0.0,0.0,0.0,0.0,0.0,0.0,0.0,0.0,0.0,0.0,0.0,0.0,0.0,0.0,0.0,0.0,0.0,0.0,0.0,0.0,0.0,0.0,0.0,0.0,0.0,0.0,0.0,0.0,0.0,0.0,0.0,0.0,0.0,0.0,0.0,0.0,0.0,0.0,0.0,0.0,0.0,0.0,0.0,0.0,0.0,0.0,0.0,0.0,0.0,0.0,0.0,0.0,0.0,0.0,0.0,0.0,0.0,0.0,0.0,0.0,0.0,0.0,0.0,0.0,0.0,0.0,0.0,0.0,0.0,0.0,0.0,0.0,0.0,0.0,0.0,0.0,0.0,0.0,0.0,0.0,0.0,0.0,0.0,0.0,0.0,0.0,0.0,0.0,0.0,0.0,0.0,0.0,0.0,0.0,0.0,0.0,0.0,0.0,0.0,0.0,0.0,0.0,0.0,0.0,0.0,0.0,0.0,0.0,0.0,0.0,0.0,0.0,0.0,0.0,0.0,0.0,0.0,0.0,0.0,0.0,0.0,0.0,0.0,0.0,0.0,0.0,0.0,0.0,0.0,0.0,0.0,0.0,0.0,0.0,0.0,0.0,0.0,0.0,0.0,0.0,0.0,0.0,0.0,0.0,0.0,0.0,0.0,0.0,0.0,0.0,0.0,0.0,0.0,0.0,0.0,0.0,0.0,0.0,0.0,0.0,0.0,0.0,0.0,0.0,0.0,0.0,0.0,0.0,0.0,0.0,0.0,0.0,0.0,0.0,0.0,0.0,0.0,0.0,0.0,0.0,0.0,0.0,0.0,0.0,0.0,0.0,0.0,0.0,0.0,0.0,0.0,0.0,0.0,0.0,0.0,0.0,0.0,0.0,0.0,0.0,0.0,0.0,0.0,0.0,0.0,0.0,0.0,0.0,0.0,0.0,0.0,0.0,0.0,0.0,0.0,0.0,0.0,0.0,0.0,0.0,0.0,0.0,0.0,0.0,0.0,0.0,0.0,0.0,0.0,0.0,0.0,0.0,0.0,0.0,0.0,0.0,0.0,0.0,0.0,0.0,0.0,0.0,0.0,0.0,0.0,0.0,0.0,0.0,0.0,0.0,0.0,0.0,0.0,0.0,0.0,0.0,0.0,0.0,0.0,0.0,0.0,0.0,0.0,0.0,0.0,0.0,0.0,0.0,0.0,0.0,0.0,0.0,0.0,0.0,0.0,0.0,0.0,0.0,0.0,0.0,0.0,0.0,0.0,0.0,0.0,0.0,0.0,0.0,0.0,0.0,0.0,0.0,0.0,0.0,0.0,0.0,0.0,0.0,0.0,0.0,0.0,0.0,0.0,0.0,0.0,0.0,0.0,0.0,0.0,0.0,0.0,0.0,0.0,0.0,0.0,0.0,0.0,0.0,0.0,0.0,0.0,0.0,0.0,0.0,0.0,0.0,0.0,0.0,0.0,0.0,0.0,0.0,0.0,0.0,0.0,0.0,0.0,0.0,0.0,0.0,0.0,0.0,0.0,0.0,0.0,0.0,0.0,0.0,0.0,0.0,0.0,0.0,0.0,0.0,0.0,0.0,0.0,0.0,0.0,0.0,0.0,0.0,0.0,0.0,0.0,0.0,0.0,0.0,0.0,0.0,0.0,0.0,0.0,0.0,0.0,0.0,0.0,0.0,0.0,0.0,0.0,0.0,0.0,0.0,0.0,0.0,0.0,0.0,0.0,0.0,0.0,0.0,0.0,0.0,0.0,0.0,0.0,0.0,0.0,0.0,0.0,0.0,0.0,0.0,0.0,0.0,0.0,0.0,0.0,0.0,0.0,0.0,0.0,0.0,0.0,0.0,0.0,0.0,0.0,0.0,0.0,0.0,0.0,0.0,0.0,0.0,0.0,0.0,0.0,0.0,0.0,0.0,2.2815,0.0,0.0,0.0,0.0,0.0,0.0,0.0,0.0,0.0,0.0,0.0,0.0,0.0,0.0,0.0,0.0,0.0,0.0,0.0,0.0,0.0,0.0,0.0,0.0,0.0,0.0,0.0,0.0,0.0,0.0,0.0,0.0,0.0,0.0,0.0,0.0,0.0,1.6469,1.7374,1.8417,1.9602,2.0801,1.9453,1.8296,1.7266,0.0,0.0,0.0,0.0,0.0,0.0,0.0,0.0,0.0,0.0,0.0,0.0,0.0,0.0,0.0,0.0,0.0,0.0,0.0,0.0,0.0,0.0,0.0,0.0,0.0,0.0,0.0,0.0,0.0,0.0,0.0,0.0,0.0,0.0,0.0,0.0,0.0,0.0,0.0,0.0,0.0,0.0,0.0,0.0,0.0,0.0,0.0,0.0,0.0,0.0,0.0,0.0,0.0,0.0,0.0,0.0,0.0,0.0,0.0,0.0,0.0,0.0,0.0,0.0,0.0,0.0,0.0,0.0,0.0,0.0,0.0,2.4219,0.0,0.0,0.0,0.0,0.0,0.0,0.0,0.0,0.0,0.0,0.0,0.0,0.0,0.0,0.0,0.0,0.0,0.0,0.0,0.0,0.0,0.0,0.0,0.0,0.0,0.0,0.0,0.0,0.0,0.0,0.0,0.0,0.0,0.0,1.6424,1.7455,1.8684,2.0028,2.1507,2.2817,2.3978,2.4314,2.3261,2.1037,1.9199,0.0,0.0,0.0,0.0,0.0,0.0,0.0,0.0,0.0,0.0,0.0,0.0,0.0,0.0,0.0,0.0,0.0,0.0,0.0,0.0,0.0,0.0,0.0,0.0,0.0,0.0,0.0,0.0,0.0,0.0,0.0,0.0,0.0,0.0,0.0,0.0,0.0,0.0,0.0,0.0,0.0,0.0,0.0,0.0,0.0,0.0,0.0,0.0,0.0,0.0,0.0,0.0,0.0,0.0,0.0,0.0,0.0,0.0,0.0,0.0,0.0,0.0,0.0,2.021,2.1464,2.238,2.4402,2.5821,2.6736,2.6982,2.7246,2.7461,2.6221,0.0,0.0,0.0,0.0,0.0,0.0,0.0,0.0,0.0,0.0,0.0,0.0,0.0,0.0,0.0,0.0,0.0,0.0,0.0,0.0,0.0,0.0,0.0,0.0,0.0,0.0,0.0,0.0,0.0,0.0,0.0,1.8595,1.7772,1.9465,2.0975,2.2165,2.6493,2.9033,2.9885,2.9579,2.9057,2.8254,2.4168,2.1697,2.0566,0.0,0.0,0.0,0.0,0.0,0.0,0.0,0.0,0.0,0.0,0.0,0.0,0.0,0.0,0.0,0.0,0.0,0.0,0.0,0.0,0.0,0.0,0.0,0.0,0.0,0.0,0.0,0.0,0.0,0.0,0.0,0.0,0.0,0.0,0.0,0.0,0.0,0.0,0.0,0.0,0.0,2.0642,2.0995,0.0,0.0,0.0,0.0,0.0,0.0,0.0,0.0,0.0,0.0,0.0,0.0,0.0,1.8428,1.8791,2.0814,2.1842,2.1862,2.3736,2.3869,2.2566,2.5874,2.68,2.5836,2.854,0.0,2.7129,2.7656,0.0,0.0,0.0,0.0,0.0,0.0,0.0,0.0,0.0,0.0,0.0,0.0,0.0,0.0,0.0,0.0,0.0,0.0,0.0,0.0,0.0,0.0,0.0,0.0,0.0,0.0,0.0,0.0,0.0,0.0,2.0529,2.1037,2.1632,2.3327,2.5387,2.7836,3.0232,3.1878,3.265,3.1633,3.0925,3.0398,2.7895,2.5503,2.3392,2.2681,0.0,0.0,0.0,0.0,0.0,0.0,0.0,0.0,0.0,0.0,0.0,0.0,0.0,0.0,0.0,0.0,0.0,0.0,0.0,0.0,0.0,0.0,0.0,0.0,0.0,0.0,0.0,0.0,0.0,0.0,0.0,0.0,0.0,0.0,0.0,0.0,0.0,0.0,0.0,2.035,2.0353,2.0475,1.9766,1.8915,0.0,0.0,0.0,0.0,0.0,0.0,0.0,0.0,0.0,1.9052,1.8891,1.9065,1.9653,2.0427,2.0892,2.0988,2.1989,2.2482,2.2543,2.4091,2.4923,2.5126,2.6487,2.7241,2.7529,2.8868,2.9258,2.9062,0.0,0.0,0.0,0.0,2.7285,2.709,0.0,0.0,0.0,0.0,0.0,0.0,0.0,0.0,0.0,0.0,0.0,0.0,1.6351,1.7748,0.0,2.1417,0.0,0.0,0.0,0.0,0.0,0.0,2.3112,2.3596,2.524,2.721,2.9749,3.2849,3.3644,3.4166,3.4416,3.3334,3.2628,3.2227,3.0751,2.8571,2.592,2.5013,2.3828,0.0,0.0,0.0,0.0,0.0,0.0,0.0,0.0,0.0,0.0,0.0,0.0,0.0,0.0,0.0,0.0,0.0,0.0,0.0,0.0,0.0,0.0,0.0,0.0,0.0,0.0,0.0,0.0,0.0,0.0,0.0,0.0,0.0,0.0,0.0,0.0,0.0,0.0,2.105,2.0651,2.0325,1.9857,1.9186,0.0,0.0,0.0,0.0,0.0,0.0,1.8931,1.9212,1.9666,2.0321,1.9853,1.984,2.0334,2.0134,2.0067,2.0134,2.0428,2.1176,2.2323,2.2762,2.3566,2.4619,2.5098,2.6159,2.767,2.9137,3.0065,3.0527,3.041,3.0176,2.9863,2.9551,2.9414,2.9551,0.0,0.0,0.0,0.0,0.0,0.0,0.0,0.0,0.0,0.0,0.0,1.8533,0.0,0.0,2.3514,2.2424,2.3854,2.459,0.0,0.0,0.0,2.5853,2.5985,2.6491,2.7311,3.0476,3.3162,3.5315,3.6964,3.7071,3.5703,3.56,3.56,3.5451,3.2748,3.0248,2.8094,2.7187,2.6582,2.5918,0.0,0.0,0.0,0.0,0.0,0.0,0.0,0.0,0.0,0.0,0.0,0.0,0.0,0.0,0.0,0.0,0.0,0.0,0.0,0.0,0.0,0.0,0.0,0.0,0.0,0.0,0.0,0.0,0.0,0.0,0.0,0.0,0.0,0.0,0.0,0.0,0.0,0.0,0.0,2.1621,2.0735,0.0,0.0,0.0,0.0,1.9336,1.9038,1.9265,2.0047,1.9653,1.976,2.0628,2.0347,2.0347,2.0655,2.0641,2.0775,2.1042,2.1349,2.1547,2.169,2.3472,2.4312,2.4505,2.6104,2.6865,2.7021,2.8033,2.9658,3.1406,3.1016,3.084,3.082,3.0801,3.0801,3.0918,0.0,0.0,0.0,1.2915,1.2915,1.2993,1.3242,1.3633,1.4075,1.4668,1.6908,1.8981,0.0,2.3088,2.5813,2.846,2.9515,3.0167,3.0375,0.0,0.0,2.9524,2.9205,3.0031,3.208,3.3979,3.5852,3.7688,3.8266,3.8491,3.8278,3.6051,3.5024,3.4918,3.1709,2.9873,2.9101,2.9082,2.8496,2.75,2.6309,2.4746,0.0,0.0,0.0,0.0,0.0,0.0,0.0,0.0,0.0,0.0,0.0,0.0,0.0,0.0,0.0,0.0,0.0,0.0,0.0,0.0,0.0,0.0,0.0,0.0,0.0,0.0,0.0,0.0,0.0,0.0,0.0,0.0,0.0,0.0,0.0,0.0,0.0,2.1511,2.1598,0.0,2.0288,2.0134,2.012,2.0201,2.0281,2.0468,2.0775,2.0601,2.0722,2.1293,2.0949,2.0935,2.1306,2.1306,2.136,2.1403,2.1697,2.183,2.1896,2.258,2.2883,2.2883,2.3457,2.4535,2.5742,2.6136,2.7855,3.0217,3.0408,3.1157,3.2187,3.2734,3.293,3.3027,0.0,0.0,0.0,1.2915,1.2915,1.3066,1.3633,1.4055,1.4796,1.6113,1.8629,2.1078,2.3066,2.6086,2.9111,3.191,3.2991,3.3563,3.3627,0.0,0.0,3.1696,3.1859,3.2759,3.4436,3.6079,3.7342,3.8158,3.8331,3.8529,3.8625,3.5511,3.436,3.4687,3.1487,3.026,3.0549,3.0305,2.9629,2.8672,2.8105,2.6758,2.498,0.0,0.0,0.0,0.0,0.0,0.0,0.0,0.0,0.0,0.0,0.0,0.0,0.0,0.0,0.0,0.0,0.0,0.0,0.0,0.0,0.0,0.0,0.0,0.0,0.0,0.0,0.0,0.0,0.0,0.0,0.0,0.0,0.0,0.0,2.3013,2.3183,2.1102,2.1537,2.1661,2.0779,2.0588,2.0655,2.0949,2.1149,2.1349,2.1537,2.1456,2.1537,2.183,2.1563,2.1496,2.1762,2.1762,2.1762,2.1762,2.1991,2.2124,2.2138,2.2231,2.2285,2.2285,2.2285,2.3114,2.4352,2.4352,2.5843,2.8222,2.9183,3.0201,3.131,3.193,3.2116,3.2218,0.0,0.0,1.2915,1.2915,1.2915,1.3184,1.3997,1.4531,1.5586,1.7773,2.1977,2.4864,2.5061,3.0288,3.3365,3.2306,3.3794,3.4299,3.3219,3.3671,0.0,0.0,3.3853,3.4508,3.4087,3.6642,3.7565,3.6692,3.7268,3.7215,3.6611,3.4218,3.3823,3.5101,3.2187,3.1428,3.2253,3.0801,2.9961,2.9492,2.8652,2.8066,2.7552,0.0,0.0,0.0,0.0,0.0,0.0,0.0,0.0,0.0,0.0,0.0,0.0,0.0,0.0,0.0,0.0,0.0,0.0,0.0,0.0,0.0,0.0,0.0,0.0,0.0,0.0,0.0,0.0,0.0,0.0,0.0,0.0,0.0,2.3241,2.3723,2.3378,2.0698,2.0644,2.0998,2.1574,2.1309,2.1269,2.1641,2.1655,2.183,2.2392,2.2151,2.2124,2.2405,2.2151,2.2004,2.2017,2.2017,2.2017,2.2017,2.2298,2.2432,2.2445,2.2726,2.2928,2.2928,2.2928,2.2928,2.2928,2.2928,2.3924,2.5584,2.7453,2.8196,2.8196,2.8196,2.8279,2.846,1.2915,1.2915,1.2915,1.2915,1.3125,1.3613,1.4473,1.4961,1.6133,1.8613,2.0863,2.3528,2.7012,2.9668,3.2133,3.4336,3.5394,3.5604,3.4881,0.0,0.0,0.0,3.4889,3.5454,3.6308,3.6862,3.7015,3.6692,3.7268,3.6902,3.5631,3.3547,3.2775,3.3087,3.0942,3.0145,3.0362,3.0229,2.9961,2.9531,2.8965,2.8496,2.8027,0.0,0.0,0.0,0.0,0.0,0.0,0.0,0.0,0.0,0.0,0.0,0.0,0.0,0.0,0.0,0.0,0.0,0.0,0.0,0.0,0.0,0.0,0.0,0.0,0.0,0.0,0.0,0.0,0.0,0.0,0.0,2.8555,2.859,2.6455,2.6293,2.5867,2.4537,2.3636,2.2773,2.1961,2.1977,2.2178,2.2552,2.2298,2.2245,2.2405,2.2151,2.2124,2.2405,2.2338,2.2405,2.2619,2.2619,2.2619,2.2619,2.2699,2.2739,2.2739,2.2887,2.2928,2.2928,2.2928,2.2928,2.2928,2.2928,2.3201,2.3816,2.5907,2.7554,2.866,2.8975,2.9075,2.9142,1.2915,1.2915,1.2915,1.2915,1.3223,1.3789,1.4676,1.5293,1.6758,0.0,2.1779,2.4585,2.8678,3.088,3.3021,3.5269,3.583,3.578,3.5182,0.0,0.0,0.0,3.5065,3.4949,3.5179,3.6204,3.6407,3.5723,3.5671,3.5722,3.5841,3.3035,3.2081,3.2602,3.0934,3.0019,2.9844,3.0098,2.9961,2.9531,2.9101,2.8769,2.8516,2.8086,2.7519,2.6894,2.6719,2.6328,2.582,2.5391,0.0,0.0,0.0,0.0,0.0,0.0,0.0,0.0,0.0,0.0,0.0,0.0,0.0,0.0,0.0,0.0,0.0,0.0,0.0,0.0,0.0,0.0,0.0,0.0,2.9922,3.0045,2.8801,2.7741,2.6392,2.4531,2.3632,2.2925,2.2204,2.2205,2.2365,2.2659,2.2512,2.2472,2.2592,2.2445,2.2432,2.2605,2.2605,2.2686,2.2928,2.2928,2.2928,2.2928,2.2993,2.306,2.306,2.318,2.3316,2.3316,2.3316,2.3316,2.3316,2.3316,2.3316,0.0,0.0,0.0,0.0,0.0,2.7532,2.8138,1.2915,1.2915,1.2915,1.2915,1.3262,1.3848,1.4668,1.5537,1.7337,0.0,0.0,2.6382,2.9914,3.2507,3.4495,3.5533,3.5351,3.4916,0.0,0.0,0.0,3.4783,3.4621,3.3889,3.259,3.5047,3.5706,3.4419,3.3553,3.4185,3.6186,3.2571,3.1594,3.2794,3.1498,3.0664,3.0273,3.0273,3.0039,2.9609,2.9219,2.9043,2.8945,2.8516,2.8164,2.7885,2.75,2.7344,2.7246,2.6875,0.0,0.0,0.0,0.0,0.0,0.0,0.0,0.0,0.0,0.0,0.0,0.0,0.0,0.0,0.0,0.0,0.0,0.0,0.0,0.0,0.0,0.0,0.0,0.0,3.0566,3.0809,3.005,2.8345,2.5991,2.2742,2.2163,2.2138,2.2392,2.2218,2.2191,2.2445,2.2472,2.2579,2.2846,0.0,0.0,0.0,0.0,2.2913,2.2913,2.2953,2.3035,2.2966,2.3247,2.338,2.338,2.3647,2.3768,2.3768,2.3768,2.3768,2.3768,2.3768,2.3794,2.3794,2.3487,2.338,2.3407,2.3674,2.4791,2.6084,1.2915,1.2915,1.2915,1.2915,1.3516,1.4153,1.4707,1.5537,1.7337,2.0742,2.169,2.4263,3.0222,3.0374,3.1766,3.5871,3.4292,3.2863,0.0,0.0,3.4727,3.2969,3.4243,3.4583,3.3573,3.405,3.4358,3.4419,3.3553,3.3353,3.3772,3.1785,3.1054,3.1325,3.0995,3.084,3.0762,3.0762,3.0488,3.0059,2.998,2.9746,2.9394,2.8965,2.8965,2.9238,2.9492,2.9355,2.9062,2.9039,2.8496,2.791,2.7832,2.75,0.0,0.0,0.0,0.0,0.0,0.0,0.0,0.0,0.0,0.0,0.0,0.0,0.0,0.0,0.0,0.0,0.0,0.0,0.0,3.1602,3.209,3.1413,2.855,2.8077,2.7131,2.4767,2.3178,2.2352,2.2405,2.2592,2.2712,2.2779,2.2779,2.2806,2.2928,2.2928,2.2928,2.2928,2.31,2.3233,2.3233,2.3474,2.3594,2.3594,0.0,0.0,2.3688,2.3741,2.3768,2.3768,2.3768,2.3768,2.3768,2.3768,2.3915,2.4088,2.3794,2.3688,2.3688,2.3754,2.4039,2.4323,1.2915,1.2915,1.2915,1.2915,1.3574,1.4172,1.4414,1.54,1.7103,1.9883,2.1006,2.3261,2.7916,2.8574,2.9845,3.2836,3.2402,0.0,0.0,3.2659,3.2773,3.1715,3.2383,3.2427,3.1725,3.2373,3.3041,3.3756,3.2576,3.2379,3.3077,3.1614,3.0898,3.0898,3.0898,3.0898,3.0898,3.0898,3.0762,3.0527,3.0293,3.0078,2.9805,2.916,2.9062,2.9297,2.9726,2.9883,2.9922,3.0156,2.9941,2.959,2.959,2.9297,2.8691,0.0,0.0,0.0,0.0,0.0,0.0,0.0,0.0,0.0,0.0,0.0,0.0,0.0,0.0,2.9766,3.043,0.0,3.1973,3.2422,3.2237,3.1121,2.8307,2.7324,2.605,2.4023,2.3078,2.2645,2.2645,2.2779,2.2926,2.3086,2.31,2.3166,2.3313,2.3313,2.3313,2.3313,2.346,2.3554,2.3554,2.3701,2.3768,2.3768,2.3915,2.3981,2.3995,2.4142,2.4209,2.4209,2.4209,2.4209,2.4209,2.4369,2.4596,2.485,2.4703,2.4462,2.4222,2.4369,2.4422,2.4449,1.2915,1.2915,1.2915,1.2915,1.3574,1.4114,1.4114,1.5156,1.675,1.8867,2.0324,2.2315,2.5338,2.6715,2.7856,0.0,0.0,0.0,0.0,3.086,3.0839,3.0535,3.1172,3.0863,2.947,3.1106,3.231,3.2931,3.1554,3.1652,3.3077,3.1614,3.0898,3.0898,3.0898,3.0898,3.0898,3.0898,3.0898,3.0859,3.0488,3.0273,3.0117,2.9336,2.8984,2.8965,2.9316,2.9668,3.0039,3.0566,3.0762,3.0762,3.0859,3.0644,3.0019,2.8379,2.8144,0.0,0.0,0.0,0.0,0.0,0.0,0.0,0.0,2.8789,2.9043,2.9959,3.0273,3.0742,3.1719,3.227,3.2623,3.2546,3.157,3.0122,2.7949,2.6439,2.4785,2.2808,2.2752,2.2886,2.2953,2.2953,2.3086,2.3394,2.3407,2.3514,2.3754,2.3768,2.3768,2.3768,2.3821,2.3848,2.3848,2.3915,2.3941,2.3941,2.4168,2.4289,2.4302,2.4596,2.4716,2.473,2.4783,2.481,2.4823,2.5064,2.5304,2.5518,2.5518,2.5224,2.4836,2.5077,2.5157,2.5197,1.2974,1.2915,1.2915,1.2915,1.3574,1.4114,1.4114,1.4874,1.6269,1.8383,1.8856,2.0555,2.4787,2.4702,2.4794,2.604,2.9526,0.0,2.7702,3.154,3.2325,2.8767,3.3155,3.3584,2.9094,3.1891,3.3116,3.2503,3.1414,3.1652,3.3077,3.1614,3.0898,3.0898,3.0898,3.0898,3.0898,3.0898,3.0898,3.0879,3.084,3.0566,3.0137,2.9668,2.9258,2.8926,2.8965,2.9023,2.918,3.0,3.0273,3.0351,3.0762,3.0859,3.0547,2.918,2.8809,2.8476,2.6719,2.6894,2.7748,2.8125,2.8496,2.9101,0.0,3.0605,3.084,3.1699,3.2773,3.3496,3.3242,3.2515,3.1872,3.1593,3.0059,2.8174,2.6084,2.5651,2.4946,2.3402,2.3006,2.2966,2.3247,2.3273,2.3394,2.3701,2.3728,2.3741,2.3768,2.3768,2.3768,2.3768,2.4022,2.4155,2.4155,2.4409,2.4543,2.4543,2.4569,2.4596,2.4596,2.489,2.5037,2.505,2.5304,2.5411,2.5411,2.5451,2.5478,2.5518,2.5518,2.5478,2.5411,2.5451,2.5464,2.5464,1.3627,1.3613,1.3613,1.3613,1.388,1.4192,1.4473,1.5019,1.5888,1.7311,1.7935,1.914,2.1499,2.2544,2.3379,2.416,2.713,2.8318,2.673,2.9518,3.0338,2.8408,3.0463,3.083,2.8961,3.0188,3.0819,3.0737,3.0596,3.0813,3.1402,3.1032,3.0898,3.0898,3.0898,3.0898,3.0898,3.0898,3.0742,3.0488,3.0488,3.0215,2.9785,2.9355,2.9082,2.8926,2.8926,2.8926,0.0,0.0,3.0195,3.0273,3.0742,3.0703,3.0332,2.9531,2.9121,2.8828,2.8359,2.855,2.9004,2.9941,3.0293,3.0644,3.1445,3.1641,3.1875,3.2734,3.332,3.3867,3.4453,3.4038,3.3142,3.1963,3.0049,2.7973,2.5816,2.4761,2.3984,2.3383,2.3367,2.3447,2.3567,2.3581,2.3701,2.3995,2.4022,2.4102,2.4262,2.4275,2.4275,2.4275,2.4396,2.4449,2.4449,2.4569,2.473,2.489,2.489,2.4983,2.5157,2.5277,2.5331,2.5344,2.5464,2.5611,2.5772,2.5772,2.5865,2.6026,2.6026,2.6026,2.5999,2.5838,2.5772,2.5798,1.4133,1.4114,1.4133,1.427,1.4289,1.4414,1.4746,1.5137,1.5684,1.6414,1.709,1.793,1.916,2.1016,2.2422,2.3149,2.5078,2.6328,2.6387,2.8001,2.8714,2.8301,2.9006,2.9199,2.873,2.9228,2.9446,2.9394,2.9824,3.0019,3.0039,3.0371,3.0527,3.0527,3.0527,3.0527,3.0527,3.0527,3.0332,3.0019,3.0019,2.9844,2.9531,2.9082,2.8848,2.873,2.8613,2.8574,0.0,0.0,2.9668,2.9766,3.0351,3.0293,2.9941,2.9512,2.9082,2.8887,2.957,2.9844,3.0195,3.125,3.1699,3.1992,3.2422,3.2519,3.2754,3.3594,3.3867,3.4258,3.5215,3.4795,3.3661,3.168,2.9564,2.7442,2.5169,2.3984,2.338,2.3554,2.3754,2.3928,2.3995,2.3941,2.4008,2.4302,2.4329,2.4422,2.4623,2.4636,2.4676,2.4756,2.4756,2.4796,2.4877,2.4877,2.4983,2.5197,2.5197,2.5304,2.5518,2.5598,2.5678,2.5758,2.5758,2.5879,2.6079,2.6079,2.6199,2.64,2.648,2.6507,2.6493,2.6373,2.6266,2.6226,1.4192,1.4114,1.425,1.4687,1.4766,1.4766,1.4813,1.5137,1.5566,1.6065,1.6144,1.6966,1.9062,2.0469,2.1777,2.309,2.3984,2.5039,2.6309,2.8012,2.8818,2.8315,3.0773,3.0979,2.8354,3.0069,3.0294,2.8945,2.9375,2.9646,2.9646,2.9609,2.9665,2.9665,2.9665,2.9665,2.9665,2.9665,2.9609,2.9646,2.9646,2.9646,2.9531,2.9082,2.8672,2.8262,2.7904,0.0,0.0,0.0,2.8359,2.8496,2.9336,2.9646,2.9512,2.9062,2.8633,2.8594,2.9844,3.0508,3.0957,3.1406,3.2148,3.2871,3.3281,3.3379,3.3633,3.4492,3.5019,3.5351,3.5391,3.4221,3.245,2.99,2.7915,2.5882,2.369,2.3327,2.3541,2.4102,2.4182,2.4302,2.4583,2.4356,2.4315,2.4596,2.4623,2.4623,2.4636,2.4636,2.477,2.5064,2.5064,2.5197,2.5478,2.5491,2.5491,2.5504,2.5504,2.5504,2.5518,2.5812,2.6092,2.636,2.636,2.6373,2.6373,2.6373,2.6386,2.6413,2.6694,2.6814,2.6841,2.7121,2.7041,2.68,1.4991,1.4952,1.4991,1.5176,1.5195,1.5195,1.5195,1.5312,1.5469,1.5605,1.6133,0.0,0.0,0.0,0.0,0.0,2.293,2.3887,2.4609,2.6298,2.7341,2.7422,2.8842,2.9197,2.8301,2.89,2.8959,2.8496,2.8926,2.9141,2.9141,2.9434,2.9626,2.9626,2.9626,2.9626,2.9626,2.9626,2.9394,2.9141,2.9141,2.8809,2.8374,2.8457,2.8242,2.7851,0.0,0.0,0.0,0.0,2.8476,2.8809,2.9394,2.9626,2.9607,2.9394,2.9863,3.0469,3.0625,3.1191,3.1836,3.2266,3.3008,3.3672,3.3828,3.4062,3.4434,3.5039,3.4231,3.357,3.3916,3.2224,3.0229,2.8169,2.6931,2.5597,2.3877,2.3621,2.3768,2.4155,2.4369,2.4529,2.4623,2.4556,0.0,2.4917,2.493,2.501,2.5211,2.5211,2.5264,2.5371,2.5371,2.5411,2.5518,2.5518,2.5611,2.5812,2.5999,2.6092,2.6092,2.6199,2.6293,2.6386,2.6386,2.6493,2.668,2.668,2.6787,2.6987,2.7081,2.7121,2.7134,2.7228,2.7321,2.7375,1.541,1.541,1.541,1.541,1.541,0.0,0.0,0.0,0.0,0.0,0.0,0.0,0.0,0.0,0.0,0.0,0.0,2.2852,2.373,2.4844,2.5781,2.6473,2.7226,2.7617,2.7617,2.7754,2.7832,2.7832,2.8262,2.8476,2.8476,2.8906,2.9121,2.9121,2.9121,2.9121,2.9121,2.9121,2.8945,2.8672,2.8535,2.8144,2.7728,2.7793,2.7676,0.0,0.0,0.0,0.0,0.0,2.8242,2.8574,2.916,2.9453,2.9668,3.0137,3.0762,3.1328,3.1523,3.209,3.2715,3.3144,3.3769,3.4336,3.4512,3.4316,3.425,3.4686,3.3215,3.2001,3.2263,3.1003,2.9298,2.7337,2.6623,2.5816,2.4174,2.3928,2.4035,2.4329,2.4529,2.4676,2.4783,2.4796,2.4877,2.5064,2.5184,2.5317,2.5504,2.5518,2.5558,2.5665,2.5678,2.5718,2.5825,2.5825,2.5919,2.6119,2.6306,2.6386,2.6386,2.6493,2.6547,2.6547,2.6653,2.6814,2.6987,2.6987,2.7094,2.7281,2.7375,2.7415,2.7428,2.7535,2.7696,2.7816,1.541,1.541,1.541,0.0,0.0,0.0,0.0,0.0,0.0,0.0,0.0,0.0,0.0,0.0,0.0,0.0,0.0,0.0,2.3574,2.373,0.0,2.5557,2.6113,2.6348,2.6348,2.6777,2.6973,2.6973,2.7422,2.7689,2.7689,2.8047,2.8223,2.8223,2.8223,2.8223,2.8223,2.8223,2.8223,2.8203,2.7793,2.7669,2.7611,2.7168,0.0,0.0,0.0,0.0,2.7689,2.7689,2.7728,2.7943,2.8769,2.9375,2.998,3.1211,3.1309,3.1289,3.2519,3.3164,3.3594,3.4023,3.4473,3.4922,3.5351,3.4277,3.3296,3.3498,3.2059,3.0749,3.0621,3.0255,2.936,2.7214,2.6855,2.6228,2.4526,2.4222,2.4315,2.4623,2.4663,2.477,2.505,2.5104,2.513,2.513,0.0,2.5545,2.5558,2.5558,2.5692,2.605,2.605,2.6106,2.6386,2.6386,2.6386,2.6386,2.64,2.6413,2.6426,2.6707,2.6841,2.6854,2.7148,2.7268,2.7281,2.7281,2.7295,2.7335,2.7615,2.7722,2.7749,2.8043,2.8234,2.8207,0.0,0.0,0.0,0.0,0.0,0.0,0.0,0.0,0.0,0.0,0.0,0.0,0.0,0.0,0.0,0.0,0.0,0.0,2.2285,2.2969,0.0,0.0,0.0,0.0,0.0,0.0,0.0,0.0,2.6973,2.7187,2.7187,2.7285,2.7344,2.7344,2.7344,2.7344,2.7344,2.7344,2.7344,2.7324,0.0,2.6992,2.6738,0.0,0.0,0.0,0.0,0.0,2.7187,2.7187,2.7812,2.8867,3.0371,3.1367,3.2031,3.2363,3.2617,3.291,3.3574,3.4062,3.4492,3.4941,3.5625,3.6191,3.6309,3.6062,3.5281,3.3787,3.1805,3.003,2.8625,2.7114,2.596,2.5612,2.5194,2.4911,2.4871,2.4476,2.4396,2.4903,2.497,2.4997,2.5077,2.5478,2.5732,0.0,2.5798,2.5945,2.6159,2.6172,2.6199,2.6279,2.6279,2.6319,2.6386,2.6386,2.6386,2.6386,2.6613,2.6707,2.672,2.7014,2.7148,2.7161,2.7228,2.7388,2.7589,2.7589,2.7722,2.8006,2.8087,2.8114,2.8043,2.8194,2.8283,2.8484,0.0,0.0,0.0,0.0,0.0,0.0,0.0,0.0,0.0,0.0,0.0,0.0,0.0,0.0,0.0,0.0,0.0,0.0,0.0,2.1799,0.0,0.0,0.0,0.0,0.0,0.0,0.0,0.0,0.0,0.0,0.0,2.6465,2.6738,2.6738,2.6934,2.7012,2.7012,2.7012,0.0,0.0,0.0,0.0,0.0,0.0,0.0,0.0,0.0,2.6699,2.7129,2.7871,2.873,2.9746,3.1309,3.2129,3.2637,3.3184,3.3379,3.3594,3.4434,3.4961,3.5391,3.584,3.6445,3.6836,3.6465,3.5218,3.4009,3.34,3.0326,2.7855,2.7879,2.6228,2.489,2.505,2.481,2.4703,2.5037,2.4796,2.4716,2.5037,2.5197,2.5277,2.5277,2.5692,2.609,2.6132,2.6146,2.6213,2.6386,2.6386,2.6386,2.6386,2.6386,2.6386,2.6386,2.652,2.6587,2.6587,2.6881,2.7014,2.7028,2.7321,2.7455,2.7468,0.0,2.7749,2.7896,2.7896,2.7989,2.8248,2.8297,2.835,2.8364,2.8484,2.8644,2.8804,0.0,0.0,0.0,0.0,0.0,0.0,0.0,0.0,0.0,1.7291,1.6999,1.696,1.7422,1.7793,0.0,0.0,0.0,0.0,0.0,0.0,2.1035,0.0,0.0,0.0,0.0,0.0,0.0,0.0,0.0,0.0,0.0,0.0,0.0,0.0,0.0,0.0,0.0,0.0,0.0,0.0,0.0,0.0,0.0,0.0,0.0,0.0,2.5499,2.6064,2.7109,2.8887,2.9805,3.0449,3.1875,3.2383,3.2698,3.375,3.3848,3.3867,3.5137,3.5781,3.623,3.6719,3.6938,3.6855,3.5946,3.3513,3.1511,3.1983,2.8458,2.5754,2.7465,2.6276,2.4983,2.5064,2.505,2.505,2.513,2.5104,2.509,2.513,2.5398,2.5571,2.5571,2.5838,2.6119,2.6373,2.6386,2.6386,2.6386,2.6386,2.6413,2.6453,2.6453,2.6466,2.6507,2.676,2.6881,2.6881,2.7175,2.7321,2.7335,2.7629,2.7762,2.7776,2.803,2.8221,2.8234,2.8274,2.8288,2.8315,2.8537,2.8671,2.8698,2.8951,2.9072,2.9098,0.0,0.0,0.0,0.0,0.0,0.0,0.0,0.0,0.0,0.0,1.8594,1.7441,0.0,0.0,0.0,0.0,0.0,0.0,0.0,0.0,0.0,0.0,0.0,0.0,0.0,0.0,0.0,0.0,0.0,0.0,0.0,0.0,0.0,0.0,0.0,0.0,0.0,0.0,0.0,0.0,0.0,0.0,0.0,0.0,0.0,0.0,2.4531,2.5215,2.622,2.834,2.957,3.0586,3.2578,3.3457,3.3789,3.4004,3.4258,3.4687,3.5644,3.623,3.6738,3.7519,3.6743,3.5614,3.4689,3.3834,3.2069,2.8345,2.7984,2.7609,2.5098,2.444,2.4516,2.4997,2.4877,2.4877,2.5371,2.5237,2.517,2.5411,2.5705,2.5879,2.5879,2.6146,2.6333,2.6386,2.6386,2.6386,2.6386,2.6386,2.6493,2.6734,2.6747,2.6867,2.7108,2.7161,2.7188,2.7188,2.7482,2.7629,2.7629,2.7923,2.8154,2.8154,2.8207,0.0,2.8248,2.8417,2.8524,2.8564,2.8845,2.8965,2.8965,2.9018,2.9192,2.9406,0.0,0.0,0.0,0.0,0.0,0.0,0.0,2.0294,2.0956,2.2048,2.1152,2.0215,1.9709,1.9082,1.8672,0.0,0.0,0.0,0.0,0.0,0.0,0.0,0.0,0.0,0.0,0.0,0.0,0.0,0.0,0.0,0.0,0.0,0.0,0.0,0.0,0.0,0.0,0.0,0.0,0.0,0.0,0.0,0.0,0.0,0.0,0.0,0.0,2.4648,2.5625,2.7109,2.8476,3.0,3.2598,3.373,3.4082,3.4082,3.4551,3.5195,3.584,3.6348,3.6816,3.7441,3.6243,3.4686,3.3499,3.1566,2.956,2.7768,2.647,2.555,2.5311,2.4575,2.4115,2.4556,2.4636,2.4783,2.5224,2.5291,2.5358,2.5491,2.5905,2.6119,2.605,2.6226,2.6386,2.6386,2.6386,2.6386,2.6386,2.6533,2.6747,2.7041,2.7054,2.7121,2.7268,2.7415,2.7495,2.7495,2.7789,2.7923,2.7936,2.8167,2.8221,2.8234,2.831,2.839,2.8404,2.8711,2.8831,2.8858,2.9152,2.9272,2.9285,2.9432,2.9579,2.9713,0.0,0.0,0.0,0.0,0.0,0.0,0.0,2.1561,2.2243,2.3608,2.3769,2.3301,2.2168,2.0644,1.9492,0.0,0.0,0.0,0.0,0.0,0.0,0.0,0.0,0.0,0.0,0.0,0.0,2.2519,0.0,0.0,0.0,0.0,0.0,0.0,0.0,0.0,0.0,0.0,0.0,0.0,0.0,0.0,0.0,0.0,0.0,0.0,0.0,2.4141,2.4988,2.5918,2.7246,2.8965,3.1621,3.3144,3.3945,3.4043,3.4707,3.5508,3.6016,3.6111,3.6182,3.6605,3.5009,3.2927,3.1351,2.876,2.6771,2.6801,2.4627,2.3287,2.5218,2.44,2.3621,2.4035,2.4356,2.4663,2.5024,2.5331,2.5518,2.5518,2.6026,2.6306,2.6079,2.6253,2.6386,2.6386,2.6453,2.648,2.648,2.676,2.7054,2.7348,2.7362,2.7388,2.7455,2.7682,2.7789,2.7789,2.803,2.8221,2.8234,2.8301,2.8328,2.8257,2.8564,2.8698,0.0,2.9018,2.9138,2.9165,2.9459,2.9579,2.9606,2.9833,2.9913,2.9913,0.0,0.0,0.0,0.0,0.0,0.0,0.0,2.2812,2.416,2.5859,2.5742,2.5293,2.4766,2.2519,2.0683,0.0,0.0,0.0,0.0,0.0,0.0,0.0,0.0,0.0,0.0,0.0,0.0,2.2519,2.2168,0.0,0.0,0.0,0.0,0.0,0.0,2.248,0.0,0.0,0.0,0.0,0.0,0.0,0.0,0.0,0.0,0.0,0.0,2.3496,2.4102,2.5371,2.6376,2.7441,2.8887,3.123,3.3555,3.3945,3.4707,3.5566,3.6387,3.5401,3.421,3.4611,3.209,2.9074,2.7308,2.6694,2.5569,2.2429,2.2797,2.3325,2.2254,2.2311,2.2819,2.3674,2.4062,2.4436,2.4997,2.5331,2.5518,2.5518,2.6026,2.6373,2.636,2.6373,2.6386,2.6386,2.664,2.6787,2.6787,2.7068,2.7362,2.7642,2.7655,2.7789,2.814,2.8167,2.8181,2.8181,2.8207,2.8221,2.8234,2.843,2.8564,2.8577,2.8871,2.9005,0.0,2.9325,2.9446,2.9472,2.9766,2.9873,2.9887,2.99,2.9913,2.9913,0.0,0.0,0.0,0.0,0.0,0.0,2.2347,2.2871,2.3926,2.6426,2.6387,2.6055,2.5879,2.4473,2.2676,2.0488,0.0,0.0,0.0,0.0,0.0,0.0,0.0,0.0,0.0,0.0,2.1699,2.2129,2.1973,0.0,0.0,0.0,0.0,0.0,0.0,2.2031,2.1875,0.0,0.0,0.0,0.0,0.0,0.0,0.0,0.0,0.0,0.0,0.0,2.3516,2.4297,2.5312,2.6426,2.7461,2.9297,3.1289,3.2246,3.3013,3.3582,3.3725,3.2927,3.2039,3.221,2.9986,2.7473,2.6284,2.4844,2.3178,2.1285,2.1252,2.1519,2.115,2.151,2.2138,2.2846,2.3514,2.4209,2.497,2.5331,2.5585,2.5758,2.6146,2.6386,2.6386,2.6386,2.6466,2.664,2.7081,2.7348,2.7348,2.7468,2.7655,2.7963,2.7963,2.8114,2.8221,2.8221,2.8221,2.8234,2.8337,2.8417,2.843,2.8724,2.8871,2.8885,2.9179,2.9312,0.0,2.9619,2.974,2.9753,2.9873,2.9913,2.9913,2.9913,2.9913,2.9913,0.0,0.0,0.0,0.0,0.0,2.0254,2.2617,2.293,2.375,2.6133,2.6406,2.6387,2.6387,2.5371,2.3873,2.174,2.0644,0.0,0.0,0.0,0.0,0.0,0.0,0.0,0.0,0.0,2.1309,2.1894,2.1894,2.1894,0.0,0.0,2.2129,2.1894,0.0,0.0,0.0,0.0,0.0,0.0,0.0,0.0,0.0,0.0,0.0,0.0,0.0,0.0,0.0,0.0,0.0,2.5312,2.6172,2.7441,2.9004,3.0957,3.1626,3.185,3.2007,3.1041,2.9945,3.0057,2.8114,2.5937,2.4946,2.3172,2.1456,2.0481,2.012,2.0067,2.0361,2.0895,2.1537,0.0,0.0,2.3941,2.4823,2.5277,2.5625,2.5996,2.636,2.6613,2.6533,2.652,2.664,2.6934,2.7415,2.7736,2.7829,2.7829,2.7923,2.8221,2.8221,2.8221,2.8221,2.8221,2.8274,2.8283,2.8497,2.8644,2.8751,2.9045,2.9165,2.9192,2.9486,2.9606,0.0,2.9833,2.9913,2.9913,2.9913,2.9913,2.9913,2.9913,2.9913,2.9913,0.0,0.0,0.0,0.0,0.0,0.0,2.2246,2.3242,2.4102,2.5028,2.584,2.6387,2.6387,2.4844,2.3789,2.3769,2.1838,0.0,0.0,0.0,0.0,0.0,0.0,0.0,0.0,0.0,2.1036,2.1894,2.1894,2.1894,2.1894,2.2797,2.2738,2.1894,0.0,0.0,0.0,0.0,0.0,0.0,0.0,0.0,0.0,0.0,0.0,0.0,0.0,0.0,0.0,0.0,0.0,0.0,0.0,2.5703,2.709,3.0508,3.109,3.0846,3.1962,3.0168,2.7984,2.8312,2.6291,2.3888,2.2699,2.175,2.0788,1.9626,1.943,1.9466,1.976,2.0294,2.1069,2.2231,0.0,0.0,2.4516,2.5144,2.5625,2.5996,2.6734,2.7134,2.6841,2.6814,2.6934,2.7241,2.7535,0.0,2.8207,2.8221,2.8221,2.8221,2.8221,2.8221,2.8221,2.8221,2.8297,2.8604,2.8604,2.8764,2.9045,2.9339,2.9486,2.9499,2.978,0.0,0.0,2.9913,2.9913,2.9913,2.9913,2.9913,2.9913,2.9913,2.9913,2.9913,0.0,0.0,0.0,0.0,0.0,0.0,0.0,2.1602,2.2249,2.3965,2.4225,2.4746,2.623,2.4824,2.3789,2.3789,2.209,0.0,0.0,0.0,0.0,0.0,0.0,0.0,0.0,2.1016,2.1445,2.2305,2.2305,2.2461,2.2734,2.2734,2.2734,2.2777,2.219,2.1973,0.0,0.0,0.0,0.0,0.0,0.0,0.0,0.0,0.0,0.0,0.0,0.0,0.0,0.0,0.0,0.0,0.0,0.0,0.0,2.7527,2.7659,2.76,2.8432,2.6716,2.4802,2.4899,2.3665,2.2231,2.1657,2.0842,2.0,1.9225,1.9225,1.9457,1.9492,2.0307,2.1229,2.2004,2.2966,0.0,2.481,2.5264,2.5625,2.5996,2.6373,2.6787,2.7094,0.0,2.7241,2.7535,2.7843,2.8127,2.8221,2.8221,2.8221,2.8221,2.8221,2.8328,2.8457,2.8457,2.8604,2.8911,2.9112,2.9259,2.9352,2.9646,2.978,0.0,0.0,0.0,0.0,2.9913,2.9913,2.9913,2.9913,2.9913,2.9913,2.9913,2.9913,2.9913,0.0,0.0,0.0,0.0,0.0,0.0,0.0,2.0898,2.1309,2.2656,2.2871,2.3613,2.5449,2.4258,2.3437,2.3769,2.2227,0.0,0.0,0.0,0.0,0.0,0.0,0.0,2.1465,2.1756,2.2243,2.2988,2.332,2.3613,2.3867,2.3725,2.3691,2.3613,2.291,2.2656,0.0,0.0,0.0,0.0,0.0,0.0,2.1268,0.0,0.0,0.0,0.0,0.0,0.0,0.0,0.0,0.0,0.0,0.0,0.0,0.0,2.4528,2.4322,2.547,2.4327,2.2873,2.31,2.2178,2.1239,2.0989,2.0187,1.9399,1.9145,1.9412,1.9733,1.984,2.0641,2.155,2.2365,2.3113,2.3981,2.509,2.5398,2.5745,2.6373,2.6507,2.6787,0.0,2.7335,2.7388,2.7682,2.7976,2.8221,2.8221,2.8341,2.8323,2.8323,2.8323,2.8417,2.8604,2.8711,2.8925,2.9205,2.9392,2.9539,2.9659,2.9833,2.9913,0.0,0.0,0.0,0.0,2.9913,2.9913,2.9913,2.9913,2.9913,2.9913,2.9913,2.9913,2.9913,0.0,0.0,0.0,0.0,0.0,0.0,0.0,2.0918,2.1171,2.119,2.1892,2.2891,2.4141,2.3164,2.2754,2.3574,0.0,0.0,0.0,0.0,0.0,0.0,0.0,0.0,2.2012,2.2754,2.3335,2.3732,2.4528,2.4908,2.487,2.5227,2.5044,2.4346,2.3945,2.3504,2.3023,0.0,0.0,0.0,0.0,2.1268,0.0,0.0,0.0,0.0,0.0,0.0,0.0,0.0,0.0,0.0,0.0,0.0,0.0,0.0,0.0,0.0,0.0,2.2736,2.1991,2.2565,2.1657,2.0615,2.0641,1.9786,0.0,1.9345,1.984,2.0307,2.0561,2.1226,2.1977,2.3086,2.3354,2.3915,2.5317,2.5545,2.5999,2.7134,2.7028,2.7081,2.7669,2.7468,2.7415,2.7709,2.7989,2.8234,2.8261,2.8444,2.8617,2.8631,2.8657,2.8671,2.8671,2.8938,2.9219,2.9513,2.9513,2.9659,2.9913,2.9913,2.9913,0.0,0.0,0.0,0.0,2.9913,2.9913,2.9913,2.9913,2.9913,2.9913,2.9913,2.9913,2.9913,0.0,0.0,0.0,0.0,0.0,0.0,0.0,0.0,0.0,0.0,2.1366,2.1853,2.2852,2.2068,2.1758,0.0,0.0,0.0,0.0,0.0,0.0,0.0,0.0,0.0,2.332,2.3223,2.3178,2.3198,2.3304,2.3149,2.2775,2.2826,2.3284,2.4126,2.3365,2.3065,2.3081,2.2832,0.0,0.0,2.1738,2.1934,0.0,0.0,0.0,0.0,2.3062,2.3101,0.0,0.0,0.0,0.0,0.0,0.0,0.0,0.0,2.0408,2.0407,2.0143,0.0,2.0735,2.1096,2.0588,2.0067,0.0,1.9947,0.0,0.0,0.0,0.0,0.0,2.1216,2.2311,2.2592,2.3581,2.4609,2.5398,2.5905,2.6453,2.7175,2.7201,2.7388,2.7976,2.7776,2.7722,2.81,2.8181,2.8328,2.8484,2.8564,2.8711,2.8938,2.9165,2.9285,2.9285,2.9339,2.9526,2.982,2.982,2.9847,2.9913,2.9913,2.9913,0.0,0.0,0.0,2.9913,2.9913,2.9913,2.9913,2.9913,2.9913,2.9913,2.9913,2.9913,2.9913,0.0,0.0,0.0,0.0,0.0,0.0,0.0,0.0,0.0,0.0,0.0,2.1366,2.1834,2.1463,0.0,0.0,0.0,0.0,0.0,0.0,0.0,0.0,0.0,2.249,2.3129,2.2722,2.2512,2.2583,2.2705,2.2756,2.2786,2.2585,2.2828,2.3358,2.2362,2.1952,2.1962,2.2154,2.1913,2.1414,2.1958,0.0,0.0,0.0,0.0,0.0,2.3101,2.3101,0.0,2.2098,2.2116,2.2133,0.0,0.0,0.0,0.0,1.8774,1.9028,1.8942,1.9172,1.9533,1.9973,1.9733,1.9506,1.9933,0.0,0.0,0.0,0.0,0.0,0.0,2.2231,2.3233,2.3233,2.4142,2.505,2.5638,2.6226,2.6653,2.6841,2.7108,2.7388,0.0,2.7709,2.7816,2.8207,2.827,2.843,2.8591,2.8858,2.9085,2.9245,2.9526,2.9619,2.9486,2.9619,2.9766,2.9913,2.9913,2.9913,2.9913,2.9913,2.9913,0.0,0.0,0.0,2.9913,2.9913,2.9913,2.9913,2.9913,2.9913,2.9913,2.9913,3.0007,3.0114,0.0,0.0,0.0,0.0,0.0,0.0,0.0,0.0,0.0,0.0,0.0,0.0,0.0,0.0,0.0,0.0,0.0,0.0,0.0,0.0,0.0,0.0,2.2008,2.1837,2.2332,2.1927,2.1738,2.1804,2.2257,2.2596,2.2847,2.2776,2.2551,2.2167,2.1454,2.0966,2.0633,2.1112,2.1078,2.0902,2.2107,0.0,0.0,0.0,0.0,0.0,0.0,0.0,0.0,2.2142,2.1742,2.1096,1.8933,0.0,0.0,0.0,0.0,0.0,1.8677,1.8838,1.8891,1.9439,1.9305,1.9239,1.992,0.0,0.0,0.0,0.0,0.0,0.0,2.3434,2.4195,2.4142,2.4703,2.5331,2.5956,2.6453,2.6747,2.6547,2.7001,0.0,2.7388,2.7615,2.7869,2.8207,2.843,2.8631,2.8671,2.9192,2.9499,2.9553,2.978,2.9793,2.9553,2.9793,2.9913,2.9913,2.9913,2.9913,2.9913,2.9913,2.9913,2.9913,0.0,0.0,2.9913,2.9913,2.9913,2.9913,2.9913,2.994,2.998,2.998,3.0167,3.0434,0.0,0.0,0.0,0.0,0.0,0.0,0.0,0.0,0.0,0.0,0.0,0.0,0.0,0.0,0.0,0.0,0.0,0.0,0.0,0.0,0.0,2.0942,2.0836,2.1194,2.2145,2.1758,2.1174,2.0385,2.1113,2.0798,1.9666,2.0327,2.0715,2.0855,2.1574,2.1444,2.0666,2.1754,2.1805,2.13,2.2528,0.0,0.0,0.0,0.0,0.0,0.0,0.0,0.0,2.0315,1.9904,1.9458,1.7018,0.0,0.0,0.0,0.0,0.0,1.8677,1.9439,2.0054,2.0388,2.0067,1.9947,0.0,0.0,0.0,0.0,0.0,0.0,0.0,2.3567,2.4128,2.3875,2.4743,2.5571,2.5983,2.6453,2.6894,2.7108,0.0,2.7736,2.8073,2.8127,2.8181,2.8221,2.843,2.8711,2.8965,2.9299,2.9593,2.9847,2.99,2.99,2.9847,2.99,2.9913,2.9913,2.9913,2.9913,2.9913,2.9913,2.9913,2.9913,0.0,2.9913,2.9913,2.9913,2.9913,2.9913,2.9913,3.0074,3.0287,3.0287,3.0474,3.0755,0.0,0.0,0.0,0.0,0.0,0.0,0.0,0.0,0.0,0.0,0.0,0.0,0.0,0.0,0.0,0.0,0.0,0.0,0.0,0.0,1.8612,1.8781,1.876,1.9487,2.1002,2.0437,2.012,2.0173,2.0704,2.0832,2.0575,2.0334,1.9974,1.9612,1.9837,1.948,1.8845,1.9843,1.9921,1.9451,0.0,0.0,0.0,0.0,0.0,0.0,0.0,0.0,0.0,0.0,1.9396,1.864,1.6677,0.0,0.0,0.0,0.0,0.0,1.8838,1.9345,1.9867,2.1269,2.1416,2.1403,0.0,0.0,0.0,0.0,0.0,0.0,0.0,2.3968,2.4783,2.513,2.5504,2.5852,2.6146,2.656,2.6867,0.0,0.0,2.7749,2.7896,2.8127,2.8301,2.8377,2.8671,0.0,2.9259,2.9553,2.978,2.9913,2.9913,2.9913,2.9913,2.9913,2.9913,2.9913,2.9913,2.9913,2.9913,2.9913,2.9913,2.9913,0.0,2.9913,2.9913,2.9913,3.0007,3.0154,3.0154,3.0341,3.0608,3.0768,3.1009,3.1303,0.0,0.0,0.0,0.0,0.0,0.0,0.0,0.0,0.0,0.0,0.0,0.0,0.0,0.0,0.0,0.0,0.0,0.0,0.0,1.7279,1.7165,1.7015,1.7192,1.8108,1.9924,1.9401,1.9519,2.0334,2.0775,2.1256,2.1764,2.0722,1.97,1.8905,1.8328,1.7809,1.7324,1.8139,1.823,1.7882,0.0,0.0,0.0,0.0,0.0,0.0,0.0,0.0,0.0,0.0,0.0,0.0,0.0,0.0,0.0,1.7099,1.7393,1.7903,1.9118,1.9599,2.0214,2.2151,0.0,0.0,0.0,0.0,0.0,0.0,0.0,0.0,0.0,2.4623,2.5424,2.6172,2.6039,2.5985,2.6333,2.664,2.6854,2.6921,2.7388,2.7722,2.7789,2.807,2.835,2.8591,0.0,0.0,2.9472,2.9753,2.9913,2.9913,2.9913,2.9913,2.9913,2.9913,2.9913,2.9913,2.9913,2.9913,2.9913,2.9913,2.9913,2.9913,2.9913,2.9913,2.9927,2.9993,3.0154,3.0368,3.0434,3.0635,3.0929,3.1223,3.1476,3.1717,0.0,0.0,0.0,0.0,0.0,0.0,0.0,0.0,0.0,0.0,0.0,0.0,0.0,0.0,0.0,0.0,0.0,0.0,0.0,1.5927,1.6074,1.6375,1.7114,1.8144,1.9411,1.9631,2.004,2.0641,2.1483,2.1643,2.1162,2.0521,1.97,1.8905,1.8597,1.8116,1.762,1.8239,1.8301,1.815,1.9122,0.0,0.0,0.0,0.0,0.0,0.0,0.0,0.0,0.0,0.0,0.0,0.0,0.0,1.6469,1.7032,1.7929,1.8945,1.9586,2.0935,2.2338,2.3073,2.2432,0.0,2.3728,2.3928,0.0,2.4409,0.0,0.0,0.0,2.5611,2.5585,2.5932,2.5732,2.5745,2.6306,0.0,2.6921,2.7201,2.7509,2.7802,2.8167,2.839,2.8577,0.0,0.0,0.0,2.9486,2.9753,2.9913,2.9913,2.9913,2.9913,2.9913,2.9913,2.9913,2.9913,2.9913,2.9913,2.9913,2.9913,2.9913,2.9913,2.9913,2.9913,2.994,3.0221,3.0341,3.0381,3.0662,3.0942,3.1236,3.153,3.165,3.1717,0.0,0.0,0.0,0.0,0.0,0.0,0.0,0.0,0.0,0.0,0.0,0.0,0.0,0.0,0.0,0.0,0.0,0.0,0.0,1.5784,1.6126,1.6844,1.7367,1.8143,1.9345,1.9826,2.0535,2.1496,2.2191,2.2138,2.1376,2.0788,2.004,1.9185,1.8891,1.8424,1.7836,1.7736,1.7496,1.7225,1.7232,1.7789,0.0,0.0,0.0,0.0,0.0,0.0,0.0,0.0,1.7213,1.6326,1.6072,1.638,1.6951,1.7353,1.813,1.9172,2.0307,2.163,2.2926,2.3901,0.0,0.0,0.0,2.493,2.4863,2.4903,2.4823,0.0,0.0,2.6132,2.6213,2.6694,2.652,2.64,2.6627,2.6747,2.7001,2.7482,2.7629,2.7816,2.8194,2.843,0.0,0.0,0.0,0.0,2.974,2.986,2.9913,2.9913,2.9913,2.9913,2.9913,2.9913,2.9913,2.9913,2.9913,2.9913,2.9913,2.9913,2.9913,2.9927,3.0114,3.0194,3.0221,3.0501,3.0742,3.0929,3.1223,3.141,3.1517,3.1623,3.1784,3.1931,0.0,0.0,0.0,0.0,0.0,0.0,0.0,0.0,0.0,0.0,0.0,0.0,0.0,0.0,0.0,0.0,0.0,0.0,1.5784,1.5912,1.6286,1.7032,1.7462,1.8143,1.9078,1.9746,2.0668,2.1844,2.2338,2.2138,2.1333,2.0775,2.016,1.9492,1.9092,1.8595,1.8089,1.7542,1.7058,1.6526,1.6126,1.6546,0.0,0.0,0.0,0.0,0.0,0.0,0.0,0.0,1.689,1.638,1.6072,1.6446,1.7112,1.7407,1.841,1.972,2.0815,2.2178,2.35,0.0,0.0,0.0,0.0,0.0,0.0,2.5384,2.5571,2.5892,2.6319,0.0,2.6774,2.7068,2.6961,2.6827,2.6827,2.6987,2.7255,2.7655,2.7776,2.7949,0.0,0.0,0.0,0.0,0.0,0.0,0.0,2.9913,2.9913,2.9913,2.9913,2.9913,2.9913,2.9913,2.9913,2.9913,2.9913,2.9913,2.9913,2.9913,2.9967,3.0074,3.0274,3.0408,3.0515,3.0808,3.1102,3.1383,3.1583,3.1664,3.1664,3.1664,3.1797,3.1931,0.0,0.0,0.0,0.0,0.0,0.0,0.0,0.0,1.6244,1.7498,1.7684,0.0,0.0,0.0,0.0,0.0,0.0,0.0,1.5784,1.6112,1.6393,1.6687,1.7542,1.8156,1.8477,1.9345,2.0374,2.1614,2.1844,2.1537,2.0668,2.0374,2.008,1.9773,1.9185,1.8771,1.845,1.7836,1.7074,1.6335,1.6273,1.6099,1.5784,0.0,0.0,0.0,0.0,0.0,0.0,0.0,1.6072,1.5838,1.6179,1.6473,1.6767,1.7125,1.8894,2.0748,2.1042,2.2632,2.4289,0.0,0.0,0.0,2.5451,0.0,0.0,2.5905,2.6653,2.7081,2.6507,2.6881,0.0,2.6881,2.6827,2.6827,2.6827,2.7335,2.7696,2.7696,2.7963,0.0,0.0,0.0,0.0,0.0,0.0,0.0,0.0,2.9913,2.9913,2.9913,2.9913,2.9913,2.9913,2.9913,2.9913,2.9913,2.9913,2.9913,2.9913,2.9913,3.0087,3.0368,3.0368,3.0528,3.0822,3.1116,3.1396,3.1664,3.1664,3.1664,3.1664,3.1664,3.1664,3.1664,0.0,0.0,0.0,0.0,0.0,0.0,0.0,0.0,1.5927,1.6292,1.6339,0.0,0.0,0.0,0.0,0.0,0.0,0.0,1.5784,1.5912,1.6179,1.6687,1.7154,1.7649,1.817,1.9038,2.0067,2.1243,2.1737,2.143,2.0361,2.0494,2.0054,1.9185,0.0,1.8838,1.8089,1.7528,1.7179,1.6911,1.6496,1.6339,1.642,0.0,0.0,0.0,0.0,0.0,0.0,0.0,0.0,0.0,1.6005,1.658,1.7422,1.7943,1.9466,2.1176,2.2098,2.3701,2.5144,2.5237,0.0,0.0,0.0,0.0,0.0,0.0,2.6774,2.7028,2.7268,2.7281,0.0,2.7415,2.7268,2.7201,2.7415,2.7589,2.7776,2.7989,0.0,0.0,0.0,0.0,0.0,0.0,0.0,0.0,0.0,2.9913,2.9913,2.9913,2.9913,2.9913,2.9913,2.9913,2.9913,2.9913,3.0127,3.0221,3.0221,3.0221,3.0381,3.0675,3.0875,3.1022,3.1116,3.141,3.1583,3.1664,3.1664,3.1664,3.1664,3.1664,3.1664,3.1664,0.0,0.0,0.0,0.0,0.0,0.0,1.5784,1.5784,1.5784,1.5784,1.5784,1.5784,0.0,0.0,0.0,1.5784,1.5784,1.5784,1.5784,1.5939,1.6219,1.6687,1.7045,1.7435,1.7982,1.9025,1.9826,2.0414,2.1122,2.0989,2.0067,2.0481,2.0174,1.9279,0.0,1.9292,0.0,0.0,1.7635,1.7179,1.6938,1.6754,1.67,0.0,0.0,0.0,0.0,0.0,0.0,0.0,0.0,0.0,1.6059,1.682,1.7903,1.8624,2.016,2.1857,2.2939,2.4422,2.5692,2.5692,2.5905,2.6159,2.6279,0.0,0.0,0.0,2.7014,2.7241,2.7482,2.7482,0.0,2.7522,2.7468,2.7495,2.7669,2.7802,2.7936,0.0,0.0,0.0,0.0,0.0,0.0,0.0,0.0,0.0,0.0,2.9913,2.9913,2.9913,2.9913,2.9913,2.9913,2.9913,2.998,3.01,3.0274,3.0474,3.0702,3.0581,3.0688,3.0982,3.1276,3.1396,3.141,3.1597,3.1664,3.1664,3.1664,3.1664,3.1664,3.1664,3.1664,3.1664,0.0,0.0,0.0,0.0,0.0,0.0,1.5784,1.5784,1.5784,1.5784,1.5784,1.5784,0.0,0.0,0.0,1.5784,1.5784,1.5784,1.5784,1.6086,1.638,1.6687,1.7021,1.7475,1.8022,1.9132,1.9586,1.947,2.0254,2.0361,1.9773,2.0388,2.0347,1.9773,0.0,1.9867,0.0,1.8985,1.8196,1.7259,1.7475,1.7248,1.678,1.7099,0.0,0.0,0.0,0.0,0.0,0.0,0.0,0.0,1.6321,1.7088,1.8169,1.9105,2.0815,2.2619,2.3554,2.4836,2.601,2.5985,2.6199,2.6453,2.672,2.6627,2.6547,2.6841,0.0,2.7575,2.7308,2.7482,2.7575,2.7308,2.7509,2.7709,2.7736,0.0,0.0,0.0,0.0,0.0,0.0,0.0,0.0,0.0,0.0,0.0,0.0,2.9913,2.9913,2.9913,2.9913,2.9913,2.9913,2.994,3.01,3.0354,3.0421,3.0715,3.1223,3.0955,3.0996,3.1276,3.1557,3.1664,3.1664,3.1664,3.1664,3.1664,3.1664,3.1664,3.1664,3.1664,3.1664,3.1664,0.0,0.0,0.0,0.0,0.0,0.0,1.5784,1.5784,1.5784,1.5784,1.5784,1.5784,1.5784,1.5784,0.0,1.5784,1.5784,1.5784,1.5784,1.5885,1.6152,1.6687,1.7208,1.7769,1.8384,1.8637,1.9078,1.9706,2.0361,2.0254,1.9479,0.0,0.0,1.9466,0.0,1.9573,1.8985,1.8408,1.7943,1.7502,1.7555,1.742,1.7112,1.7179,1.7058,0.0,0.0,0.0,0.0,0.0,0.0,0.0,1.6321,1.7088,1.8169,1.9105,2.0815,2.2672,2.3808,2.485,2.5718,2.6186,2.6346,2.6413,2.6466,2.6787,2.7161,2.7455,2.7428,2.7348,2.7281,2.7321,2.7335,2.7281,2.7509,2.7776,0.0,0.0,0.0,0.0,0.0,0.0,0.0,0.0,0.0,0.0,0.0,0.0,2.9913,2.9913,2.9913,2.9913,2.9913,2.9913,2.9913,3.0154,3.0301,0.0,3.0822,3.1102,3.1223,3.1156,3.1289,3.1583,3.1637,3.1664,3.1664,3.1664,3.1664,3.1664,3.1664,3.1664,3.1664,3.1664,3.1664,3.1664,0.0,0.0,0.0,0.0,0.0,0.0,0.0,0.0,1.5784,1.5784,1.5784,1.5784,1.5784,1.5784,0.0,0.0,1.5784,1.5784,1.5784,1.5784,1.6032,1.6473,1.6927,1.7315,1.7622,1.8196,1.8651,1.8958,1.9693,1.9872,1.9444,0.0,0.0,1.9399,0.0,1.9893,1.9319,1.8865,1.8504,1.8223,1.8223,1.7969,1.7595,1.7742,1.7515,1.7101,1.6967,0.0,0.0,0.0,0.0,0.0,0.0,0.0,1.8437,1.9319,2.0722,2.2352,2.3968,0.0,0.0,2.6413,0.0,2.6386,2.6386,2.6841,2.7308,2.7455,2.7375,2.7308,2.7442,2.7362,2.7308,2.7455,0.0,0.0,0.0,0.0,0.0,0.0,0.0,0.0,0.0,0.0,0.0,0.0,0.0,2.9913,2.9913,2.9913,2.9913,2.9913,2.9913,2.998,3.0127,3.0287,3.0501,3.0782,3.1076,3.1303,3.1436,3.1436,3.1517,3.1664,3.1664,3.1664,3.1664,3.1664,3.1664,3.1664,3.1664,3.1664,3.1664,3.1664,3.1664,3.1664,0.0,0.0,0.0,0.0,0.0,0.0,0.0,0.0,0.0,1.5784,1.5784,1.5784,1.5784,1.5784,1.5784,0.0,0.0,0.0,1.5784,1.5824,1.6019,1.6308,1.6553,1.6727,1.678,1.7809,1.8263,1.8075,1.8851,1.9323,1.9386,0.0,0.0,1.9546,0.0,0.0,1.9786,1.9599,1.9319,1.8998,1.8998,1.8621,1.8169,1.8464,1.825,1.7782,1.7594,1.7447,1.7313,1.6954,0.0,0.0,0.0,0.0,1.8584,1.9466,2.0561,0.0,0.0,2.5064,2.5838,2.656,2.66,0.0,2.64,2.6881,2.7321,2.7281,2.7308,2.7415,2.7655,2.7509,2.7415,0.0,0.0,0.0,0.0,0.0,0.0,0.0,0.0,0.0,0.0,0.0,0.0,0.0,0.0,2.9913,2.9913,2.9913,2.9913,2.9913,2.9913,3.006,3.0354,3.0408,3.0702,3.1223,3.1276,3.1436,3.1664,3.1664,3.1664,3.1664,3.1664,3.1664,3.1664,3.1664,3.1664,3.1664,3.1664,3.1664,3.1664,3.1664,3.1664,3.1664,0.0,0.0,0.0,0.0,0.0,0.0,0.0,0.0,0.0,0.0,1.5784,1.5784,1.5784,1.5784,1.5784,1.5784,1.5784,1.5784,1.5784,0.0,0.0,1.6321,1.6553,1.6834,1.7139,1.7541,1.7943,1.8437,1.8544,1.8865,1.9386,1.996,2.0127,2.0134,0.0,0.0,0.0,0.0,1.98,1.9305,1.9305,1.9105,1.8755,1.8851,1.8811,1.8744,1.8704,1.8357,1.7822,1.7569,1.738,0.0,0.0,0.0,1.8222,1.9158,2.0254,0.0,0.0,0.0,2.6306,0.0,2.66,2.6694,0.0,0.0,2.7562,0.0,2.7468,2.7655,2.7696,2.7669,0.0,0.0,0.0,0.0,0.0,0.0,0.0,0.0,0.0,0.0,0.0,0.0,0.0,0.0,2.9913,2.9913,2.9913,2.9913,2.9913,2.9913,2.9913,3.006,3.0354,3.0608,3.0902,3.1223,3.149,3.1637,3.1664,3.1664,3.1664,3.1664,3.1664,3.1664,3.1664,3.1664,3.1664,3.1664,3.1664,3.1664,3.1664,3.1664,3.1664,3.1664,0.0,0.0,0.0,0.0,0.0,0.0,0.0,0.0,0.0,0.0,0.0,1.6313,1.6313,1.6313,1.6393,1.6553,1.642,1.6246,1.6086,1.6206,1.6321,1.6321,1.6233,1.6433,1.6887,1.7246,1.7608,1.7983,1.8317,1.8784,1.943,1.98,1.9907,1.9773,2.0401,0.0,0.0,0.0,0.0,0.0,0.0,0.0,2.0361,2.0027,2.0,2.0107,1.9773,1.9279,1.8771,1.8624,1.8331,1.7929,1.7702,0.0,0.0,0.0,1.972,2.0909,2.3354,2.5184,2.6426,0.0,2.6734,2.6747,2.6453,2.6814,2.7215,2.7255,2.7495,2.7696,2.7696,0.0,0.0,0.0,0.0,0.0,0.0,0.0,0.0,0.0,0.0,0.0,0.0,0.0,0.0,0.0,2.9913,2.9913,2.9913,2.9913,2.9913,2.9913,3.0074,3.0301,3.0595,3.0889,3.1183,3.1476,3.161,3.1664,3.1664,3.1664,3.1664,3.1664,3.1664,3.1664,3.1664,3.1664,3.1664,3.1664,3.1664,3.1664,3.1664,3.1664,3.1664,3.169,0.0,0.0,0.0,0.0,0.0,0.0,0.0,0.0,0.0,0.0,0.0,1.67,1.67,0.0,0.0,0.0,1.7007,1.6807,1.6563,1.6549,1.6509,1.638,1.6166,1.6219,1.658,1.7005,1.73,1.7475,1.8076,1.8677,1.9265,1.9626,1.9679,1.9506,2.0321,2.0347,0.0,0.0,0.0,0.0,0.0,2.1577,2.1737,2.1456,2.1483,2.159,2.1002,2.0468,1.9973,1.9599,1.9132,1.8651,1.8277,1.8317,0.0,0.0,0.0,2.0788,0.0,0.0,2.5959,2.648,2.6653,2.6653,0.0,0.0,2.6974,0.0,2.7442,2.7682,0.0,0.0,0.0,0.0,0.0,0.0,0.0,0.0,0.0,0.0,0.0,0.0,0.0,0.0,0.0,0.0,2.9913,2.9913,2.9913,2.9913,2.9913,2.9913,3.0207,3.0501,3.0795,3.1156,3.145,3.1664,3.1744,3.1744,3.1677,3.1744,3.1744,3.1664,3.1664,3.1664,3.1664,3.1664,3.1664,3.1664,3.1664,3.1717,3.1784,3.1784,3.1824,3.1931,0.0,0.0,0.0,0.0,0.0,0.0,0.0,0.0,0.0,0.0,0.0,1.67,1.67,1.6954,1.7179,1.7206,1.7434,1.746,1.7179,1.7152,1.7032,1.67,1.6673,0.0,1.6348,1.6911,1.7206,1.7219,1.7769,1.8315,1.8958,1.9533,1.9786,1.98,2.0401,2.0347,1.9853,2.0722,2.0922,0.0,0.0,2.2365,2.2432,2.2979,2.3193,2.3126,2.2525,2.2111,2.163,2.0241,1.9573,1.9225,1.8651,1.8477,1.8611,0.0,0.0,0.0,0.0,2.3834,0.0,2.5718,2.6213,0.0,0.0,0.0,2.7161,2.6894,2.7295,0.0,0.0,0.0,0.0,0.0,0.0,0.0,0.0,0.0,0.0,0.0,0.0,0.0,0.0,0.0,0.0,0.0,2.9913,2.9913,2.9913,2.9913,2.9913,2.9913,3.0207,3.0501,3.0795,3.1356,3.165,3.1677,3.1944,3.1931,3.1677,3.1957,3.1931,3.1664,3.1664,3.1664,3.1664,3.1664,3.1664,3.1664,3.1664,3.1837,3.2078,3.2078,3.2251,3.2603,0.0,0.0,0.0,0.0,0.0,0.0,0.0,0.0,0.0,0.0,0.0,0.0,0.0,1.817,1.8211,1.8599,1.849,1.8237,1.7742,1.7528,1.7353,1.7058,1.6807,1.6754,1.6884,1.7099,1.7286,1.7474,1.7649,1.7956,1.8315,1.8771,1.9052,1.9292,2.0441,2.0735,2.0414,2.1296,2.1617,2.1657,2.322,2.4062,2.4422,2.4649,2.4957,2.5211,2.4623,2.3861,2.3046,2.2525,2.1643,2.069,1.9853,1.9613,1.9693,2.0094,2.0708,2.1523,0.0,0.0,0.0,2.5104,2.5611,2.5825,2.5825,2.6132,2.6453,2.6533,0.0,0.0,0.0,0.0,0.0,0.0,0.0,0.0,0.0,0.0,0.0,0.0,0.0,0.0,0.0,0.0,0.0,0.0,0.0,2.9913,2.9913,2.9913,2.9913,2.9913,3.0381,3.0862,3.1356,3.1744,3.1944,3.1944,3.2051,3.2051,3.1944,3.1864,3.177,3.1664,3.1664,3.1664,3.1664,3.1664,3.1784,3.1944,3.1944,3.2131,3.2385,3.2385,3.2452,3.267,0.0,0.0,0.0,0.0,0.0,0.0,0.0,0.0,0.0,1.9025,0.0,0.0,0.0,0.0,1.9092,1.9479,1.9332,1.8958,1.8357,1.805,1.7756,1.7462,1.7168,1.7048,1.7192,1.7206,1.73,0.0,0.0,1.7649,1.7995,1.8343,1.8691,1.9118,2.0187,2.0561,2.0441,2.1323,2.1804,2.2138,2.3915,2.481,2.513,2.5625,2.5985,2.6186,2.5692,2.5144,2.4609,2.4315,2.3487,2.2418,2.143,2.0775,2.0441,2.0735,2.0815,0.0,2.2245,0.0,0.0,0.0,0.0,2.5398,2.5491,0.0,2.6159,2.6346,0.0,0.0,0.0,0.0,0.0,0.0,0.0,0.0,0.0,0.0,0.0,0.0,0.0,0.0,0.0,0.0,0.0,0.0,0.0,0.0,2.9913,2.9913,3.0007,3.0207,3.0688,3.1223,3.181,3.2104,3.2198,3.2104,3.2305,3.2238,3.1957,3.2064,3.1944,3.1677,3.177,3.181,3.181,3.181,3.1984,3.2251,3.2251,3.2425,3.2692,3.2692,3.2746,3.2866,0.0,0.0,0.0,0.0,0.0,0.0,0.0,0.0,1.9457,1.9457,0.0,0.0,0.0,0.0,0.0,1.9813,1.9813,1.9573,1.8985,1.8677,1.8384,1.8022,1.7756,1.7514,1.7219,1.7219,1.7219,0.0,0.0,0.0,0.0,0.0,1.8771,1.9345,1.9639,1.9786,1.9867,2.0762,2.147,2.2151,2.3955,2.4516,2.4409,2.5879,2.6266,2.5985,2.5692,2.5945,2.6279,2.5438,2.4917,2.4422,2.322,2.1871,2.0775,2.1042,2.0708,0.0,0.0,0.0,0.0,0.0,0.0,0.0,2.5424,0.0,2.6373,2.6373,0.0,0.0,0.0,0.0,0.0,0.0,0.0,0.0,0.0,0.0,0.0,0.0,0.0,0.0,0.0,0.0,0.0,0.0,2.9913,2.9913,2.9913,2.9913,3.0181,3.0768,3.1076,3.1503,3.2091,3.2398,3.2412,3.2131,3.2692,3.2519,3.173,3.2572,3.2492,3.1704,3.1984,3.2104,3.2118,3.2104,3.2278,3.2656,3.2656,3.2732,3.2986,3.2986,3.3173,3.3414,0.0,0.0,0.0,0.0,0.0,1.8584,1.8878,1.9533,2.0067,0.0,0.0,0.0,2.1243,2.0949,2.0575,2.0147,2.0107,1.996,1.9586,1.9279,1.8905,1.8384,1.8076,1.7769,1.7527,1.7514,1.7514,0.0,0.0,0.0,0.0,0.0,0.0,0.0,1.8945,1.9519,2.0201,2.151,2.2031,2.2218,2.485,2.5732,2.5611,2.6854,2.7415,2.7604,2.7524,2.7241,2.6987,2.6747,2.5758,2.4356,2.2739,2.2098,2.1871,2.1523,2.1015,0.0,2.1534,0.0,0.0,0.0,0.0,0.0,0.0,0.0,0.0,2.6079,0.0,0.0,0.0,0.0,0.0,0.0,0.0,0.0,0.0,0.0,0.0,0.0,0.0,0.0,0.0,0.0,0.0,0.0,2.9793,2.9913,2.9913,2.9913,3.0181,3.0768,3.1076,3.1503,3.2091,3.2398,3.2612,3.2732,3.2692,3.2652,3.2612,3.2425,3.2211,3.1984,3.2064,3.2225,3.2412,3.2185,3.2398,3.2866,3.2866,3.304,3.3293,3.3293,3.3347,3.3414,0.0,0.0,1.837,1.8784,1.9052,1.9359,1.9773,2.0481,2.1029,0.0,0.0,0.0,2.1964,2.179,2.1416,2.0828,2.0668,2.0481,2.0187,1.9666,1.9212,1.8865,1.8343,1.7902,1.7782,1.7528,1.7514,0.0,0.0,0.0,0.0,0.0,0.0,0.0,1.8851,1.9666,2.0708,2.2298,2.2886,2.2899,2.4863,2.5705,2.5905,2.7068,2.7629,2.7899,2.814,2.8087,2.7869,2.811,2.7094,2.5491,2.4088,2.326,2.2686,2.2084,2.1323,0.0,0.0,0.0,0.0,0.0,0.0,0.0,0.0,0.0,0.0,0.0,0.0,0.0,0.0,0.0,0.0,0.0,0.0,0.0,0.0,0.0,0.0,0.0,0.0,0.0,0.0,0.0,0.0,2.9673,2.982,2.9913,2.9913,2.9913,3.0247,3.0955,3.1263,3.169,3.2278,3.2585,3.2692,3.2612,3.2692,3.2625,3.2438,3.2452,3.2265,3.1931,3.2185,3.2385,3.2545,3.2492,3.2746,3.316,3.316,3.3267,3.3414,3.3414,3.3414,3.3414,0.0,0.0,1.8771,1.9359,1.992,2.0468,2.1029,2.1603,2.1991,0.0,2.2044,0.0,2.2031,2.2258,0.0,0.0,2.1363,2.1082,2.0788,2.0013,1.9578,1.947,1.8624,1.8089,1.7995,1.7528,1.7407,1.7582,0.0,0.0,0.0,0.0,0.0,0.0,1.9158,2.0094,2.1363,2.2953,2.3768,2.4062,2.4676,2.5224,2.5785,2.6961,2.7442,2.7535,2.814,2.8417,2.8711,2.9072,2.8377,2.7188,2.6132,2.4796,2.3474,2.2739,2.1737,0.0,0.0,0.0,0.0,0.0,0.0,0.0,0.0,0.0,0.0,0.0,0.0,0.0,0.0,0.0,0.0,0.0,0.0,0.0,0.0,0.0,0.0,0.0,0.0,0.0,0.0,2.9325,2.9606,2.99,2.998,3.0007,2.9967,2.9993,3.0381,3.1196,3.1517,3.1957,3.2629,3.2772,3.2639,3.2158,3.2652,3.2492,3.1797,3.2545,3.2452,3.1744,3.2305,3.2643,3.267,3.2893,3.3173,3.3414,3.3414,3.3414,3.3414,3.3414,3.3414,3.3414,1.8704,1.8998,1.9386,1.996,2.0361,2.0708,2.1056,2.1603,2.1991,2.1991,2.2392,2.2605,2.2365,2.2392,0.0,0.0,0.0,2.1697,2.1467,2.1002,2.0454,1.9746,1.9319,1.8771,1.8009,1.7876,1.7782,1.7582,1.7528,0.0,0.0,0.0,0.0,0.0,1.9452,2.0628,2.2191,2.2539,2.3781,2.5598,2.6426,2.668,2.6694,2.7896,2.8484,2.8711,2.8818,2.8898,2.8791,2.7709,2.7629,2.7698,2.5545,2.5144,2.5144,2.3607,2.2645,2.2004,0.0,0.0,0.0,2.1601,2.2298,0.0,0.0,2.4168,2.4636,0.0,0.0,0.0,0.0,0.0,0.0,0.0,0.0,0.0,0.0,0.0,0.0,0.0,0.0,0.0,0.0,2.9446,2.9606,2.99,3.0354,3.0515,3.0287,3.0501,3.0808,3.1209,3.1517,3.1957,3.2629,3.2358,3.2332,3.2452,3.2332,3.2305,3.2372,3.2305,3.2185,3.2038,3.2385,3.2643,3.2683,3.3106,3.336,3.3414,3.3414,3.3414,3.3414,3.3414,3.3414,3.3414,1.9092,1.9492,2.0027,2.0762,2.1136,2.1483,2.1911,2.2231,2.2472,2.2632,2.3166,2.342,2.3126,2.322,2.3126,0.0,0.0,0.0,2.2298,2.1924,2.1443,2.0708,2.0107,1.9452,1.8718,1.8424,1.8116,1.7809,1.7809,0.0,0.0,0.0,0.0,0.0,0.0,2.1376,2.3327,2.3621,2.469,2.6199,2.6493,2.6961,2.7575,2.8484,2.9098,2.9499,2.9646,2.97,2.9539,2.8497,2.8243,2.811,2.6627,2.6172,2.5879,2.4409,2.346,2.2739,2.2151,2.155,2.1176,2.1547,2.1949,0.0,0.0,0.0,2.3928,2.4516,2.4997,0.0,0.0,0.0,0.0,0.0,0.0,0.0,0.0,0.0,0.0,0.0,0.0,0.0,0.0,2.9526,2.982,3.0114,3.0408,3.0581,3.0581,3.0715,3.0929,3.1209,3.1517,3.181,3.2104,3.2104,3.2171,3.2318,3.2171,3.2185,3.2318,3.2171,3.2104,3.2118,3.2412,3.2723,3.2799,3.3227,3.3414,3.3414,3.3414,3.3414,3.3414,3.3414,3.3414,3.3414,1.9506,1.996,2.0601,2.1547,2.1884,2.2245,2.2847,2.2913,2.3086,2.3447,2.3915,2.4155,2.4035,2.4182,2.4142,2.3781,0.0,0.0,2.322,2.2926,2.2525,2.207,2.1069,2.0321,1.9859,1.9105,1.8571,1.8155,0.0,0.0,0.0,0.0,0.0,0.0,0.0,2.2218,2.4168,2.4983,2.5879,2.672,2.66,2.7321,2.8551,2.9205,2.9753,3.0181,3.0314,3.0354,3.0274,2.974,2.9325,2.8898,2.8123,2.7428,2.6627,2.5211,2.4182,2.3354,2.2686,2.1897,2.1349,2.1643,2.1748,2.1804,0.0,0.0,0.0,0.0,0.0,0.0,0.0,0.0,0.0,0.0,0.0,0.0,0.0,0.0,0.0,0.0,0.0,0.0,0.0,2.9847,3.0434,3.0448,3.0755,3.0929,3.0875,3.0875,3.0982,3.1223,3.1463,3.161,3.1664,3.1904,3.2024,3.2024,3.2024,3.2024,3.2024,3.2024,3.2051,3.2118,3.2412,3.2706,3.3,3.3293,3.3414,3.3414,3.3414,3.3414,3.3414,3.3414,3.3454,3.3494,2.0227,2.0401,2.0895,2.1777,2.2178,2.2485,2.2806,2.31,2.3474,2.4035,2.4168,2.4396,2.4877,2.473,2.477,2.5224,2.5024,2.4756,2.4449,2.4168,2.3861,2.3541,2.2405,2.1643,2.1373,2.0214,1.9386,1.8824,0.0,0.0,0.0,0.0,0.0,0.0,2.1937,2.3129,2.3928,2.5558,2.6907,2.8073,2.8484,2.9098,2.9806,3.0648,3.1022,3.1009,3.0528,3.0354,3.0314,0.0,3.0167,3.0301,0.0,2.8617,2.8297,2.6066,2.4796,2.3915,2.3046,2.2352,2.1951,2.2245,2.2124,2.2164,2.3033,0.0,2.2619,2.2953,0.0,0.0,0.0,0.0,0.0,0.0,0.0,0.0,0.0,0.0,0.0,0.0,0.0,0.0,0.0,0.0,3.1837,3.0822,3.2185,3.2505,3.1249,3.1169,3.1196,3.1223,3.1263,3.1396,3.1664,3.1704,3.1717,3.1717,3.1717,3.1717,3.1717,3.1717,3.1864,3.2118,3.2412,3.2706,3.3,3.3293,3.3414,3.3414,3.3414,3.3414,3.3414,3.3414,3.3587,3.3788,2.1015,2.1229,2.1657,2.2365,2.2592,2.2832,2.3313,2.3928,2.4369,2.4449,2.505,2.5571,2.5812,2.5571,2.5638,2.6226,2.5852,2.5611,2.5651,2.5384,0.0,2.4302,2.33,2.2458,2.1817,2.0989,2.0361,1.9947,1.9653,0.0,0.0,0.0,0.0,0.0,2.2899,2.3915,2.4877,2.6293,2.7575,2.8724,2.9499,3.0354,0.0,3.1022,3.1076,3.1209,3.1142,3.1009,3.0822,0.0,3.0702,0.0,0.0,0.0,0.0,2.7589,2.6293,2.5317,2.4596,2.3968,2.3514,2.3474,2.3487,0.0,2.3354,2.326,2.3086,0.0,0.0,0.0,0.0,0.0,0.0,0.0,0.0,0.0,0.0,0.0,0.0,0.0,0.0,0.0,0.0,0.0,0.0,0.0,0.0,3.2051,3.1263,3.1383,3.133,3.0982,3.1142,3.1209,3.1156,3.133,3.1583,3.1917,3.1744,3.1757,3.1917,3.1744,3.1917,3.2372,3.2589,3.2799,3.324,3.336,3.3414,3.3414,3.3414,3.3414,3.3414,3.3414,3.3494,3.3587,2.2004,2.2017,2.2178,2.2766,2.2939,2.322,2.3901,2.4623,2.509,2.5117,2.5932,2.66,2.6841,2.668,2.6787,2.7375,2.7041,2.6814,2.6867,2.66,2.6186,2.5625,2.4529,2.3661,2.3086,2.2178,2.1496,2.1042,2.0735,0.0,0.0,0.0,0.0,0.0,2.3541,2.4489,2.5611,2.7028,2.823,2.9245,3.0207,3.1156,3.1917,3.137,3.1289,3.1476,3.153,3.141,3.1209,3.1076,3.1169,0.0,3.0408,0.0,3.0087,0.0,0.0,0.0,2.6106,0.0,0.0,0.0,0.0,0.0,0.0,0.0,0.0,0.0,0.0,0.0,0.0,0.0,0.0,0.0,0.0,0.0,0.0,0.0,0.0,0.0,0.0,0.0,0.0,0.0,0.0,0.0,0.0,0.0,3.1249,3.1276,3.1183,3.0915,3.1036,3.1049,3.0915,3.1116,3.1476,3.1984,3.177,3.1784,3.1971,3.177,3.1984,3.2643,3.2643,3.2879,3.3414,3.3414,3.3414,3.3414,3.3414,3.3414,3.3414,3.3414,3.3467,3.3534,2.3273,2.2579,2.2178,2.2766,2.3113,2.3607,2.4476,2.4877,2.5384,2.6226,2.6613,2.7134,2.8073,2.8167,2.831,2.8911,2.8951,2.8698,2.8207,2.7802,2.7762,2.81,2.6373,2.5558,2.5903,2.4142,2.2832,2.1937,2.1722,2.1574,0.0,0.0,0.0,0.0,2.3661,2.469,2.5651,2.7696,2.8911,2.9566,3.0728,3.1396,3.1717,0.0,3.2064,3.1998,3.1436,0.0,0.0,3.1543,3.165,0.0,0.0,0.0,0.0,0.0,0.0,0.0,0.0,0.0,0.0,2.6453,0.0,0.0,0.0,0.0,2.3594,0.0,0.0,0.0,0.0,0.0,0.0,0.0,0.0,0.0,0.0,0.0,0.0,0.0,0.0,0.0,0.0,0.0,0.0,0.0,0.0,0.0,3.1289,3.0702,3.0648,3.1196,3.0942,3.0942,3.1209,3.1223,3.1383,3.1677,3.1677,3.1677,3.1677,3.1677,3.1984,3.2643,3.2643,3.2879,3.3414,3.3414,3.3414,3.3414,3.3414,3.3414,3.3414,3.3414,3.3601,3.3828,2.302,2.2779,2.2752,2.3354,2.3394,2.3621,2.4502,2.5545,2.6333,2.664,2.7455,2.819,2.8684,2.8564,2.8845,2.9833,2.9379,2.9205,2.9579,2.8965,2.8631,2.8724,2.7041,2.5959,2.5665,2.4703,2.3754,2.2873,2.2779,2.2726,0.0,0.0,0.0,0.0,0.0,2.5157,2.5905,2.7375,2.8911,3.0434,0.0,3.1984,3.2238,0.0,3.1984,3.1784,3.1597,3.1517,0.0,3.141,3.177,3.2104,3.133,3.1276,3.1276,3.0114,2.9272,0.0,0.0,0.0,2.7696,2.7696,0.0,0.0,0.0,0.0,0.0,0.0,0.0,0.0,0.0,0.0,0.0,0.0,0.0,0.0,0.0,0.0,0.0,0.0,0.0,0.0,0.0,0.0,0.0,0.0,0.0,0.0,0.0,3.0835,3.1022,3.1223,3.1129,3.1129,3.1223,3.1223,3.137,3.1664,3.1664,3.1664,3.1664,3.1664,3.1984,3.2643,3.2643,3.2879,3.3414,3.3414,3.3414,3.3414,3.3414,3.3414,3.3414,3.3414,3.348,3.3561,2.334,2.326,2.3313,2.3701,2.3875,2.4289,2.5264,2.6306,2.7134,2.7562,2.8377,2.9072,2.9472,2.9432,2.9686,3.0448,3.0087,3.006,3.0635,2.994,2.9553,2.9659,2.827,2.7215,2.6627,2.5718,2.4877,2.4102,2.3688,2.3487,0.0,0.0,0.0,0.0,0.0,2.5384,2.6559,2.7335,2.8831,0.0,0.0,3.2064,0.0,0.0,3.2118,3.2091,0.0,3.1664,3.1637,3.145,3.1757,3.2118,3.1436,3.149,3.1637,3.0889,3.0327,2.986,2.9486,2.9299,0.0,2.8845,2.8751,0.0,2.839,0.0,2.6319,0.0,0.0,0.0,0.0,0.0,0.0,0.0,0.0,0.0,0.0,0.0,0.0,0.0,0.0,0.0,0.0,0.0,0.0,0.0,0.0,0.0,0.0,0.0,3.1062,3.137,3.1276,3.1223,3.1223,3.1223,3.1316,3.1517,3.1623,3.1664,3.1664,3.1664,3.1984,3.2643,3.2643,3.2879,3.3414,3.3414,3.3414,3.3414,3.3414,3.3414,3.3414,3.3414,3.3414,3.3414,2.4209,2.4008,2.3848,2.3875,2.4623,2.5571,2.6653,2.7134,2.7776,2.8911,2.9325,2.9753,3.0314,3.0621,3.0795,3.0808,3.1062,3.1236,3.1249,3.0715,3.0528,3.0822,2.998,2.9232,2.8657,2.7228,2.6172,2.5531,2.4409,2.3834,0.0,0.0,0.0,0.0,2.4222,2.5358,2.7281,2.7562,2.8711,3.0434,3.133,3.169,3.1717,3.1971,3.2438,3.2839,3.1984,3.1664,3.1664,3.1664,3.1664,3.1623,3.1343,3.1249,3.1249,3.1223,3.1036,3.0835,3.0795,3.0194,2.9633,2.9873,0.0,0.0,0.0,0.0,2.7335,0.0,0.0,0.0,0.0,0.0,0.0,0.0,0.0,0.0,0.0,0.0,0.0,0.0,0.0,0.0,0.0,0.0,0.0,0.0,0.0,0.0,0.0,0.0,3.0795,3.1623,3.137,3.1223,3.1209,3.1223,3.1223,3.1209,3.1517,3.1664,3.1664,3.1664,3.1984,3.2643,3.2643,3.2879,3.3414,3.3414,3.3414,3.3414,3.3414,3.3414,3.3414,3.3414,3.3414,3.3414,2.4249,2.4502,2.4877,2.5393,2.6306,2.6987,2.6841,2.8016,2.9032,2.9325,2.982,3.0274,3.0635,3.0755,3.0875,3.1089,3.1183,3.1316,3.1543,3.1209,3.1129,3.1436,3.0394,2.9633,2.9272,2.823,2.7081,2.5838,2.5317,2.473,2.4088,0.0,0.0,0.0,0.0,2.5545,2.7268,2.7348,2.8537,3.0448,3.1557,3.1984,0.0,0.0,3.1957,3.2572,3.1904,3.1664,3.1664,3.1664,3.1664,3.165,3.1583,3.1557,3.1517,3.1289,3.133,3.1343,3.0915,3.0782,3.0688,3.0341,3.0181,3.006,0.0,0.0,0.0,0.0,0.0,0.0,0.0,0.0,0.0,0.0,0.0,0.0,0.0,0.0,0.0,0.0,0.0,0.0,0.0,0.0,0.0,0.0,0.0,0.0,0.0,0.0,0.0,3.1343,3.1263,3.1116,3.0902,3.1116,3.1116,3.0902,3.1423,3.1664,3.1664,3.1664,3.1984,3.2643,3.2643,3.2879,3.3414,3.3414,3.3414,3.3414,3.3414,3.3414,3.3414,3.3414,3.3414,3.3414,2.4997,2.5438,2.5985,2.6453,2.7709,2.847,2.7883,2.8751,2.9713,3.0354,3.0621,3.0902,3.1316,3.1249,3.1236,3.141,3.1423,3.1543,3.1837,3.1583,3.149,3.1664,3.1036,3.0488,3.006,2.9179,2.8136,2.6988,2.6226,0.0,2.4583,0.0,0.0,0.0,0.0,2.5999,2.7792,2.8617,2.9673,3.0808,3.1597,0.0,0.0,3.1356,3.153,3.1944,3.1744,3.1757,3.1877,3.2011,3.2051,3.2024,3.1904,3.177,3.1637,3.1463,3.145,3.141,3.1076,3.1196,3.1276,3.0702,3.0768,3.0862,3.0408,2.9913,2.9526,0.0,0.0,0.0,0.0,0.0,0.0,0.0,0.0,0.0,0.0,0.0,0.0,0.0,0.0,0.0,0.0,0.0,0.0,0.0,0.0,0.0,0.0,0.0,0.0,3.1223,3.1356,3.1156,3.0608,3.1276,3.133,3.0795,3.1383,3.1664,3.1677,3.1797,3.2104,3.2656,3.2679,3.2986,3.3414,3.3414,3.3414,3.3414,3.3414,3.3414,3.3414,3.3414,3.3414,3.3414,2.6211,2.656,2.7054,2.7428,2.8831,2.9766,2.9339,2.9553,3.0207,3.145,3.1423,3.1463,3.1931,3.1797,3.1664,3.1664,3.1664,3.1797,3.2078,3.1837,3.1664,3.1664,3.1664,3.1436,3.0915,3.0087,2.9219,2.8395,2.7255,0.0,0.0,0.0,0.0,0.0,0.0,0.0,0.0,3.0461,3.1289,3.1303,3.157,3.1517,3.1276,3.1196,3.1209,3.1316,3.1583,3.1851,3.2144,3.2398,3.2519,3.2492,3.2198,3.1931,3.1717,3.1637,3.1423,3.1223,3.1223,3.141,3.149,3.0982,3.1062,3.1196,3.0862,3.0822,3.0768,3.0474,2.9606,2.9098,0.0,0.0,0.0,0.0,0.0,0.0,0.0,0.0,0.0,0.0,0.0,0.0,0.0,0.0,0.0,0.0,0.0,0.0,0.0,0.0,0.0,3.1116,3.1396,0.0,3.0541,0.0,3.1637,3.0969,3.145,3.1664,3.1677,3.1971,3.2265,3.2656,3.2853,3.3146,3.3414,3.3414,3.3414,3.3414,3.3414,3.3414,3.3414,3.3414,3.3414,3.3414,2.7081,2.7308,2.7789,2.8591,2.9392,3.0047,3.0421,3.0942,3.1289,3.1303,3.1476,3.153,3.1396,3.1557,3.1664,3.1664,3.1664,3.1797,3.2078,3.1837,3.1664,3.1664,3.1664,3.1623,3.1517,3.0889,3.0127,0.0,0.0,0.0,0.0,0.0,0.0,0.0,0.0,0.0,2.9686,3.1022,0.0,3.1597,3.165,3.1637,3.1543,3.1049,3.1169,3.1597,3.165,3.1851,3.2104,3.2158,3.2345,3.2492,3.2198,3.2064,3.1931,3.145,3.1263,3.1223,3.1223,3.1263,3.1276,3.1169,3.137,3.145,3.0915,3.0982,3.1062,3.0782,3.0555,3.0314,2.998,0.0,0.0,0.0,0.0,0.0,0.0,0.0,0.0,0.0,0.0,0.0,0.0,0.0,0.0,0.0,0.0,0.0,0.0,0.0,0.0,0.0,3.0795,0.0,0.0,0.0,3.1543,3.1864,3.173,3.1664,3.1677,3.1971,3.2265,3.2656,3.2853,3.3146,3.3414,3.3414,3.3414,3.3414,3.3414,3.3414,3.3414,3.3414,3.3414,3.3414,2.819,2.8551,2.9032,2.9619,3.0327,3.0862,3.0996,3.1517,3.1837,3.1704,3.1677,3.1677,3.1677,3.1677,3.1664,3.1664,3.1664,3.173,3.1864,3.1744,3.1664,3.1664,3.1664,3.1744,3.1891,3.161,3.1036,3.0167,0.0,0.0,0.0,0.0,0.0,0.0,0.0,2.9566,0.0,0.0,0.0,3.1436,3.1436,3.1356,3.1183,3.0902,3.1062,3.1463,3.161,3.1851,3.2131,3.2278,3.2532,3.2692,3.2251,3.2104,3.2024,3.1583,3.1343,3.1223,3.1223,3.1223,3.1223,3.1223,3.133,3.1356,3.1076,3.1249,3.133,3.0889,3.0915,3.0835,3.0247,3.0181,0.0,0.0,0.0,0.0,0.0,0.0,0.0,0.0,0.0,0.0,0.0,0.0,0.0,0.0,0.0,0.0,0.0,0.0,0.0,0.0,0.0,0.0,0.0,0.0,0.0,3.1423,3.1597,3.1664,3.1677,3.2131,3.2412,3.267,3.3013,3.328,3.3414,3.3414,3.3414,3.3414,3.3414,3.3414,3.3414,3.3414,3.3414,3.3414,2.9259,2.974,3.0194,3.0488,3.1223,3.1664,3.137,3.1824,3.2144,3.2024,3.1864,3.1797,3.1904,3.177,3.1664,3.1664,3.1664,3.169,3.1757,3.1704,3.1637,3.1583,3.1637,3.1744,3.1917,3.1984,3.1637,0.0,0.0,0.0,0.0,0.0,0.0,0.0,0.0,0.0,0.0,0.0,3.169,3.1316,3.1183,3.1036,3.0889,3.0889,3.1062,3.1356,3.1583,3.1824,3.2051,3.2278,3.2599,3.2799,3.2265,3.2104,3.2038,3.1677,3.141,3.1223,3.1223,3.1223,3.1223,3.1223,3.1223,3.1223,3.1223,3.141,3.145,3.0982,3.1022,3.1049,3.0782,3.1142,0.0,0.0,0.0,0.0,0.0,0.0,0.0,0.0,0.0,0.0,0.0,0.0,0.0,0.0,0.0,0.0,0.0,0.0,0.0,0.0,0.0,3.1129,3.0915,0.0,3.1664,0.0,3.1503,3.1664,3.169,3.2278,3.2643,3.267,3.316,3.3414,3.3414,3.3414,3.3414,3.3414,3.3414,3.3414,3.3414,3.3414,3.3414,3.3414,3.0181,3.0488,3.0808,3.1089,3.165,3.1971,3.1677,3.2131,3.2318,3.1784,3.1917,3.1864,3.137,3.153,3.1664,3.1664,3.1664,3.1784,3.2051,3.181,3.1543,3.1276,3.153,3.1557,3.1316,3.157,3.153,0.0,0.0,3.0448,0.0,0.0,0.0,0.0,0.0,0.0,0.0,3.1383,3.1436,3.1583,3.1049,3.0969,3.1183,3.1183,3.137,3.1637,3.1664,3.169,3.1717,3.1744,3.2118,3.2532,3.2211,3.2104,3.1998,3.1436,3.1249,3.1223,3.1223,3.1223,3.1223,3.1223,3.1223,3.1223,3.1223,3.1249,3.1249,3.1196,3.0996,3.1062,3.1797,3.1356,3.1009,0.0,0.0,0.0,0.0,0.0,0.0,0.0,0.0,0.0,0.0,0.0,0.0,0.0,0.0,0.0,0.0,0.0,0.0,3.1971,0.0,3.1717,3.2719,3.1784,3.1664,3.2469,3.1891,3.1664,3.169,3.2278,3.2643,3.267,3.316,3.3414,3.3414,3.3414,3.3414,3.3414,3.3414,3.3414,3.3414,3.3414,3.3414,3.3414,3.0755,3.0969,3.1142,3.1436,3.1824,3.2011,3.1717,3.2024,3.2131,3.1717,3.1917,3.1944,3.153,3.1757,3.1931,3.1931,3.2091,3.2171,3.2104,3.1998,3.1797,3.1503,3.161,3.169,3.1757,3.1864,3.1864,0.0,0.0,0.0,0.0,0.0,0.0,0.0,0.0,3.173,3.1423,3.165,3.1517,3.1142,3.1076,3.1116,3.1223,3.1223,3.141,3.1664,3.1664,3.1664,3.1664,3.1664,3.1944,3.2225,3.1931,3.1957,3.2024,3.161,3.149,3.145,3.1276,3.1223,3.1223,3.1223,3.1223,3.1223,3.1223,3.1223,3.1169,3.0996,3.1009,3.1209,3.1744,3.1837,3.1744,0.0,0.0,0.0,0.0,0.0,0.0,0.0,0.0,0.0,0.0,0.0,0.0,0.0,0.0,0.0,0.0,0.0,0.0,3.2625,0.0,3.1704,3.2706,3.173,3.1396,3.1757,3.1704,3.1757,3.1944,3.2358,3.2732,3.308,3.3307,3.3414,3.3414,3.3414,3.3414,3.3414,3.3414,3.3414,3.3414,3.3414,3.3414,3.3414,3.1249,3.1356,3.1423,3.1637,3.1904,3.2011,3.1717,3.2064,3.2225,3.1851,3.2131,3.2211,3.1837,3.2051,3.2238,3.2238,3.2425,3.2452,3.2251,3.2144,3.1971,3.1677,3.1664,0.0,3.1837,3.1931,3.1971,3.1971,3.2385,0.0,0.0,3.161,3.1704,0.0,3.1917,3.1744,3.137,3.161,3.141,3.0942,3.1142,3.1223,3.1249,3.1423,3.161,3.181,3.1891,3.1931,3.1931,3.1931,3.2064,3.2171,3.1784,3.181,3.1931,3.173,3.1664,3.1623,3.141,3.1356,3.133,3.1249,3.1223,3.1223,3.1223,3.1223,3.1169,3.0969,3.1022,3.1156,3.137,3.1744,3.1877,3.1423,0.0,0.0,0.0,0.0,0.0,0.0,0.0,3.1303,0.0,0.0,0.0,0.0,0.0,0.0,0.0,0.0,0.0,0.0,0.0,0.0,0.0,3.141,3.1049,3.1223,3.153,3.1824,3.2118,3.2505,3.2946,3.3414,3.3414,3.3414,3.3414,3.3414,3.3414,3.3414,3.3414,3.3414,3.3414,3.3414,3.3414,3.3414,3.1717,3.1664,3.1664,3.1664,3.1904,3.2011,3.1717,3.2412,3.2759,3.2171,3.2612,3.2746,3.2158,3.2358,3.2545,3.2545,3.2643,3.2643,3.2545,3.2265,3.1971,0.0,0.0,3.153,3.1249,3.153,3.1677,3.1677,0.0,0.0,2.9085,2.9379,3.0448,3.2078,3.1797,3.1664,3.1623,3.1049,3.0969,3.1223,3.1223,3.1223,3.1289,3.1877,3.2091,3.2131,3.2425,3.2629,3.2629,3.2629,3.2629,3.2536,3.1851,3.1677,3.1677,3.1664,3.1664,3.1664,3.1664,3.1664,3.1597,3.1303,3.1223,3.1223,3.1223,3.1223,3.1223,3.1223,3.0996,3.0795,3.0808,3.0808,3.0996,3.157,0.0,0.0,0.0,0.0,0.0,0.0,3.1984,3.2616,3.2616,0.0,0.0,0.0,0.0,0.0,0.0,0.0,0.0,3.2545,3.1222,0.0,3.1677,3.0808,3.0662,3.1223,3.153,3.1824,3.2118,3.2706,3.3133,3.3414,3.3414,3.3414,3.3414,3.3414,3.3414,3.3414,3.3414,3.3414,3.3414,3.3414,3.3414,3.3414,3.161,3.1503,3.149,3.1891,3.2038,3.2144,3.2251,3.2505,3.2612,3.2425,3.2746,3.2906,3.2719,3.2786,3.2839,0.0,3.3026,3.3053,0.0,3.2746,3.2572,3.2375,3.2078,3.1917,3.1824,3.1717,3.1664,3.1664,0.0,0.0,0.0,3.1637,3.1851,3.1797,3.1704,3.1557,3.137,3.1383,3.133,3.1263,3.1664,3.1824,3.1864,3.2251,3.2412,3.2412,3.2519,3.2643,3.2643,3.2643,3.2643,3.2616,3.2332,3.2131,3.1931,3.173,3.1664,3.1664,3.1664,3.1664,3.165,3.1557,3.153,3.1476,3.1276,3.1076,3.0982,3.1183,3.0996,3.0849,3.1049,3.0929,3.0795,3.0782,3.0621,0.0,0.0,0.0,0.0,0.0,3.1062,3.1423,0.0,3.2452,0.0,0.0,0.0,0.0,0.0,0.0,0.0,0.0,3.1917,0.0,3.2559,3.149,3.1142,3.153,3.1623,3.2038,3.2732,3.3534,3.3948,3.4015,3.3814,3.3855,3.4015,3.3814,3.3855,3.4028,3.4028,3.3908,3.3734,3.3734,3.3601,3.3414,3.1944,3.1851,3.1837,3.2211,3.2265,3.2332,3.2616,3.2737,3.2706,3.2706,3.2959,3.3146,3.3146,3.3146,0.0,3.3146,3.3307,3.3334,3.3146,3.304,3.2906,3.2719,3.2425,3.2265,3.2265,3.2091,0.0,3.1837,3.1904,3.1944,3.1944,3.2318,3.2198,3.1664,3.1557,3.1517,3.1557,3.1637,3.169,3.1757,3.2118,3.2265,3.2305,3.2599,3.2706,3.2719,3.2826,3.2866,3.2866,3.2866,3.2866,3.2853,3.2746,3.2585,3.2345,3.1957,3.1837,3.181,3.1704,3.1664,3.1664,3.1664,3.1664,3.1623,3.1436,3.1169,3.1009,3.1196,3.0996,3.0849,3.1036,3.0915,3.0742,3.0555,3.0528,3.0421,3.0127,0.0,0.0,0.0,0.0,0.0,0.0,3.2385,0.0,0.0,0.0,0.0,0.0,0.0,0.0,3.2599,3.1677,0.0,3.2318,3.1476,3.1263,3.1677,3.1998,3.2572,3.3347,3.4015,3.4322,3.4309,3.4015,3.4055,3.4295,3.4002,3.4055,3.4322,3.4322,3.4202,3.4055,3.4055,3.3921,3.3734,3.2696,3.2643,3.2656,3.267,3.267,3.2585,3.2599,3.2839,3.3013,3.3013,3.324,3.3414,3.3414,3.3414,3.3414,3.3414,0.0,0.0,0.0,3.316,3.3013,3.3013,3.2732,3.267,3.267,3.2656,3.2412,3.2131,3.1877,3.1744,3.173,3.1744,3.1744,3.1717,3.1436,3.1623,3.2118,3.1837,3.2051,3.2643,3.267,3.267,3.271,3.2906,3.3013,3.304,3.332,3.3414,3.3414,3.3414,3.3414,3.336,3.3093,3.3013,3.2893,3.2305,3.2131,3.2078,3.1797,3.1717,3.1704,3.1704,3.1677,3.1664,3.1664,3.145,3.1249,3.1249,3.1022,3.0822,3.0822,3.0808,3.0795,3.0795,3.0795,3.0702,3.0434,0.0,0.0,0.0,0.0,0.0,0.0,3.2893,3.2692,0.0,0.0,0.0,0.0,0.0,3.2732,3.1303,3.0728,3.0715,3.1249,3.0982,3.1142,3.1744,3.2599,3.332,3.3921,3.4242,3.4376,3.4362,3.4082,3.4108,3.4362,3.4068,3.4122,3.4376,3.4376,3.4362,3.4349,3.4349,3.4336,3.4282,0.0,0.0,3.2612,3.2839,3.2879,3.2946,3.3173,3.3267,3.3307,3.3307,3.3374,3.3414,3.3414,3.3414,3.3414,3.3414,3.3414,3.3414,3.3414,3.3347,3.3307,3.3307,3.3026,3.2879,3.2879,3.2652,3.2519,3.2438,3.2599,3.2559,3.2345,3.2559,3.2545,3.2332,3.2265,3.2305,3.2438,3.2372,3.2509,3.2656,3.2786,3.2879,3.2906,3.32,3.3307,3.332,3.3387,3.3414,3.3414,3.3414,3.3414,3.34,3.3334,3.3307,3.32,3.2612,3.2438,3.2425,3.2358,3.2171,3.1998,3.1998,3.1837,3.1664,3.1664,3.161,3.157,3.157,3.133,3.1129,3.1129,3.0942,3.0795,3.0795,3.0795,3.0768,3.0702,3.0755,0.0,0.0,3.1396,3.1583,3.1944,3.1984,3.2291,0.0,0.0,0.0,0.0,3.3187,3.2612,3.1597,3.1436,3.1423,3.1557,3.1503,3.1757,3.2345,3.3,3.3627,3.4229,3.475,3.499,3.4977,3.4683,3.4723,3.4963,3.467,3.4723,3.499,3.499,3.4857,3.4656,3.4656,3.4509,3.4309,3.2973,3.2946,3.2986,3.3146,3.3173,3.3227,3.3387,3.3414,3.3467,3.3614,3.3507,3.3467,3.3614,3.3494,3.3467,3.3614,3.3494,3.3414,3.3414,3.3414,3.3414,3.3414,3.3253,3.3173,3.3173,3.3026,3.2879,3.2746,3.2772,3.2706,3.2643,3.2706,3.2692,3.2643,3.2643,3.271,3.2746,3.2746,3.2826,3.2959,3.3106,3.3173,3.32,3.3347,3.3414,3.3414,3.3414,3.3414,3.3414,3.3414,3.3414,3.3414,3.3414,3.3414,3.3347,3.3026,3.2853,3.2719,3.2585,3.2425,3.2278,3.2131,3.1984,3.1837,3.1704,3.1664,3.1664,3.1664,3.1543,3.1423,3.1423,3.1303,3.1156,3.1009,3.0875,3.0742,3.0608,3.0595,3.0648,3.0808,3.1062,3.1289,3.145,3.1583,3.1944,3.2585,3.2478,0.0,3.2853,3.2559,3.2225,3.1877,3.1744,3.1664,3.1664,3.1931,3.2372,3.2959,3.3547,3.4135,3.4736,3.5044,3.5124,3.499,3.483,3.4857,3.499,3.483,3.4937,3.5191,3.5191,3.5097,3.4963,3.4963,3.4857,3.4696,3.3547,3.348,3.3467,3.3414,3.3414,3.3427,3.348,3.344,3.3547,3.3908,3.3681,3.3601,3.3921,3.3708,3.3654,3.3935,3.3708,3.3547,3.3547,3.3547,3.3547,3.3547,3.3547,3.3547,3.3547,3.3507,3.336,3.312,3.2826,3.2679,3.2679,3.2679,3.2679,3.2679,3.2679,3.2812,3.304,3.304,3.3187,3.3414,3.3414,3.3414,3.3414,3.3414,3.3414,3.3414,3.3414,3.3414,3.3414,3.3414,3.3414,3.3414,3.3414,3.3414,3.3414,3.3414,3.324,3.2986,3.2746,3.2639,3.2545,3.2238,3.2171,3.2104,3.1864,3.177,3.173,3.173,3.1704,3.1664,3.1664,3.1664,3.1664,3.1637,3.1196,3.0849,3.0822,0.0,3.0488,3.0488,3.0969,3.1289,3.1289,3.1517,3.169,3.173,3.169,3.1704,3.1797,3.1717,3.1824,3.2158,3.1837,3.169,3.173,3.2278,3.2866,3.3521,3.4055,3.4629,3.5191,3.5191,3.5044,3.4763,3.4763,3.4763,3.4763,3.4763,3.4937,3.5191,3.5191,3.5191,3.5191,3.5191,3.5191,3.5164,3.3868,3.3814,3.3734,3.3454,3.3414,3.3507,3.3774,3.3587,3.3614,3.4175,3.4002,3.3921,3.4215,3.4202,3.4202,3.4242,3.4202,3.4175,3.4175,3.4175,3.4175,3.4175,3.4175,3.4175,3.4175,3.3935,3.3788,3.3748,3.3427,3.328,3.328,3.328,3.328,3.328,3.328,3.3307,3.3347,3.3347,3.3374,3.3414,3.3414,3.3414,3.3414,3.3414,3.3414,3.3414,3.3414,3.3414,3.3414,3.3414,3.3414,3.3414,3.3414,3.3414,3.3414,3.3414,3.3374,3.3334,3.3293,3.3093,3.2839,3.2545,3.2478,3.2465,3.2425,3.2211,3.2038,3.2038,3.1837,3.1664,3.1664,3.1664,3.2064,3.328,3.2171,3.157,3.2772,0.0,3.1089,3.1089,3.1396,3.1597,3.1597,3.1637,3.177,3.2011,3.181,3.1891,3.2385,3.1944,3.1917,3.2465,3.1957,3.1784,3.2038,3.2372,3.2973,3.3828,3.4162,3.4629,3.5191,3.5191,3.5044,3.4763,3.4763,3.4763,3.4763,3.4763,3.4937,3.5191,3.5191,3.5191,3.5191,3.5191,3.5191,3.5191,3.4175,3.4122,3.4028,3.3721,3.3668,3.3654,3.3627,3.3654,3.3828,3.4255,3.4202,3.4229,3.4523,3.4416,3.4389,3.4549,3.4563,3.4629,3.4776,3.4496,3.4322,3.4322,3.4322,3.4322,3.4322,3.4189,3.4122,3.4122,3.3975,3.3895,3.3895,3.3895,3.3895,3.3895,3.3895,3.3895,3.3895,3.3895,3.3895,3.3895,3.3895,3.3895,3.3895,3.3895,3.3895,3.3881,3.3721,3.3668,3.3641,3.3467,3.3414,3.3414,3.3414,3.3414,3.3414,3.3414,3.3414,3.3414,3.3414,3.332,3.3146,3.2853,3.2786,3.2732,3.2585,3.2438,3.2345,3.2345,3.2238,3.2144,3.2144,3.2144,3.2318,3.2839,3.2238,3.1877,3.2398,3.2024,3.169,3.169,3.1957,3.2144,3.2144,3.2144,3.2198,3.2332,3.2211,3.2361,3.2629,3.2388,3.2265,3.2629,3.2278,3.2278,3.2572,3.304,3.3547,3.4122,3.4416,3.4776,3.5191,3.487,3.4736,3.475,3.4589,3.4616,3.4763,3.4763,3.4937,3.5191,3.5191,3.5191,3.5191,3.5191,3.5191,3.5191,3.4482,3.4429,3.4336,3.4042,3.3988,3.3935,3.3748,3.3881,3.4122,3.4482,3.4523,3.4616,3.4843,3.4723,3.4683,3.4857,3.487,3.4963,3.5177,3.4776,3.4523,3.4523,3.4523,3.4523,3.4523,3.4456,3.4429,3.4429,3.4349,3.4322,3.4322,3.4322,3.4322,3.4322,3.4322,3.4322,3.4322,3.4322,3.4322,3.4322,3.4322,3.4322,3.4322,3.4322,3.4322,3.4295,3.4068,3.3988,3.3935,3.3627,3.3521,3.3507,3.3427,3.3414,3.3414,3.3414,3.3414,3.3414,3.3414,3.3414,3.336,3.3133,3.308,3.3026,3.2799,3.2692,3.2652,3.2652,3.2599,3.2643,3.2643,3.2643,3.2585,3.2692,3.2372,3.2171,3.2358,3.2225,3.2131,3.2198,3.2412,3.2643,3.2643,3.2643,3.2643,3.2643,3.2643,3.2643,3.2643,3.2643,3.267,3.2639,3.2585,3.2719,3.308,3.3614,3.4068,3.4429,3.4723,3.4977,3.5177,3.4723,3.4616,3.475,3.4456,3.4456,3.4656,3.4589,3.4736,3.5004,3.507,3.5097,3.5097,3.5177,3.5191,3.5191,3.479,3.4736,3.4643,3.4336,3.4282,3.4376,3.4629,3.4456,3.4496,3.5057,3.5124,3.5137,3.5164,3.5378,3.5431,3.5191,3.5164,3.5177,3.5191,3.5151,3.5124,3.5124,3.5124,3.5124,3.5124,3.487,3.4736,3.4736,3.4456,3.4322,3.4322,3.4322,3.4322,3.4322,3.4322,3.4322,3.4322,3.4322,3.4322,3.4322,3.4322,3.4322,3.4322,3.4322,3.4322,3.4322,3.4295,3.4282,3.4242,3.3948,3.3855,3.3801,3.3507,3.3414,3.3414,3.3414,3.3414,3.3414,3.3414,3.3414,3.3414,3.3387,3.3374,3.3374,3.336,3.3146,3.2946,3.2946,3.2732,3.2643,3.2643,3.2643,3.2986,3.4336,3.3173,3.2666,3.4295,3.312,3.2211,3.2576,3.2629,3.2643,3.2643,3.2643,3.2643,3.2643,3.2643,3.2643,3.2643,3.2643,3.2666,3.2933,3.2692,3.2812,3.3374,3.3721,3.4175,3.4736,3.503,3.5177,3.5191,3.5151,3.5004,3.475,3.4456,3.4336,3.4336,3.4055,3.4122,3.4416,3.4683,3.479,3.483,3.5097,3.5191,3.5191,3.5057,3.503,3.4937,3.4643,3.4589,3.4576,3.4496,3.4549,3.467,3.4897,3.5231,3.5458,3.5458,3.5565,3.5591,3.5471,3.5297,3.5191,3.5191,3.5191,3.5191,3.5191,3.5191,3.5191,3.5191,3.5084,3.503,3.503,3.4923,3.487,3.487,3.487,3.487,3.487,3.487,3.487,3.487,3.487,3.487,3.487,3.487,3.487,3.487,3.487,3.487,3.4843,3.4656,3.4589,3.4549,3.4255,3.4148,3.4108,3.3801,3.3708,3.3668,3.3467,3.3414,3.3414,3.3414,3.3414,3.3414,3.3414,3.3414,3.3414,3.3414,3.332,3.324,3.324,3.316,3.308,3.308,3.308,3.3213,3.3587,3.324,3.3093,3.3587,3.3227,3.2959,3.3066,3.308,3.308,3.308,3.308,3.308,3.308,3.308,3.308,3.308,3.308,3.3227,3.3534,3.344,3.3574,3.3975,3.4282,3.4549,3.4763,3.4683,3.475,3.491,3.4549,3.4523,3.475,3.4456,3.4322,3.4309,3.4202,3.4336,3.4603,3.4723,3.487,3.5044,3.5151,3.5191,3.5191,3.5191,3.5191,3.5137,3.4937,3.4897,3.483,3.4629,3.4763,3.4897,3.4897,3.5404,3.5738,3.5645,3.5712,3.5725,3.5631,3.5364,3.5191,3.5191,3.5191,3.5191,3.5191,3.5191,3.5191,3.5191,3.5191,3.5191,3.5191,3.5191,3.5191,3.5191,3.5191,3.5191,3.5191,3.5191,3.5191,3.5191,3.5191,3.5191,3.5191,3.5191,3.5191,3.5191,3.5191,3.5191,3.5177,3.4963,3.4897,3.4857,3.4563,3.4456,3.4416,3.4122,3.3961,3.3841,3.3627,3.3494,3.3414,3.3414,3.3414,3.3414,3.3414,3.3414,3.3414,3.3414,3.3414,3.3414,3.3414,3.3414,3.3414,3.3414,3.3414,3.3347,3.3146,3.328,3.3347,3.3146,3.328,3.3414,3.3414,3.3414,3.3414,3.3414,3.3414,3.3414,3.3414,3.3414,3.3414,3.3414,3.3507,3.3654,3.3881,3.4068,3.4255,3.4456,3.4656,3.4817,3.4897,3.4696,3.4696,3.4883,3.4482,3.4523,3.4883,3.4589,3.4402,3.4322,3.4322,3.4389,3.4509,3.4696,3.4883,3.507,3.5164,3.5191,3.5191,3.5191,3.5191,3.5191,3.5191,3.5191,3.5191,3.5191,3.5191,3.5191,3.5191,3.5712,3.5965,3.5672,3.5899,3.5952,3.5658,3.5364,3.5204,3.5191,3.5191,3.5191,3.5191,3.5191,3.5191,3.5191,3.5191,3.5191,3.5191,3.5191,3.5191,3.5191,3.5191,3.5191,3.5191,3.5191,3.5191,3.5191,3.5191,3.5191,3.5191,3.5191,3.5191,3.5191,3.5191,3.5191,3.5191,3.5191,3.5191,3.5151,3.487,3.4763,3.471,3.4416,3.4122,3.3895,3.3895,3.3668,3.3414,3.3414,3.3414,3.3414,3.3414,3.3414,3.3414,3.3414,3.3414,3.3414,3.3414,3.3414,3.3414,3.3414,3.3414,3.3414,3.3414,3.3414,3.3414,3.3414,3.3414,3.3414,3.3414,3.3414,3.3414,3.3414,3.3414,3.3414,3.3414,3.3414,3.3414,3.3414,3.3721,3.3895,3.3895,3.4456,3.4763,3.4763,3.4763,3.491,3.5191,3.5191,3.5191,3.5191,3.5191,3.5191,3.5177,3.4897,3.4603,3.4322,3.4322,3.4148,3.3948,3.4536,3.4763,3.4803,3.5097,3.5191,3.5191,3.5191,3.5191,3.5191,3.5191,3.5191,3.5191,3.5191,3.5191,3.5191,3.5191,3.5712,3.6046,3.5952,3.6206,3.6259,3.5965,3.5672,3.5418,3.5204,3.5191,3.5191,3.5191,3.5191,3.5191,3.5191,3.5191,3.5191,3.5191,3.5191,3.5191,3.5191,3.5191,3.5191,3.5191,3.5191,3.5191,3.5191,3.5191,3.5191,3.5191,3.5191,3.5191,3.5191,3.5191,3.5191,3.5191,3.5191,3.5191,3.5177,3.5097,3.507,3.5017,3.4723,3.4429,3.4189,3.4189,3.3975,3.3748,3.3748,3.3587,3.3414,3.3414,3.3414,3.3414,3.3414,3.3414,3.3414,3.3414,3.3414,3.3414,3.3414,3.3414,3.3414,3.3414,3.3414,3.3414,3.3414,3.3414,3.3414,3.3414,3.3414,3.3414,3.3414,3.3414,3.3414,3.3414,3.3414,3.3507,3.3734,3.3841,3.4082,3.4496,3.467,3.4857,3.507,3.507,3.5004,3.4897,3.4897,3.4897,3.4897,3.4897,3.4897,3.4897,3.5017,3.479,3.4336,3.4549,3.4576,3.4523,3.4696,3.4883,3.5084,3.5164,3.5191,3.5191,3.5191,3.5191,3.5191,3.5191,3.5191,3.5191,3.5191,3.5191,3.5191,3.5191,3.5712,3.6072,3.6072,3.6326,3.6433,3.6259,3.5872,3.5511,3.5217,3.5191,3.5191,3.5191,3.5191,3.5191,3.5191,3.5191,3.5191,3.5191,3.5191,3.5191,3.5191,3.5191,3.5191,3.5191,3.5191,3.5191,3.5191,3.5191,3.5191,3.5191,3.5191,3.5191,3.5191,3.5191,3.5191,3.5191,3.5191,3.5191,3.5191,3.5191,3.5191,3.5164,3.499,3.4736,3.4496,3.4496,3.4282,3.4055,3.4055,3.3828,3.3601,3.3601,3.3507,3.3414,3.3414,3.3414,3.3414,3.3414,3.3414,3.3414,3.3414,3.3414,3.3414,3.3414,3.3414,3.3414,3.3414,3.3414,3.3414,3.3414,3.3414,3.3414,3.3414,3.3414,3.3414,3.3414,3.3414,3.3547,3.3868,3.4002,3.4282,3.475,3.487,3.5017,3.5191,3.5191,3.511,3.4937,3.4937,3.4937,3.4937,3.4937,3.4937,3.495,3.5124,3.4937,3.4523,3.4817,3.487,3.4776,3.4897,3.5044,3.5191,3.5191,3.5191,3.5191,3.5231,3.5217,3.5191,3.5191,3.5191,3.5191,3.5191,3.5191,3.5191,3.5191,3.5712,3.6072,3.6072,3.6353,3.654,3.65,3.5992,3.5551,3.5297,3.5271,3.5257,3.5231,3.5231,3.5217,3.5191,3.5191,3.5191,3.5191,3.5191,3.5191,3.5191,3.5191,3.5191,3.5191,3.5191,3.5191,3.5191,3.5191,3.5191,3.5191,3.5191,3.5191,3.5191,3.5191,3.5191,3.5191,3.5191,3.5191,3.5191,3.5191,3.5191,3.5191,3.5191,3.5017,3.4803,3.4803,3.4589,3.4362,3.4362,3.4148,3.3921,3.3921,3.3694,3.3454,3.3414,3.3414,3.3414,3.3414,3.3414,3.3414,3.3414,3.3414,3.3414,3.3414,3.3414,3.3414,3.3414,3.3414,3.3414,3.3414,3.3414,3.3414,3.3414,3.3414,3.3414,3.3414,3.3414,3.3561,3.3908,3.4175,3.4469,3.479,3.5057,3.5191,3.5191,3.5191,3.5191,3.5191,3.5191,3.5191,3.5191,3.5191,3.5191,3.5191,3.5191,3.5044,3.4817,3.5084,3.5044,3.483,3.5097,3.5191,3.5191,3.5191,3.5191,3.5191,3.5538,3.5351,3.5191,3.5191,3.5191,3.5191,3.5191,3.5191,3.5191,3.5191,3.5712,3.6072,3.6072,3.654,3.6754,3.654,3.6179,3.5952,3.5885,3.5885,3.5778,3.5551,3.5538,3.5431,3.5204,3.5191,3.5191,3.5191,3.5191,3.5191,3.5191,3.5191,3.5191,3.5191,3.5191,3.5191,3.5191,3.5191,3.5191,3.5191,3.5191,3.5191,3.5191,3.5191,3.5191,3.5191,3.5191,3.5191,3.5191,3.5191,3.5191,3.5191,3.5191,3.5151,3.5097,3.5097,3.4897,3.467,3.467,3.4456,3.4229,3.4229,3.4002,3.3721,3.3467,3.3414,3.3414,3.3414,3.3414,3.3414,3.3414,3.3414,3.3414,3.3414,3.3414,3.3414,3.3414,3.3414,3.3414,3.3414,3.3414,3.3414,3.3414,3.3414,3.3414,3.3414,3.3414,3.3654,3.4202,3.4282,3.4563,3.5084,3.5164,3.5191,3.5191,3.5191,3.5191,3.5191,3.5191,3.5191,3.5191,3.5191,3.5191,3.5191,3.5191,3.5164,3.511,3.5177,3.5164,3.511,3.5177,3.5191,3.5191,3.5191,3.5191,3.5191,3.5845,3.5605,3.5404,3.5404,3.5284,3.5191,3.5191,3.5191,3.5191,3.5191,3.5591,3.5912,3.6059,3.6473,3.6687,3.6513,3.6366,3.6219,3.6086,3.6072,3.6006,3.5845,3.5845,3.5765,3.5618,3.5618,3.5471,3.5191,3.5191,3.5191,3.5191,3.5191,3.5191,3.5191,3.5191,3.5191,3.5191,3.5191,3.5191,3.5191,3.5191,3.5191,3.5191,3.5191,3.5191,3.5191,3.5191,3.5191,3.5191,3.5191,3.5191,3.5191,3.5191,3.5191,3.5191,3.5191,3.5084,3.4963,3.4963,3.4763,3.4536,3.4536,3.4309,3.4015,3.3708,3.3521,3.3414,3.3414,3.3414,3.3414,3.3414,3.3414,3.3414,3.3414,3.3414,3.3414,3.3414,3.3414,3.3414,3.3414,3.3414,3.3414,3.3414,3.3414,3.3414,3.3414,3.3547,3.3841,3.4295,3.4456,3.4736,3.5177,3.5191,3.5191,3.5191,3.5191,3.5191,3.5191,3.5191,3.5191,3.5191,3.5191,3.5191,3.5191,3.5191,3.5191,3.5191,3.5191,3.5191,3.5191,3.5191,3.5191,3.5191,3.5191,3.5191,3.5191,3.6153,3.5912,3.5712,3.5712,3.5511,3.5324,3.5284,3.5271,3.5257,3.5204,3.5444,3.5725,3.5965,3.6299,3.654,3.658,3.658,3.6473,3.6233,3.6219,3.6219,3.6219,3.6219,3.6206,3.6153,3.6193,3.5939,3.5351,3.5351,3.5351,3.5351,3.5297,3.5271,3.5271,3.5217,3.5191,3.5191,3.5191,3.5191,3.5191,3.5191,3.5191,3.5191,3.5191,3.5191,3.5191,3.5191,3.5191,3.5191,3.5191,3.5191,3.5191,3.5191,3.5191,3.5191,3.5191,3.5191,3.5191,3.5191,3.5017,3.4843,3.4843,3.4616,3.4336,3.4095,3.3761,3.348,3.3427,3.3414,3.3414,3.3414,3.3414,3.3414,3.3414,3.3414,3.3414,3.3414,3.3414,3.3414,3.3414,3.3414,3.3414,3.3414,3.3414,3.3414,3.3414,3.3708,3.4015,3.4309,3.4603,3.4897,3.5191,3.5191,3.5191,3.5191,3.5191,3.5191,3.5191,3.5191,3.5191,3.5191,3.5191,3.5191,3.5191,3.5191,3.5191,3.5191,3.5191,3.5191,3.5191,3.5191,3.5191,3.5191,3.5191,3.5191,3.5191,3.6433,3.6206,3.6019,3.6019,3.5979,3.5872,3.5605,3.5578,3.5485,3.5231,3.5444,3.5645,3.5685,3.6179,3.6607,3.6861,3.6874,3.6861,3.6834,3.6834,3.6834,3.6834,3.6834,3.6687,3.6473,3.6687,3.654,3.5952,3.5952,3.5952,3.5952,3.5685,3.5578,3.5565,3.5311,3.5191,3.5191,3.5191,3.5191,3.5191,3.5191,3.5191,3.5191,3.5191,3.5191,3.5191,3.5191,3.5191,3.5191,3.5191,3.5191,3.5191,3.5191,3.5191,3.5191,3.5191,3.5191,3.5191,3.5191,3.5164,3.5137,3.5137,3.4923,3.4696,3.4656,3.4215,3.3748,3.3467,3.3414,3.3414,3.3414,3.3414,3.3414,3.3414,3.3414,3.3414,3.3414,3.3414,3.3414,3.3414,3.3414,3.3414,3.3414,3.3414,3.3414,3.3414,3.3708,3.4015,3.4309,3.4603,3.4897,3.5191,3.5191,3.5191,3.5191,3.5191,3.5191,3.5191,3.5191,3.5191,3.5191,3.5191,3.5191,3.5191,3.5191,3.5191,3.5191,3.5191,3.5191,3.5191,3.5191,3.5191,3.5191,3.5191,3.5191,3.5191,3.6754,3.6513,3.6313,3.6313,3.6179,3.6032,3.5899,3.5872,3.5765,3.5471,3.5551,3.5631,3.5631,3.6006,3.638,3.6687,3.6687,3.6754,3.6941,3.7088,3.7195,3.7195,3.7342,3.7382,3.7235,3.7195,3.7048,3.6807,3.6647,3.654,3.654,3.6433,3.6273,3.6112,3.5979,3.5832,3.5685,3.5685,3.5591,3.5431,3.5431,3.5338,3.5191,3.5191,3.5191,3.5191,3.5191,3.5191,3.5191,3.5191,3.5191,3.5191,3.5191,3.5191,3.5191,3.5191,3.5191,3.5191,3.5191,3.5191,3.5191,3.5191,3.5097,3.4963,3.4803,3.4563,3.4242,3.3774,3.3681,3.3627,3.344,3.3414,3.3414,3.3414,3.3414,3.3414,3.3414,3.3414,3.3414,3.3414,3.3414,3.348,3.3654,3.3681,3.3748,3.3908,3.4202,3.4429,3.4563,3.4843,3.5057,3.5191,3.5191,3.5191,3.5191,3.5191,3.5191,3.5191,3.5191,3.5191,3.5191,3.5191,3.5191,3.5191,3.5191,3.5191,3.5191,3.5191,3.5191,3.5191,3.5191,3.5191,3.5191,3.5191,3.5191,3.5191]}]]